     2              OBSERVATION DATA    GPS                 RINEX VERSION / TYPE
ASHTORIN USGS 23 - OCT - 92 13:55                           PGM / RUN BY / DATE
                                                            COMMENT
Original Marker Name: carp CarPerm_stmpd_Lexi_1989_USGS     COMMENT
Campaign Name: USGS Parkfield                               COMMENT
4-Character Station Name: LEXI                              COMMENT
6-Character Antenna Code: ASHP12                            COMMENT
Vertical Measurement Point: EGP                             COMMENT
Vertical Offset to Rinex Ref. Point: 0.0593                 COMMENT
Radial Measurement Point: EGP                               COMMENT
Radial Offset to Rinex Ref. Point: 0.1425                   COMMENT
Antenna Height from Field Measurement: 1.3840 m             COMMENT
Additional Antenna Identification Info.:                    COMMENT
Ashtech L1/L2 Revision B (700228DE)                         COMMENT
Original XYZ: -2610614.4100 -4466246.9800 3719221.8000      COMMENT
New XYZ position is based on association with SCEC monument COMMENT
E1F1N2L6+0101. Position of that monument is believed to be  COMMENT
valid to within 1 m horizontally; vertical accuracy         COMMENT
should be no worse than 3-times this value.                 COMMENT
                                                            COMMENT
Revised Rinex header created by UCSD GPS archive for        COMMENT
GSAC on 11-Jul-2000 (2000:193) 00:40:15 GMT                 COMMENT
For assistance contact dagnew@ucsd.edu                      COMMENT
or anderson@python.ucsd.edu                                 COMMENT
                                                            COMMENT
LEXI 1989                                                   MARKER NAME
                                                            MARKER NUMBER
WKG US GEOLOGICAL SURVEY                                    OBSERVER / AGENCY
099 ASHTECH L-XII 6M24                                      REC # / TYPE / VERS
036 ASHTECH GEODETIC P                                      ANT # / TYPE
 -2620447.0475 -4460941.7962  3718442.6863                  APPROX POSITION XYZ
        1.3173        0.0000        0.0000                  ANTENNA: DELTA H/E/N
     1     2     0                                          WAVELENGTH FACT L1/2
     4    L1    L2    C1    D1                              # / TYPES OF OBSERV
    30                                                      INTERVAL
  1992    10    20    22    54   30.000000                  TIME OF FIRST OBS
  1992    10    21     4    34    0.000000                  TIME OF LAST OBS
    12                                                      # OF SATELLITES
          11   260   260   260   260                        PRN / # OF OBS
          12   109   109   109   109                        PRN / # OF OBS
          13     1     1     1     1                        PRN / # OF OBS
          14   522   522   522   522                        PRN / # OF OBS
          15   566   566   566   566                        PRN / # OF OBS
          18   203   203   203   203                        PRN / # OF OBS
          19   101   101   101   101                        PRN / # OF OBS
          20     1     1     1     1                        PRN / # OF OBS
          21   285   285   285   285                        PRN / # OF OBS
          23    71    71    71    71                        PRN / # OF OBS
          25   568   568   568   568                        PRN / # OF OBS
                                                            END OF HEADER
 92 10 20 22 54 30.0000000  0  2 11 12                               0.000300080
    122889.01518     -5039.96911  31531673.838        -421.887
    135112.60316     10546.37511  34290185.546         634.106
 92 10 20 22 55  0.0000000  0  2 11 12                               0.000288760
    110842.883 8    -14428.151 1  31529381.363        -381.339
    154719.865 6     25825.776 2  34293915.574         672.814
 92 10 20 22 55 30.0000000  0  3 11 12 15                            0.000574280
      6461.34618    -22903.64111  21334369.394        -343.099
    -11680.11616     41994.11411  24104920.735         709.096
     27831.53415   -194949.17011  24210773.576       -3428.421
 92 10 20 22 56  0.0000000  0  3 11 12 15                            0.000552290
     -2952.316 8    -30231.104 3  20732992.229        -287.823
     10447.394 6     59236.767 1  23509545.316         762.393
    -74458.251 6   -274657.448 1  23591723.316       -3393.882
 92 10 20 22 56 30.0000000  0  6 25 11 12 15 21 23                   0.000734900
     32571.63916   -171454.44811  27911727.745       -3217.698
     11925.80618    -36555.62211  25228332.289        -254.512
    -19254.64516     77417.49311  28010872.207         793.800
    102192.65815   -353817.61812  28069284.819       -3381.338
    161550.14718     77866.60211  24983256.680        1159.351
    197838.17215    121744.43611  27643114.010        2388.023
 92 10 20 22 57  0.0000000  0  6 25 11 12 15 21 23                   0.000737050
       259.42716   -246553.64011  23996079.808       -3204.884
       978.42718    -42128.99115  21329672.114        -220.654
       949.57916     96355.12011  24118197.380         825.661
       276.00416   -432738.71612  24152709.606       -3368.146
       538.95718    105168.33311  21092627.298        1177.040
       441.18616    177745.32612  23759488.627        2400.974
 92 10 20 22 57 30.0000000  0  7 28 25 11 12 15 21 23                0.000739390
    310639.57916    179402.99712  22908153.586        3093.071
    -95724.241 6   -321345.948 4  23977814.865       -3194.166
     -5170.176 8    -46920.115 5  21328502.685        -189.125
     26161.429 6    116000.814 3  24122994.528         855.142
   -100607.304 6   -511348.891 4  24133511.033       -3357.247
     36077.635 8    132860.601 5  21099389.787        1192.336
     72631.717 6    233997.595 3  23773225.715        2411.841
 92 10 20 22 58  0.0000000  0  7 28 25 11 12 15 21 23                0.000741880
    403654.375 6    251881.941 4  22925854.540        3108.366
   -191416.638 6   -395911.240 5  23959604.550       -3185.038
    -10400.107 8    -50995.385 5  21327507.685        -158.996
     52230.413 6    136314.308 3  24127955.598         883.160
   -201190.364 6   -589725.142 5  24114370.906       -3347.715
     72054.358 8    160894.410 5  21106235.082        1206.561
    145119.123 5    290481.215 4  23787020.411        2421.195
 92 10 20 22 58 30.0000000  0  7 28 25 11 12 15 21 23                0.000744510
    497124.766 6    324715.926 5  22943642.598        3122.399
   -286829.883 6   -470259.003 5  23941449.668       -3176.506
    -14721.251 8    -54362.531 6  21326685.035        -129.546
     79145.600 6    157287.182 4  24133077.397         910.559
   -301481.516 6   -667873.910 5  24095286.055       -3338.881
    108459.806 8    189262.285 6  21113162.453        1220.148
    217891.812 5    347187.138 5  23800868.895        2429.930
 92 10 20 22 59  0.0000000  0  7 28 25 11 12 15 21 23                0.000747240
    591021.416 6    397882.039 5  22961509.561        3138.244
   -381980.640 6   -544402.163 5  23923342.372       -3166.292
    -18151.374 8    -57035.353 6  21326032.602         -98.318
    106888.163 6    178904.813 5  24138356.425         939.622
   -401496.427 6   -745807.439 5  24076252.302       -3328.084
    145290.290 8    217961.355 6  21120171.788        1235.871
    290938.558 6    404106.570 5  23814769.552        2440.657
 92 10 20 22 59 30.0000000  0  7 28 25 11 12 15 21 23                0.000750110
    685379.738 6    471407.874 5  22979465.535        3153.149
   -476852.437 6   -618327.989 5  23905287.956       -3157.719
    -20662.309 8    -58991.930 6  21325555.197         -68.040
    135485.429 6    201188.421 5  24143799.007         967.757
   -501205.182 6   -823502.460 5  24057278.272       -3318.195
    182563.607 8    247005.474 6  21127264.569        1249.996
    364303.545 6    461274.069 5  23828731.124        2451.279
 92 10 20 23  0  0.0000000  0  7 28 25 11 12 15 21 23                0.000753110
    780151.354 6    545255.801 5  22997500.392        3165.057
   -571486.508 6   -692068.567 5  23887279.338       -3151.215
    -22286.728 8    -60257.745 6  21325245.996         -40.185
    164903.854 6    224111.860 5  24149397.075         993.420
   -600639.105 6   -900983.262 5  24038358.035       -3310.585
    220234.166 7    276359.152 6  21134432.789        1261.321
    437961.688 6    518669.996 5  23842747.375        2459.170
 92 10 20 23  0 30.0000000  0  7 28 25 11 12 15 21 23                0.000756200
    875286.015 6    619386.543 5  23015603.548        3176.617
   -665910.936 6   -765645.745 5  23869311.417       -3144.376
    -23063.054 8    -60862.649 6  21325098.503         -12.189
    195103.706 6    247644.258 5  24155143.611        1019.162
   -699834.668 6   -978278.356 5  24019482.861       -3303.027
    258251.462 8    305983.029 6  21141667.257        1272.698
    511860.341 6    576253.267 5  23856809.074        2466.770
 92 10 20 23  1  0.0000000  0  7 28 25 11 12 15 21 23                0.000759370
    970762.706 6    693783.890 5  23033771.800        3188.234
   -760137.209 6   -839068.600 5  23851381.973       -3137.689
    -23008.485 8    -60820.132 6  21325109.016          15.580
    226067.003 6    271771.524 5  24161035.663        1044.635
   -798807.123 6  -1055399.604 5  24000648.449       -3295.529
    296604.331 8    335868.358 7  21148965.966        1283.832
    585970.987 6    634001.795 5  23870911.341        2473.546
 92 10 20 23  1 30.0000000  0  7 28 25 11 12 15 21 23                0.000762600
   1066561.977 6    768432.571 5  23052002.740        3197.959
   -854178.860 6   -912347.613 5  23833485.982       -3131.949
    -22141.393 8    -60144.514 6  21325273.980          42.086
    257774.328 6    296478.538 5  24167069.047        1068.814
   -897572.729 5  -1132359.702 5  23981852.838       -3289.085
    335271.519 8    365998.622 7  21156323.701        1294.010
    660256.954 6    691886.861 5  23885047.964        2478.570
 92 10 20 23  2  0.0000000  0  7 28 25 11 12 15 21 23                0.000765880
   1162642.299 6    843300.223 5  23070286.541        3206.993
   -948047.015 6   -985491.418 5  23815622.359       -3126.576
    -20484.947 8    -58853.765 6  21325589.263          67.826
    290201.645 6    321746.597 5  24173239.085        1092.310
   -996152.619 6  -1209175.062 5  23963092.535       -3283.423
    374246.916 8    396369.043 7  21163740.528        1303.736
    734673.828 6    749873.987 5  23899209.393        2481.983
 92 10 20 23  2 30.0000000  0  7 28 25 11 12 15 21 23                0.000769190
   1259003.344 6    918386.659 5  23088622.637        3216.699
  -1041759.713 6  -1058514.102 5  23797789.494       -3121.386
    -18060.643 8    -56964.703 6  21326050.653          93.476
    323326.511 6    347558.184 5  24179542.268        1115.519
  -1094566.451 6  -1285861.011 5  23944365.271       -3277.774
    413513.625 8    426966.474 7  21171212.662        1313.707
    809196.230 6    807943.438 5  23913391.174        2485.823
 92 10 20 23  3  0.0000000  0  7 28 25 11 12 15 21 23                0.000772530
   1355660.263 6    993703.609 5  23107017.035        3226.402
  -1135313.526 6  -1131412.985 5  23779987.007       -3116.422
    -14862.826 8    -54472.920 6  21326659.182         119.106
    357153.785 6    373917.068 5  24185979.421        1138.761
  -1192806.272 6  -1362411.355 5  23925671.668       -3272.187
    453081.749 8    457798.770 7  21178742.830        1323.454
    883838.194 6    866105.797 5  23927594.737        2489.586
 92 10 20 23  3 30.0000000  0  7 28 25 11 12 15 21 23                0.000775910
   1452593.592 6   1069235.988 5  23125462.912        3235.904
  -1228734.305 6  -1204208.239 5  23762208.927       -3111.768
    -10910.266 8    -51393.006 6  21327411.040         144.452
    391663.407 6    400807.654 5  24192546.007        1161.650
  -1290888.934 6  -1438839.248 5  23907007.804       -3266.641
    492925.276 8    488845.675 7  21186324.763        1332.675
    958586.326 6    924351.111 5  23941819.480        2493.609
 92 10 20 23  4  0.0000000  0  7 28 25 11 12 15 21 23                0.000779320
   1549828.335 6   1145003.181 5  23143965.507        3246.177
  -1322013.589 6  -1276893.237 5  23744458.983       -3107.356
     -6188.740 8    -47713.908 6  21328309.519         169.926
    426868.736 6    428240.385 5  24199246.193        1184.699
  -1388798.289 6  -1515132.127 5  23888376.245       -3261.041
    533045.090 8    520107.861 7  21193959.118        1341.455
   1033458.733 6    982693.176 5  23956067.459        2497.595
 92 10 20 23  4 30.0000000  0  7 28 25 11 12 15 21 23                0.000782770
   1647367.901 6   1221007.953 5  23162526.958        3256.038
  -1415154.515 6  -1349470.441 5  23726733.901       -3102.425
      -700.981 8    -43437.770 6  21329354.127         195.599
    462766.221 6    456212.436 5  24206077.790        1207.938
  -1486534.441 6  -1591289.997 5  23869777.295       -3255.098
    573433.405 8    551579.239 7  21201644.769        1350.885
   1108460.350 6   1041135.880 5  23970339.321        2502.081
 92 10 20 23  5  0.0000000  0  7 28 25 11 12 15 21 23                0.000786250
   1745174.151 6   1297220.534 5  23181138.139        3264.378
  -1508167.166 6  -1421947.670 5  23709034.968       -3098.483
      5532.548 8    -38580.458 6  21330540.323         220.008
    499334.440 6    484707.120 5  24213035.673        1229.749
  -1584115.704 6  -1667327.211 5  23851208.951       -3250.360
    614087.679 8    583257.898 7  21209381.021        1359.462
   1183568.566 5   1099661.766 5  23984631.926        2505.211
 92 10 20 23  5 30.0000000  0  7 28 25 11 12 15 21 23                0.000789750
   1843237.385 6   1373633.285 5  23199800.331        3273.297
  -1601051.368 6  -1494324.832 5  23691357.915       -3093.489
     12501.082 8    -33150.457 6  21331866.485         244.846
    536561.666 6    513715.334 5  24220120.029        1252.120
  -1681550.300 6  -1743250.170 5  23832667.037       -3244.988
    655005.432 8    615141.840 7  21217167.361        1368.547
   1258786.863 5   1158273.364 5  23998945.788        2509.639
 92 10 20 23  6  0.0000000  0  7 28 25 11 12 15 21 23                0.000793280
   1941544.197 6   1450235.991 5  23218507.951        3281.116
  -1693785.728 6  -1566585.241 5  23673712.341       -3087.909
     20201.701 8    -27150.008 6  21333331.453         269.349
    574443.950 6    543233.967 5  24227329.773        1274.037
  -1778839.041 6  -1819059.444 5  23814152.957       -3240.035
    696187.142 8    647231.478 7  21225003.755        1377.740
   1334125.684 5   1216978.842 5  24013281.321        2513.984
 92 10 20 23  6 30.0000000  0  7 28 25 11 12 15 21 23                0.000796820
   2040079.499 6   1527016.556 5  23237258.548        3287.491
  -1786343.440 6  -1638707.980 5  23656098.512       -3082.898
     28639.423 8    -20575.175 6  21334937.031         292.959
    612985.684 6    573266.463 5  24234664.610        1295.103
  -1875974.782 6  -1894749.533 5  23795668.379       -3235.872
    737649.120 8    679539.495 7  21232893.707        1386.108
   1409603.293 5   1275792.546 5  24027645.067        2517.621
 92 10 20 23  7  0.0000000  0  7 28 25 11 12 15 21 23                0.000800380
   2138819.809 6   1603956.971 5  23256047.728        3294.767
  -1878735.966 6  -1710702.056 5  23638517.036       -3077.084
     37801.402 8    -13435.980 6  21336680.072         317.477
    652172.817 6    603801.865 5  24242121.631        1316.944
  -1972968.078 6  -1970328.606 5  23777210.960       -3230.666
    779368.302 8    712047.936 7  21240832.506        1394.578
   1485210.751 5   1334707.324 4  24042032.123        2522.436
 92 10 20 23  7 30.0000000  0  7 28 25 11 12 15 21 23                0.000803950
   2237749.398 6   1681044.818 5  23274872.623        3300.305
  -1970973.373 6  -1782575.219 5  23620964.637       -3072.220
     47681.975 8     -5736.858 6  21338560.832         341.176
    691999.062 6    634835.311 5  24249699.928        1337.925
  -2069821.587 6  -2045798.761 5  23758779.268       -3226.251
    821311.993 8    744731.336 7  21248814.109        1401.507
   1560936.321 5   1393714.259 4  24056441.631        2525.722
 92 10 20 23  8  0.0000000  0  7 28 25 11 12 15 21 23                0.000807530
   2336839.350 6   1758257.662 5  23293729.331        3305.725
  -2063070.091 6  -1854338.798 5  23603438.736       -3067.880
     58271.446 8      2514.653 6  21340575.868         364.749
    732453.784 6    666358.441 5  24257397.578        1358.791
  -2166542.663 6  -2121165.690 5  23740373.721       -3221.838
    863459.738 8    777573.704 7  21256834.828        1408.243
   1636744.291 5   1452785.314 4  24070867.199        2528.053
 92 10 20 23  8 30.0000000  0  7 28 25 11 12 15 21 23                0.000811120
   2436091.867 6   1835597.161 5  23312616.322        3311.109
  -2155051.323 6  -1926012.292 5  23585936.179       -3064.394
     69566.524 8     11316.013 6  21342725.238         388.183
    773532.649 6    698367.921 5  24265214.411        1379.559
  -2263132.053 6  -2196430.050 5  23721993.658       -3217.494
    905801.787 8    810567.506 7  21264892.221        1414.525
   1712618.609 5   1511908.029 4  24085305.296        2530.008
 92 10 20 23  9  0.0000000  0  7 28 25 11 12 15 21 23                0.000814690
   2535513.792 6   1913068.667 5  23331536.535        3317.059
  -2246924.405 6  -1997601.542 5  23568452.530       -3060.677
     81561.280 8     20662.524 6  21345007.459         411.509
    815228.784 6    730858.471 5  24273149.211        1400.093
  -2359593.215 6  -2271594.490 5  23703637.406       -3213.185
    948334.873 8    843710.168 7  21272986.186        1421.045
   1788539.128 5   1571066.851 4  24099752.459        2531.387
 92 10 20 23  9 30.0000000  0  7 28 25 11 12 15 21 23                0.000818260
   2635108.537 6   1990674.810 5  23350487.948        3322.477
  -2338691.841 6  -2069108.461 5  23550988.899       -3057.342
     94253.942 8     30552.915 6  21347422.656         434.624
    857539.738 6    763828.036 5  24281201.157        1420.466
  -2455925.305 6  -2346658.337 5  23685305.921       -3208.928
    991067.283 8    877008.147 7  21281118.108        1427.773
   1864503.700 5   1630259.924 5  24114208.569        2532.924
 92 10 20 23 10  0.0000000  0  7 28 25 11 12 15 21 23                0.000821810
   2734866.652 5   2068408.268 5  23369469.698        3328.324
  -2430363.081 6  -2140540.422 5  23533543.647       -3054.083
    107637.348 8     40981.526 6  21349969.504         457.755
    900457.331 6    797270.218 5  24289368.805        1440.799
  -2552132.292 6  -2421624.714 5  23666997.486       -3204.744
   1034001.672 8    910463.510 6  21289288.474        1434.680
   1940521.944 5   1689494.798 5  24128674.995        2535.145
 92 10 20 23 10 30.0000000  0  7 28 25 11 12 15 21 23                0.000825370
   2834803.922 6   2146281.297 5  23388487.788        3334.226
  -2521925.576 6  -2211887.656 5  23516120.698       -3049.964
    121717.830 8     51953.298 6  21352648.890         481.061
    943987.240 6    831189.654 5  24297651.559        1461.173
  -2648205.387 6  -2496486.755 5  23648714.977       -3200.126
   1077154.526 8    944089.104 6  21297499.538        1442.338
   2016618.927 5   1748791.129 5  24143154.875        2537.887
 92 10 20 23 11  0.0000000  0  7 28 25 11 12 15 21 23                0.000828920
   2934912.684 6   2224287.985 5  23407539.926        3339.697
  -2613364.503 6  -2283138.584 5  23498720.105       -3046.085
    136496.859 8     63469.406 6  21355461.491         504.312
    988129.909 6    865586.477 5  24306051.471        1481.532
  -2744140.806 6  -2571241.489 5  23630459.162       -3195.504
   1120537.776 8    977894.226 6  21305755.103        1449.892
   2092795.049 5   1808149.082 5  24157651.421        2540.589
 92 10 20 23 11 30.0000000  0  7 28 25 11 12 15 21 23                0.000832460
   3035178.485 5   2302417.075 5  23426619.716        3344.698
  -2704686.942 6  -2354298.726 5  23481342.280       -3042.014
    151980.755 8     75534.789 6  21358407.902         527.932
   1032890.785 6    900465.023 5  24314568.965        1502.247
  -2839929.186 6  -2645881.648 5  23612232.075       -3190.474
   1164155.502 8   1011882.062 7  21314055.517        1457.895
   2169059.337 5   1867575.732 5  24172164.234        2543.533
 92 10 20 23 12  0.0000000  0  7 28 25 11 12 15 21 23                0.000836000
   3135604.695 5   2380671.118 5  23445731.080        3350.424
  -2795872.250 6  -2425352.035 5  23463989.829       -3037.085
    168171.946 8     88151.273 6  21361489.117         551.557
   1078271.454 6    935826.652 5  24323204.786        1523.058
  -2935565.541 6  -2720403.368 5  23594033.328       -3185.303
   1208016.200 8   1046059.227 6  21322401.620        1466.171
   2245409.845 5   1927069.550 5  24186693.512        2546.314
 92 10 20 23 12 30.0000000  0  7 28 25 11 12 15 21 23                0.000839540
   3236203.746 5   2459059.838 5  23464874.144        3356.112
  -2886898.552 6  -2496281.436 5  23446668.300       -3031.440
    185079.459 8    101325.934 6  21364706.184         575.723
   1124280.336 6    971677.734 5  24331960.322        1544.149
  -3031037.521 6  -2794796.960 5  23575865.439       -3179.502
   1252133.763 8   1080436.557 6  21330797.006        1475.056
   2321841.958 5   1986626.966 5  24201237.943        2549.043
 92 10 20 23 13  0.0000000  0  7 28 25 11 12 15 21 23                0.000843070
   3336965.533 5   2537575.358 5  23484047.039        3361.359
  -2977762.109 6  -2567084.034 5  23429376.583       -3026.253
    202706.045 8    115060.932 6  21368060.549         599.532
   1170919.291 6   1008019.703 5  24340835.823        1565.024
  -3126339.353 6  -2869057.995 5  23557728.517       -3173.850
   1296514.782 8   1115019.150 6  21339242.721        1483.626
   2398351.406 6   2046244.603 5  24215797.529        2551.602
 92 10 20 23 13 30.0000000  0  7 28 25 11 12 15 21 23                0.000846600
   3437880.368 6   2616210.135 5  23503251.747        3366.415
  -3068466.797 6  -2637762.839 5  23412117.138       -3020.717
    221046.448 8    129352.135 6  21371550.574         623.214
   1218182.158 6   1044847.913 5  24349830.025        1585.639
  -3221472.933 6  -2943188.046 5  23539624.120       -3168.361
   1341151.104 8   1149800.704 6  21347736.579        1492.188
   2474941.817 6   2105925.394 5  24230373.144        2554.350
 92 10 20 23 14  0.0000000  0  7 28 25 11 12 15 21 23                0.000850130
   3538949.877 6   2694965.463 5  23522484.225        3371.469
  -3159000.726 6  -2708308.623 5  23394888.297       -3015.078
    240095.293 8    144195.372 6  21375175.804         646.793
   1266062.749 6   1082157.500 5  24358941.405        1606.202
  -3316440.951 6  -3017188.987 5  23521553.824       -3162.782
   1386037.532 8   1184777.132 6  21356278.165        1500.290
   2551615.652 6   2165671.138 5  24244963.703        2557.169
 92 10 20 23 14 30.0000000  0  7 28 25 11 12 15 21 23                0.000853650
   3640155.015 6   2773826.488 5  23541742.256        3375.481
  -3249376.501 6  -2778731.167 5  23377690.231       -3010.120
    259845.935 8    159585.472 6  21378934.263         669.916
   1314553.695 6   1119942.740 5  24368168.246        1626.209
  -3411246.817 6  -3091063.532 5  23503514.128       -3157.653
   1431162.369 8   1219939.345 6  21364865.310        1507.980
   2628367.814 6   2225477.940 5  24259569.687        2559.541
 92 10 20 23 15  0.0000000  0  7 28 25 11 12 15 21 23                0.000857160
   3741477.254 6   2852778.717 5  23561025.229        3379.277
  -3339613.062 6  -2849045.272 5  23360519.198       -3005.720
    280281.392 8    175509.207 6  21382822.899         692.440
   1363637.157 5   1158189.527 5  24377508.135        1645.748
  -3505904.266 6  -3164822.442 5  23485501.759       -3152.867
   1476504.546 8   1255270.882 6  21373493.617        1514.783
   2705181.761 6   2285332.939 5  24274186.731        2561.345
 92 10 20 23 15 30.0000000  0  7 28 25 11 12 15 21 23                0.000860650
   3842915.305 6   2931821.203 5  23580326.539        3383.133
  -3429707.496 6  -2919248.626 5  23343375.579       -3000.737
    301393.018 7    191959.784 6  21386840.090         714.941
   1413303.702 5   1196890.678 5  24386959.732        1665.061
  -3600419.182 6  -3238470.312 5  23467516.518       -3148.157
   1522046.497 8   1290758.108 6  21382159.888        1521.260
   2782045.856 5   2345226.930 5  24288813.434        2562.764
 92 10 20 23 16  0.0000000  0  7 28 25 11 12 15 21 23                0.000864130
   3944470.467 6   3010954.962 5  23599653.176        3387.125
  -3519651.720 6  -2989334.937 5  23326259.267       -2995.468
    323177.759 8    208934.906 6  21390985.498         737.516
   1463549.389 5   1236043.230 5  24396521.046        1684.588
  -3694791.388 6  -3312006.987 5  23449557.534       -3143.193
   1567773.727 8   1326389.723 6  21390862.065        1527.334
   2858951.890 6   2405153.630 5  24303448.572        2564.264
 92 10 20 23 16 30.0000000  0  7 28 25 11 12 15 21 23                0.000867600
   4046150.839 6   3090186.290 5  23619003.205        3391.624
  -3609430.382 6  -3059292.209 5  23309175.883       -2989.795
    345646.243 8    226442.785 6  21395261.558         760.424
   1514384.318 5   1275654.840 5  24406194.604        1704.347
  -3789006.933 6  -3385421.569 5  23431629.903       -3137.813
   1613687.359 7   1362166.552 6  21399599.007        1533.482
   2935902.714 5   2465115.276 5  24318091.456        2565.867
 92 10 20 23 17  0.0000000  0  7 28 25 11 12 15 21 23                0.000871070
   4147961.416 6   3169519.055 5  23638376.441        3395.664
  -3699034.888 6  -3129113.788 5  23292124.134       -2983.964
    368800.123 8    244484.745 6  21399667.379         783.186
   1565809.304 5   1315726.171 5  24415980.217        1723.838
  -3883061.119 6  -3458710.488 5  23413731.113       -3132.459
   1659778.756 8   1398081.922 6  21408369.526        1539.310
   3012905.989 5   2525117.629 5  24332743.935        2567.749
 92 10 20 23 17 30.0000000  0  7 28 25 11 12 15 21 23                0.000874550
   4249888.775 6   3248942.866 5  23657773.945        3399.405
  -3788467.050 7  -3198801.062 5  23275105.479       -2978.440
    392636.422 8    263058.465 6  21404203.508         805.870
   1617820.447 6   1356254.391 5  24425877.748        1743.315
  -3976953.184 6  -3531873.032 5  23395863.240       -3127.070
   1706044.960 7   1434133.485 6  21417173.850        1545.074
   3089975.641 5   2585171.930 5  24347410.986        2570.179
 92 10 20 23 18  0.0000000  0  7 28 25 11 12 15 21 23                0.000878040
   4351925.401 6   3328451.745 5  23677192.104        3402.999
  -3877740.721 7  -3268364.889 5  23258117.400       -2973.263
    417147.238 8    282157.777 6  21408868.058         828.255
   1670409.286 5   1397232.677 5  24435884.511        1762.410
  -4070688.092 6  -3604913.047 5  23378026.371       -3121.851
   1752483.487 7   1470319.330 6  21426010.720        1550.982
   3167116.829 5   2645281.917 5  24362090.503        2572.391
 92 10 20 23 18 30.0000000  0  7 28 25 11 12 15 21 23                0.000881510
   4454062.039 5   3408038.594 5  23696627.479        3406.115
  -3966863.701 7  -3337811.293 5  23241156.765       -2968.409
    442327.454 8    301778.683 6  21413659.633         850.481
   1723570.099 5   1438656.702 5  24446001.051        1781.367
  -4164267.445 6  -3677831.922 5  23360218.746       -3116.722
   1799110.575 8   1506652.119 6  21434883.559        1557.560
   3244320.794 5   2705440.696 5  24376780.934        2574.627
 92 10 20 23 19  0.0000000  0  7 28 25 11 12 15 21 23                0.000884960
   4556282.956 5   3487691.021 5  23716078.360        3408.710
  -4055846.861 6  -3407148.697 5  23224224.442       -2963.921
    468172.264 8    321917.482 6  21418577.556         872.523
   1777297.134 6   1480521.817 5  24456224.740        1800.267
  -4257692.477 6  -3750630.501 5  23342440.065       -3111.574
   1845945.894 7   1543147.157 6  21443795.899        1564.957
   3321597.538 5   2765656.259 5  24391487.403        2577.098
 92 10 20 23 19 30.0000000  0  7 28 25 11 12 15 21 23                0.000888380
   4658588.096 5   3567409.229 5  23735546.421        3411.676
  -4144689.433 6  -3476376.541 5  23207318.408       -2958.910
    494680.323 8    342573.081 6  21423622.755         894.648
   1831588.390 6   1522826.761 5  24466557.271        1819.036
  -4350960.973 6  -3823307.119 5  23324690.236       -3106.335
   1893008.938 7   1579819.642 6  21452751.708        1572.607
   3398945.225 5   2825927.058 4  24406205.616        2579.249
 92 10 20 23 20  0.0000000  0  7 28 25 11 12 15 21 23                0.000891780
   4760976.399 5   3647192.136 5  23755029.801        3414.081
  -4233372.336 6  -3545479.974 5  23190442.152       -2953.350
    521848.368 8    363742.967 6  21428792.764         916.616
   1886440.019 5   1565568.192 5  24476991.987        1837.615
  -4444072.757 6  -3895861.657 5  23306971.200       -3101.094
   1940301.950 7   1616671.326 6  21461751.069        1580.218
   3476350.240 5   2886242.633 4  24420935.368        2581.005
 92 10 20 23 20 30.0000000  0  7 28 25 11 12 15 21 23                0.000895140
   4863423.637 5   3727021.043 5  23774523.541        3415.822
  -4321890.429 7  -3614454.976 5  23173597.771       -2948.073
    549669.882 8    385422.044 6  21434086.742         938.164
   1941844.600 6   1608740.505 5  24487536.126        1855.869
  -4537030.647 6  -3968296.334 5  23289281.897       -3096.149
   1987815.797 7   1653695.079 6  21470792.806        1587.152
   3553804.728 5   2946596.576 4  24435675.401        2582.771
 92 10 20 23 21  0.0000000  0  7 28 25 11 12 15 21 23                0.000898480
   4965926.994 5   3806893.626 5  23794029.980        3417.684
  -4410255.287 7  -3683310.565 5  23156782.312       -2943.058
    578135.807 8    407603.262 6  21439503.467         959.528
   1997792.508 5   1652336.351 5  24498183.685        1873.804
  -4629840.160 6  -4040615.294 5  23271620.794       -3091.236
   2035522.665 7   1690869.229 6  21479871.413        1593.045
   3631311.738 5   3006991.701 4  24450423.953        2584.163
 92 10 20 23 21 30.0000000  0  7 28 25 11 12 15 21 23                0.000901790
   5068483.329 5   3886807.448 5  23813546.377        3419.055
  -4498461.467 6  -3752042.507 5  23139997.426       -2937.626
    607242.231 8    430283.553 6  21445042.498         980.794
   2054279.104 5   1696351.930 5  24508932.694        1891.662
  -4722501.495 6  -4112818.810 5  23253988.521       -3086.330
   2083388.975 7   1728167.644 6  21488980.106        1597.763
   3708844.175 5   3067406.478 4  24465177.053        2584.577
 92 10 20 23 22  0.0000000  0  7 28 25 11 12 15 21 23                0.000905070
   5171073.173 5   3966747.441 5  23833068.970        3420.046
  -4586513.764 7  -3820654.580 5  23123240.593       -2932.777
    636982.245 8    453457.566 6  21450701.510        1001.800
   2111296.953 5   1740781.295 5  24519781.572        1909.283
  -4815018.033 6  -4184909.490 5  23236383.259       -3081.595
   2131388.951 7   1765570.214 6  21498113.956        1601.944
   3786387.416 5   3127829.636 3  24479933.635        2584.832
 92 10 20 23 22 30.0000000  0  7 28 25 11 12 15 21 23                0.000908320
   5273695.593 5   4046712.785 5  23852598.830        3421.403
  -4674425.236 7  -3889156.925 5  23106512.083       -2928.112
    667350.966 7    477121.487 6  21456480.267        1022.801
   2168840.482 5   1785620.366 5  24530731.357        1926.849
  -4907390.933 6  -4256888.245 5  23218806.085       -3076.635
   2179507.650 7   1803065.269 6  21507270.916        1605.960
   3863937.928 5   3188258.638 4  24494690.205        2585.148
 92 10 20 23 23  0.0000000  0  7 28 25 11 12 15 21 23                0.000911550
   5376346.474 5   4126700.351 5  23872133.178        3421.916
  -4762198.253 6  -3957551.375 5  23089809.790       -2923.303
    698348.037 7    501275.007 6  21462378.644        1043.698
   2226908.652 5   1830868.355 5  24541781.398        1944.233
  -4999616.429 6  -4328752.192 5  23201256.783       -3071.719
   2227745.916 7   1840653.505 6  21516450.450        1610.014
   3941483.427 5   3248683.584 4  24509447.357        2584.450
 92 10 20 23 23 30.0000000  0  7 28 25 11 12 15 21 23                0.000914720
   5479008.260 5   4206696.379 5  23891669.127        3422.216
  -4849812.005 6  -4025821.697 5  23073137.262       -2917.826
    729968.798 8    525914.525 6  21468395.548        1064.282
   2285496.116 5   1876520.913 5  24552929.200        1961.350
  -5091695.276 6  -4400501.878 5  23183734.596       -3066.989
   2276113.257 7   1878342.310 6  21525654.190        1614.538
   4019006.232 5   3309090.860 4  24524199.324        2583.801
 92 10 20 23 24  0.0000000  0  7 28 25 11 12 15 21 23                0.000917850
   5581680.849 5   4286700.855 5  23911206.774        3422.718
  -4937267.834 6  -4093968.984 5  23056494.135       -2912.585
    762202.988 8    551032.059 6  21474529.443        1084.709
   2344592.022 5   1922569.582 5  24564176.179        1978.270
  -5183634.124 6  -4472142.446 5  23166238.988       -3062.237
   2324625.633 7   1916144.138 6  21534885.749        1619.780
   4096521.407 6   3369492.363 4  24538949.680        2583.861
 92 10 20 23 24 30.0000000  0  7 28 25 11 12 15 21 23                0.000920930
   5684367.785 5   4366716.462 5  23930746.540        3422.903
  -5024569.599 7  -4161996.208 5  23039881.270       -2907.755
    795049.625 8    576626.810 6  21480780.105        1104.969
   2404194.828 5   1969013.349 5  24575518.598        1995.022
  -5275430.217 6  -4543671.746 5  23148770.374       -3057.560
   2373307.266 7   1954077.865 6  21544149.115        1625.631
   4174028.258 5   3429887.186 3  24553699.817        2583.256
 92 10 20 23 25  0.0000000  0  7 28 25 11 12 15 21 23                0.000923930
   5787049.011 5   4446727.668 5  23950285.558        3422.812
  -5111728.599 7  -4229912.252 5  23023295.842       -2902.816
    828499.627 8    602691.699 6  21487145.967        1124.990
   2464294.786 5   2015844.441 5  24586953.728        2011.479
  -5367088.536 6  -4615093.691 5  23131327.834       -3053.016
   2422164.339 7   1992148.285 6  21553446.809        1631.624
   4251513.640 6   3490265.353 4  24568445.410        2582.583
 92 10 20 23 25 30.0000000  0  7 28 25 11 12 15 21 23                0.000926890
   5889729.533 6   4526738.274 5  23969826.819        3422.701
  -5198742.256 7  -4297715.042 5  23006737.348       -2898.158
    862545.407 7    629220.858 6  21493624.684        1144.879
   2524883.675 5   2063056.451 5  24598485.296        2027.717
  -5458612.560 6  -4686411.048 5  23113911.462       -3048.477
   2471204.815 7   2030361.624 6  21562778.907        1637.870
   4328989.771 6   3550636.361 4  24583188.432        2582.814
 92 10 20 23 26  0.0000000  0  7 28 25 11 12 15 21 23                0.000929770
   5992396.322 5   4606738.224 5  23989363.411        3421.681
  -5285622.930 7  -4365414.166 5  22990204.772       -2894.033
    897186.575 8    656213.945 6  21500216.827        1164.509
   2585960.608 5   2110648.939 5  24610108.475        2043.891
  -5549998.616 6  -4757620.923 5  23096521.222       -3043.995
   2520433.540 7   2068721.640 6  21572146.723        1643.974
   4406477.471 6   3611016.222 4  24597933.684        2582.808
 92 10 20 23 26 30.0000000  0  7 28 25 11 12 15 21 23                0.000932580
   6095029.953 6   4686712.290 5  24008891.761        3420.451
  -5372380.041 7  -4433017.013 5  22973695.114       -2889.801
    932416.867 7    683666.086 6  21506921.668        1184.088
   2647518.648 5   2158616.253 5  24621822.233        2059.814
  -5641249.094 6  -4828725.067 5  23079156.334       -3039.453
   2569839.947 7   2107220.123 6  21581548.326        1649.495
   4483964.472 6   3671395.704 4  24612679.052        2583.011
 92 10 20 23 27  0.0000000  0  7 28 25 11 12 15 21 23                0.000935340
   6197629.458 6   4766659.843 5  24028418.061        3419.528
  -5458998.674 7  -4500511.998 5  22957211.475       -2884.770
    968233.593 8    711575.193 6  21513737.069        1203.676
   2709554.732 5   2206955.956 5  24633627.378        2075.683
  -5732362.906 6  -4899722.741 5  23061818.493       -3034.841
   2619401.595 7   2145839.575 6  21590979.407        1654.587
   4561474.375 5   3731793.029 5  24627428.772        2584.230
 92 10 20 23 27 30.0000000  0  7 28 25 11 12 15 21 23                0.000938040
   6300199.140 6   4846584.077 5  24047936.108        3418.316
  -5545467.855 7  -4567890.533 5  22940756.923       -2880.046
   1004632.318 7    739937.797 6  21520663.175        1222.980
   2772063.719 6   2255664.211 5  24645522.480        2091.384
  -5823339.891 6  -4970613.795 5  23044506.828       -3030.245
   2669104.950 7   2184569.431 6  21600437.838        1658.890
   4639014.701 5   3792213.914 5  24642183.818        2585.148
 92 10 20 23 28  0.0000000  0  7 28 25 11 12 15 21 23                0.000940700
   6402733.816 5   4926481.119 5  24067447.535        3417.108
  -5631799.708 7  -4635162.029 5  22924328.816       -2875.760
   1041611.181 8    768752.449 6  21527700.163        1241.987
   2835043.087 6   2304739.081 5  24657507.266        2106.839
  -5914178.155 6  -5041396.834 5  23027220.537       -3025.891
   2718929.473 7   2223393.715 6  21609918.954        1662.337
   4716573.279 5   3852649.154 5  24656942.668        2584.935
 92 10 20 23 28 30.0000000  0  7 28 25 11 12 15 21 23                0.000943320
   6505253.601 5   5006366.498 5  24086956.060        3417.247
  -5717983.706 7  -4702318.275 5  22907929.001       -2870.089
   1079171.093 8    798019.902 6  21534848.093        1261.841
   2898493.524 6   2354180.969 5  24669581.631        2122.922
  -6004872.597 6  -5112067.764 5  23009961.335       -3020.546
   2768856.946 7   2262298.220 6  21619419.947        1665.867
   4794127.832 5   3913081.260 5  24671700.469        2585.225
 92 10 20 23 29  0.0000000  0  7 28 25 11 12 15 21 23                0.000945900
   6607765.515 5   5086245.782 5  24106464.614        3416.119
  -5804001.658 7  -4769345.181 5  22891560.481       -2865.180
   1117322.402 7    827748.149 6  21542107.352        1280.955
   2962424.482 6   2403997.236 5  24681747.497        2138.356
  -6095408.570 6  -5182615.181 5  22992732.341       -3015.835
   2818890.022 7   2301285.035 6  21628941.095        1669.140
   4871679.301 5   3973510.829 5  24686458.033        2584.009
 92 10 20 23 29 30.0000000  0  7 28 25 11 12 15 21 23                0.000948410
   6710201.554 5   5166065.903 5  24125957.891        3413.888
  -5889915.190 7  -4836290.715 5  22875211.013       -2861.410
   1156011.567 7    857895.524 6  21549469.191        1299.407
   3026782.411 6   2454146.270 5  24693994.518        2153.091
  -6185835.076 6  -5253077.288 5  22975524.865       -3011.559
   2868986.809 7   2340321.454 6  21638474.316        1671.787
   4949145.794 5   4033874.322 5  24701198.796        2581.453
 92 10 20 23 30  0.0000000  0  7 28 25 11 12 15 21 23                0.000950870
   6812609.037 5   5245863.809 5  24145444.386        3412.599
  -5975662.262 7  -4903106.559 5  22858893.868       -2855.682
   1195295.758 7    888506.549 6  21556945.357        1318.989
   3091623.749 6   2504672.032 5  24706334.385        2168.838
  -6276090.707 6  -5323406.281 5  22958349.896       -3006.097
   2919212.013 7   2379457.941 6  21648031.410        1676.058
   5026574.139 5   4094208.036 5  24715934.008        2579.853
 92 10 20 23 30 30.0000000  0  6 28 25 11 12 15 21                   0.000953250
   6914957.562 5   5325615.740 5  24164920.644        3410.645
  -6061248.243 7  -4969796.815 5  22842607.730       -2850.142
   1235152.396 8    919563.636 6  21564529.177        1338.251
   3156925.154 5   2555556.230 5  24718760.025        2184.466
  -6366193.625 6  -5393616.335 5  22941202.585       -3000.723
   2969559.313 7   2418689.592 6  21657612.526        1680.540
 92 10 20 23 31  0.0000000  0  6 28 25 11 12 15 21                   0.000955580
   7017238.697 5   5405315.148 5  24184384.144        3407.958
  -6146672.180 7  -5036360.814 5  22826351.894       -2844.949
   1275583.263 8    951068.174 6  21572222.811        1357.010
   3222688.281 6   2606800.198 5  24731274.819        2199.472
  -6456137.495 6  -5463702.348 5  22924086.000       -2995.700
   3020050.878 7   2458033.650 6  21667221.204        1685.426
 92 10 20 23 31 30.0000000  0  6 28 25 11 12 15 21                   0.000957840
   7119432.582 5   5484946.577 5  24203831.906        3405.177
  -6231940.675 7  -5102803.686 5  22810125.710       -2839.712
   1316571.979 8    983007.430 6  21580022.891        1375.603
   3288896.229 5   2658390.808 5  24743873.694        2214.289
  -6545934.448 6  -5533673.912 5  22906998.745       -2990.750
   3070680.257 7   2497485.119 6  21676855.794        1689.873
 92 10 20 23 32  0.0000000  0  6 28 25 11 12 15 21                   0.000960020
   7221548.671 5   5564517.403 5  24223264.258        3402.754
  -6317044.571 7  -5169118.302 5  22793930.071       -2833.818
   1358117.583 8   1015380.596 6  21587928.689        1394.301
   3355547.579 6   2710326.934 5  24756556.650        2229.226
  -6635581.036 7  -5603528.301 5  22889941.412       -2985.467
   3121448.030 7   2537044.367 6  21686516.189        1694.758
 92 10 20 23 32 30.0000000  0  6 28 25 11 12 15 21                   0.000962150
   7323599.810 5   5644037.545 5  24242684.150        3400.626
  -6401971.339 7  -5235294.914 5  22777768.149       -2827.947
   1400230.222 7   1048195.589 6  21595942.509        1413.184
   3422651.833 6   2762615.979 5  24769327.391        2244.255
  -6725062.704 7  -5673254.192 5  22872914.322       -2979.972
   3172361.197 7   2576716.958 6  21696204.491        1699.331
 92 10 20 23 33  0.0000000  0  6 28 25 11 12 15 21                   0.000964200
   7425582.066 5   5723504.058 5  24262090.335        3398.246
  -6486714.719 7  -5301328.586 5  22761642.702       -2821.595
   1442907.239 7   1081450.381 6  21604064.189        1432.001
   3490206.109 6   2815255.631 5  24782182.420        2259.225
  -6814377.704 6  -5742850.237 5  22855917.739       -2974.306
   3223411.689 7   2616496.552 6  21705918.915        1704.065
 92 10 20 23 33 30.0000000  0  6 28 25 11 12 15 21                   0.000966210
   7527498.615 5   5802919.466 5  24281484.993        3396.255
  -6571268.550 7  -5367214.563 5  22745552.661       -2815.429
   1486147.911 8   1115144.384 6  21612292.569        1450.824
   3558209.260 6   2868245.101 5  24795123.172        2274.248
  -6903521.779 7  -5812313.042 5  22838953.851       -2968.504
   3274601.006 7   2656384.298 6  21715660.202        1708.684
 92 10 20 23 34  0.0000000  0  6 28 25 11 12 15 21                   0.000968150
   7629355.998 5   5882288.638 5  24300866.389        3394.244
  -6655631.890 7  -5432952.116 5  22729498.815       -2808.764
   1529953.307 7   1149278.422 6  21620629.069        1469.749
   3626661.888 6   2921584.802 5  24808149.616        2289.200
  -6992489.360 7  -5881638.326 5  22822024.024       -2962.475
   3325933.800 7   2696383.860 6  21725428.769        1713.639
 92 10 20 23 34 30.0000000  0  7 28 25 11 12 15 21 23                0.000970040
   7731142.330 5   5961602.482 5  24320235.924        3391.999
  -6739808.053 7  -5498543.828 5  22713481.076       -2802.562
   1574319.519 7   1183849.480 6  21629071.338        1488.526
   3695559.619 5   2975271.286 5  24821258.780        2304.228
  -7081279.839 7  -5950825.620 5  22805126.663       -2956.396
   3377409.400 7   2736494.693 6  21735223.917        1718.618
    -16771.39715     11723.82911  24848435.787        2579.742
 92 10 20 23 35  0.0000000  0  7 28 25 11 12 15 21 23                0.000971900
   7832868.172 5   6040869.219 5  24339595.320        3389.505
  -6823792.004 7  -5563985.752 5  22697498.758       -2796.649
   1619257.289 7   1218865.877 6  21637622.795        1507.123
   3764912.970 6   3029312.841 5  24834456.822        2318.959
  -7169877.876 7  -6019862.989 5  22788267.179       -2950.348
   3429051.453 7   2776735.232 6  21745051.505        1723.892
     60608.079 5     72012.849 1  24863159.082        2578.647
 92 10 20 23 35 30.0000000  0  7 28 25 11 12 15 21 23                0.000973680
   7934507.135 5   6120068.232 5  24358937.390        3386.549
  -6907608.538 7  -5629297.223 5  22681548.800       -2790.997
   1664740.812 7   1254307.552 6  21646278.154        1525.332
   3834695.498 5   3083688.852 5  24847736.194        2333.212
  -7258304.691 7  -6088766.923 5  22771440.518       -2944.617
   3480836.314 7   2817087.060 6  21754906.031        1728.624
    137949.582 5    132279.129 1  24877876.220        2577.571
 92 10 20 23 36  0.0000000  0  6 28 25 11 12 15 21                   0.000975380
   8036059.984 5   6199200.143 5  24378262.751        3383.702
  -6991248.237 7  -5694470.918 5  22665632.948       -2785.003
   1710775.425 7   1290178.651 6  21655038.147        1543.685
   3904912.528 5   3138403.316 5  24861096.151        2347.783
  -7346550.171 7  -6157529.513 5  22754648.476       -2938.412
   3532769.258 7   2857554.268 6  21764788.353        1733.503
 92 10 20 23 36 30.0000000  0  6 28 25 11 12 15 21                   0.000977040
   8137529.015 5   6278266.730 5  24397571.310        3380.970
  -7074705.663 7  -5759502.632 5  22649751.234       -2778.846
   1757359.099 7   1326477.607 6  21663902.584        1561.872
   3975561.363 5   3193454.381 5  24874540.304        2362.059
  -7434611.395 7  -6226148.585 5  22737890.094       -2932.334
   3584838.085 7   2898127.354 6  21774696.532        1737.720
 92 10 20 23 37  0.0000000  0  6 28 25 11 12 15 21                   0.000978650
   8238917.372 5   6357270.510 5  24416866.245        3378.199
  -7157963.241 7  -5824378.553 5  22633908.531       -2771.787
   1804489.875 7   1363202.836 6  21672871.274        1580.133
   4046640.014 5   3248840.305 5  24888066.370        2376.315
  -7522485.773 7  -6294622.033 5  22721168.303       -2925.992
   3637031.298 7   2938797.377 6  21784628.785        1741.574
 92 10 20 23 37 30.0000000  0  6 28 25 11 12 15 21                   0.000980210
   8340227.591 5   6436213.321 5  24436144.385        3375.682
  -7241006.075 7  -5889087.181 5  22618105.541       -2764.558
   1852168.028 7   1400354.627 6  21681944.132        1598.289
   4118147.961 5   3304560.763 5  24901674.271        2390.623
  -7610168.248 7  -6362945.987 5  22704482.443       -2919.590
   3689338.758 7   2979556.414 6  21794582.334        1745.445
 92 10 20 23 38  0.0000000  0  6 28 25 11 12 15 21                   0.000981720
   8441463.274 5   6515098.095 5  24455407.647        3373.153
  -7323832.983 7  -5953627.538 5  22602344.123       -2757.279
   1900391.775 7   1437931.553 6  21691121.159        1616.557
   4190083.484 5   3360614.370 5  24915363.323        2404.872
  -7697655.294 7  -6431117.637 5  22687835.047       -2912.974
   3741757.126 7   3020401.869 6  21804557.190        1748.978
 92 10 20 23 38 30.0000000  0  6 28 25 11 12 15 21                   0.000983180
   8542609.368 5   6593913.040 5  24474652.728        3369.877
  -7406432.581 7  -6017990.809 5  22586626.202       -2749.579
   1949158.032 7   1475931.199 6  21700400.694        1634.519
   4262443.188 5   3416998.488 5  24929132.220        2418.949
  -7784945.276 7  -6499135.694 5  22671223.381       -2906.406
   3794277.447 7   3061326.795 6  21814551.630        1752.460
 92 10 20 23 39  0.0000000  0  6 28 25 11 12 15 21                   0.000984580
   8643638.407 5   6672636.787 5  24493878.514        3365.581
  -7488804.120 7  -6082176.344 5  22570950.463       -2741.956
   1998461.347 7   1514349.325 6  21709783.059        1652.465
   4335221.255 5   3473708.734 5  24942981.814        2432.946
  -7872038.960 7  -6567000.821 5  22654649.414       -2899.735
   3846915.042 7   3102343.097 6  21824568.329        1756.869
 92 10 20 23 39 30.0000000  0  6 28 25 11 12 15 21                   0.000985910
   8744538.524 5   6751260.041 5  24513078.929        3360.893
  -7570952.359 7  -6146187.860 5  22555318.616       -2734.841
   2048303.475 7   1553187.317 6  21719268.111        1670.320
   4408419.017 5   3530746.018 5  24956911.508        2446.805
  -7958929.388 7  -6634707.578 5  22638114.830       -2893.002
   3899698.584 7   3143473.098 6  21834612.303        1761.912
 92 10 20 23 40  0.0000000  0  6 28 25 11 12 15 21                   0.000987160
   8845285.249 5   6829763.798 5  24532250.464        3355.749
  -7652895.569 7  -6210039.638 5  22539725.494       -2728.024
   2098678.822 7   1592440.814 6  21728853.809        1688.119
   4482031.042 5   3588105.984 4  24970918.362        2460.633
  -8045617.203 7  -6702256.478 5  22621619.328       -2886.158
   3952626.151 7   3184715.347 6  21844683.818        1766.747
 92 10 20 23 40 30.0000000  0  6 28 25 11 12 15 21                   0.000988330
   8945884.765 5   6908152.823 5  24551396.088        3351.125
  -7734628.075 7  -6273727.245 5  22524172.181       -2721.106
   2149591.570 7   1632113.048 6  21738542.599        1706.061
   4556060.708 5   3645791.394 4  24985005.798        2474.520
  -8132093.295 7  -6769640.360 5  22605162.732       -2878.972
   4005709.623 7   3226079.080 6  21854785.486        1772.155
 92 10 20 23 41  0.0000000  0  6 28 25 11 12 15 21                   0.000989430
   9046349.365 5   6986436.716 5  24570512.435        3346.939
  -7816165.701 7  -6337263.000 5  22508655.961       -2714.770
   2201038.300 7   1672201.380 6  21748332.544        1723.824
   4630504.521 5   3703799.573 4  24999172.350        2488.344
  -8218356.287 7  -6836858.185 5  22588746.827       -2871.759
   4058957.330 7   3267570.795 6  21864918.412        1777.630
 92 10 20 23 41 30.0000000  0  5 25 11 12 15 21                      0.000990470
  -7897515.435 7  -6400652.301 6  22493175.600       -2708.566
   2253018.481 7   1712705.387 6  21758224.354        1741.545
   4705361.726 5   3762129.836 4  25013416.813        2502.054
  -8304401.348 7  -6903906.179 5  22572373.788       -2864.509
   4112357.061 7   3309180.945 6  21875080.205        1782.245
 92 10 20 23 42  0.0000000  0  5 25 11 12 15 21                      0.000991420
  -7978666.167 7  -6463886.554 6  22477732.580       -2701.212
   2305528.175 7   1753621.980 6  21768216.518        1759.204
   4780628.360 5   3820779.055 4  25027738.546        2515.733
  -8390227.138 7  -6970783.364 5  22556041.638       -2857.143
   4165886.529 7   3350892.194 6  21885266.796        1786.607
 92 10 20 23 42 30.0000000  0  5 25 11 12 15 21                      0.000992330
  -8059578.275 7  -6526934.885 6  22462335.749       -2692.934
   2358564.067 7   1794948.647 6  21778308.881        1776.679
   4856300.552 5   3879744.427 4  25042139.149        2529.148
  -8475831.836 7  -7037488.289 5  22539752.063       -2849.720
   4219550.731 7   3392708.448 6  21895478.446        1791.151
 92 10 20 23 43  0.0000000  0  5 25 11 12 15 21                      0.000993200
  -8140237.139 7  -6589785.876 6  22446986.975       -2684.186
   2412123.525 7   1836683.263 6  21788501.126        1794.077
   4932375.822 5   3939023.850 4  25056616.374        2542.437
  -8561213.179 7  -7104019.098 5  22523504.992       -2842.220
   4273349.162 7   3434629.322 6  21905715.895        1795.432
 92 10 20 23 43 30.0000000  0  6 28 25 11 12 15 21                   0.000994230
     13319.24815     22881.81211  24665817.943        3329.608
  -8220624.103 7  -6652425.014 6  22431689.515       -2674.879
   2466209.377 7   1878828.043 6  21798793.450        1811.625
   5008856.588 5   3998619.145 3  25071170.784        2556.067
  -8646363.146 7  -7170369.663 5  22507300.862       -2834.435
   4327278.621 7   3476652.242 6  21915979.124        1799.765
 92 10 20 23 44  0.0000000  0  6 28 25 11 12 15 21                   0.000995050
    113135.722 6    100664.907 1  24684816.347        3324.962
  -8300724.912 7  -6714841.134 6  22416446.817       -2665.357
   2520819.626 7   1921381.458 6  21809185.373        1829.097
   5085740.668 5   4058528.854 3  25085801.667        2569.489
  -8731278.701 7  -7236537.582 5  22491142.226       -2826.513
   4381332.803 7   3518772.340 5  21926264.934        1804.029
 92 10 20 23 44 30.0000000  0  6 28 25 11 12 15 21                   0.000995790
    212812.148 5    178334.516 2  24703782.631        3320.110
  -8380554.315 7  -6777045.807 6  22401255.773       -2656.881
   2575952.621 7   1964342.200 6  21819676.203        1846.472
   5163026.367 5   4118751.497 3  25100509.607        2582.792
  -8815955.957 7  -7302519.789 5  22475028.303       -2818.557
   4435522.134 7   3560997.791 5  21936577.554        1808.572
 92 10 20 23 45  0.0000000  0  6 28 25 11 12 15 21                   0.000996470
    312353.240 5    255898.790 2  24722722.782        3316.008
  -8460137.593 7  -6839058.715 6  22386112.067       -2648.664
   2631610.663 7   2007712.075 6  21830267.692        1864.153
   5240715.775 5   4179288.755 4  25115292.470        2596.418
  -8900387.501 7  -7368310.525 5  22458961.975       -2810.128
   4489849.641 7   3603330.905 5  21946915.186        1813.324
 92 10 20 23 45 30.0000000  0  6 28 25 11 12 15 21                   0.000997110
    411767.504 5    333364.300 3  24741636.932        3311.699
  -8539475.459 7  -6900880.361 6  22371014.638       -2640.640
   2687792.800 7   2051490.312 6  21840959.238        1881.345
   5318807.713 5   4240139.609 4  25130153.543        2609.535
  -8984568.803 7  -7433906.285 5  22442942.435       -2801.932
   4544317.655 7   3645773.493 5  21957279.812        1817.833
 92 10 20 23 46  0.0000000  0  6 28 25 11 12 15 21                   0.000997700
    511055.242 5    410731.092 3  24760530.593        3307.491
  -8618574.241 7  -6962515.704 6  22355962.187       -2632.830
   2744488.603 7   2095668.819 6  21851748.299        1898.295
   5397291.644 5   4301295.944 3  25145087.471        2622.449
  -9068504.844 7  -7499310.958 5  22426969.591       -2793.823
   4598921.821 7   3688322.175 5  21967670.715        1822.579
 92 10 20 23 46 30.0000000  0  6 28 25 11 12 15 21                   0.000998250
    610210.268 5    487994.478 4  24779401.600        3302.668
  -8697440.909 7  -7023970.200 6  22340954.231       -2624.896
   2801689.717 7   2140241.087 6  21862633.564        1915.013
   5476159.079 5   4362751.058 4  25160095.273        2635.109
  -9152198.957 7  -7564527.103 5  22411042.936       -2785.843
   4653677.271 7   3730988.738 5  21978090.916        1827.595
 92 10 20 23 47  0.0000000  0  6 28 25 11 12 15 21                   0.000998740
    709219.353 5    565144.199 4  24798241.453        3297.724
  -8776054.943 7  -7085227.821 6  22325993.936       -2616.333
   2859394.970 7   2185206.162 6  21873613.975        1931.823
   5555408.859 5   4424504.145 5  25175176.073        2647.894
  -9235646.910 7  -7629551.393 5  22395162.988       -2777.542
   4708579.345 7   3773769.539 5  21988538.561        1832.340
 92 10 20 23 47 30.0000000  0  6 28 25 11 12 15 21                   0.000999170
    808074.596 5    642174.006 5  24817053.207        3292.567
  -8854413.583 7  -7146286.425 6  22311083.108       -2607.829
   2917602.331 7   2230562.508 6  21884689.953        1948.653
   5635038.814 6   4486553.405 5  25190329.668        2660.586
  -9318845.336 7  -7694381.252 5  22379330.822       -2769.070
   4763621.583 7   3816659.566 5  21999012.642        1837.049
 92 10 20 23 48  0.0000000  0  6 28 25 11 12 15 21                   0.000999540
    906766.630 5    719076.636 5  24835834.922        3286.842
  -8932520.766 7  -7207149.089 6  22296219.550       -2599.441
   2976308.836 7   2276307.808 6  21895861.679        1965.083
   5715045.802 6   4548896.533 5  25205554.357        2672.965
  -9401791.890 7  -7759014.912 5  22363546.280       -2760.705
   4818803.362 7   3859658.343 5  22009513.563        1841.725
 92 10 20 23 48 30.0000000  0  6 28 25 11 12 15 21                   0.000999850
   1005286.934 5    795845.498 5  24854582.375        3281.102
  -9010363.808 7  -7267805.920 6  22281406.534       -2590.172
   3035511.781 7   2322439.916 6  21907128.011        1981.732
   5795426.987 6   4611531.350 5  25220850.809        2685.531
  -9484483.651 7  -7823449.964 5  22347810.184       -2752.063
   4874126.504 7   3902767.263 5  22020040.733        1846.369
 92 10 20 23 49  0.0010000  0  4 25 11 15 21                         0.001001070
  -9087939.453 7  -7328254.409 6  22266644.522       -2581.499
   3095210.395 7   2368958.269 6  21918487.957        1998.045
  -9566920.795 7  -7887686.652 5  22332123.002       -2743.541
   4929584.376 7   3945981.150 5  22030593.997        1850.738
 92 10 20 23 49 30.0010000  0  4 25 11 15 21                         0.001001650
  -9165239.626 7  -7388488.232 6  22251934.796       -2571.899
   3155397.015 7   2415856.874 5  21929941.235        2014.339
  -9649095.682 7  -7951718.953 5  22316485.646       -2734.824
   4985174.800 7   3989298.334 5  22041173.112        1855.392
 92 10 20 23 50  0.0010000  0  4 25 11 15 21                         0.001003360
  -9242239.871 7  -7448488.337 6  22237281.923       -2561.664
   3216073.434 7   2463137.154 6  21941487.764        2030.674
  -9731005.989 7  -8015545.093 5  22300898.779       -2725.939
   5040917.862 7   4032734.458 5  22051780.750        1860.685
 92 10 20 23 50 30.0010000  0  4 25 11 15 21                         0.001017610
  -9318937.930 7  -7508252.942 6  22222686.885       -2551.709
   3277236.609 7   2510796.756 6  21953126.844        2046.947
  -9812649.096 7  -8079163.064 5  22285363.083       -2716.862
   5096813.541 7   4076289.513 5  22062417.188        1865.752
 92 10 20 23 51  0.0000000  0  4 25 11 15 21                         0.000989780
  -9395340.592 7  -7567787.392 6  22208147.859       -2542.185
   3338883.620 7   2558833.327 5  21964858.247        2063.003
  -9894017.916 7  -8142567.250 5  22269878.775       -2707.895
   5152855.970 7   4119958.913 5  22073081.243        1870.484
 92 10 20 23 51 30.0000000  0  4 25 11 15 21                         0.000994920
  -9471457.996 7  -7627099.580 6  22193663.268       -2532.459
   3401011.936 7   2607244.927 5  21976680.422        2078.965
  -9975119.019 7  -8205762.847 5  22254445.629       -2698.769
   5209043.612 7   4163741.471 5  22083773.494        1875.521
 92 10 20 23 52  0.0000000  0  4 25 11 15 21                         0.000996540
  -9547294.680 8  -7686193.005 6  22179231.637       -2523.377
   3463620.056 7   2656030.463 5  21988594.510        2094.961
 -10055943.226 7  -8268742.724 5  22239064.545       -2689.460
   5265386.507 7   4207644.996 5  22094495.058        1880.536
 92 10 20 23 52 30.0000000  0  4 25 11 15 21                         0.000997320
  -9622861.637 8  -7745076.300 6  22164851.890       -2514.420
   3526705.477 7   2705187.864 5  22000599.483        2110.817
 -10136487.738 7  -8331504.622 5  22223738.157       -2680.141
   5321871.162 7   4251658.978 5  22105243.510        1885.139
 92 10 20 23 53  0.0000000  0  4 25 11 15 21                         0.000997830
  -9698149.424 8  -7803742.013 6  22150525.480       -2504.851
   3590266.054 7   2754715.536 5  22012694.169        2126.693
 -10216748.877 7  -8394045.683 5  22208464.839       -2670.554
   5378503.129 7   4295787.761 5  22116020.667        1890.445
 92 10 20 23 53 30.0000000  0  4 25 11 15 21                         0.000998310
  -9773152.967 7  -7862186.263 6  22136252.550       -2495.351
   3654298.950 7   2804611.257 5  22024879.913        2142.273
 -10296723.981 7  -8456363.894 5  22193245.714       -2661.056
   5435297.543 7   4340043.137 5  22126828.067        1895.791
 92 10 20 23 54  0.0000000  0  4 25 11 15 21                         0.000998610
  -9847866.945 8  -7920404.880 6  22122034.785       -2485.458
   3718800.118 7   2854871.859 5  22037154.373        2157.836
 -10376411.243 7  -8518457.802 5  22178081.801       -2651.366
   5492244.291 7   4384417.213 5  22137664.574        1900.488
 92 10 20 23 54 30.0000000  0  4 25 11 15 21                         0.000998610
  -9922269.504 7  -7978380.863 6  22107876.417       -2474.878
   3783772.471 7   2905499.595 5  22049518.314        2173.561
 -10455802.242 7  -8580320.858 5  22162974.831       -2641.443
   5549329.270 7   4428898.975 5  22148527.501        1905.151
 92 10 20 23 55  0.0000000  0  4 25 11 15 21                         0.000998420
  -9996354.133 8  -8036109.058 6  22093778.414       -2464.258
   3849213.539 7   2956492.618 5  22061970.818        2189.195
 -10534893.659 7  -8641950.468 6  22147924.262       -2631.350
   5606556.966 7   4473491.962 5  22159417.892        1909.931
 92 10 20 23 55 30.0000000  0  4 25 11 15 21                         0.000998030
 -10070128.462 7  -8093595.475 6  22079740.085       -2454.033
   3915117.605 7   3007846.376 5  22074511.364        2204.465
 -10613685.479 7  -8703346.625 6  22132930.142       -2621.404
   5663909.896 7   4518182.523 5  22170331.819        1913.516
 92 10 20 23 56  0.0000000  0  4 25 11 15 21                         0.000997460
 -10143591.158 7  -8150839.067 6  22065760.394       -2443.572
   3981478.600 7   3059556.172 5  22087139.571        2219.623
 -10692177.530 7  -8764509.213 6  22117993.181       -2611.364
   5721370.334 7   4562956.873 5  22181266.218        1917.306
 92 10 20 23 56 30.0000000  0  4 25 11 15 21                         0.000996770
 -10216735.004 7  -8207834.232 6  22051841.268       -2432.994
   4048296.464 7   3111621.995 5  22099855.558        2234.850
 -10770364.556 7  -8825434.128 6  22103115.160       -2601.153
   5778957.112 7   4607829.686 5  22192224.943        1921.890
 92 10 20 23 57  0.0000000  0  4 25 11 15 21                         0.000996060
 -10289566.787 7  -8264586.213 6  22037981.711       -2422.656
   4115568.467 6   3164041.664 5  22112656.609        2249.909
 -10848243.469 7  -8886118.920 6  22088295.383       -2590.847
   5836695.299 6   4652820.423 5  22203211.847        1927.105
 92 10 20 23 57 30.0000000  0  4 25 11 15 21                         0.000995340
 -10362081.383 8  -8321091.014 6  22024182.427       -2411.781
   4183292.436 7   3216813.521 5  22125543.306        2264.936
 -10925810.676 7  -8946560.842 6  22073534.019       -2580.376
   5894587.015 6   4697930.813 5  22214228.382        1932.406
 92 10 20 23 58  0.0000000  0  4 25 11 15 21                         0.000994620
 -10434267.261 8  -8377339.695 6  22010446.245       -2400.766
   4251463.628 7   3269933.936 5  22138516.994        2279.799
 -11003064.968 7  -9006758.964 6  22058832.798       -2569.908
   5952650.188 7   4743174.821 5  22225277.243        1938.379
 92 10 20 23 58 30.0000000  0  4 25 11 15 21                         0.000993910
 -10506123.298 8  -8433331.355 6  21996772.133       -2389.971
   4320082.105 7   3323402.789 5  22151574.386        2294.690
 -11080000.453 8  -9066708.640 6  22044193.391       -2559.211
   6010891.052 7   4788557.303 5  22236360.348        1944.243
 92 10 20 23 59  0.0000000  0  4 25 11 15 21                         0.000993200
 -10577659.419 8  -8489073.717 6  21983159.575       -2379.104
   4389141.649 7   3377215.357 5  22164716.117        2309.313
 -11156617.439 7  -9126410.141 6  22029614.446       -2548.561
   6069302.342 7   4834072.559 5  22247475.603        1949.624
 92 10 20 23 59 30.0000000  0  4 25 11 15 21                         0.000992470
 -10648869.205 8  -8544561.796 6  21969608.287       -2368.331
   4458638.901 7   3431369.005 5  22177940.979        2323.813
 -11232913.841 7  -9185861.817 6  22015095.284       -2537.926
   6127866.671 6   4879707.073 5  22258619.399        1954.676
 92 10 21  0  0  0.0000000  0  4 25 11 15 21                         0.000991690
 -10719753.098 8  -8599795.923 6  21956119.905       -2357.360
   4528570.363 6   3485860.966 5  22191248.357        2338.320
 -11308886.908 7  -9245061.582 6  22000638.065       -2526.975
   6186582.272 6   4925459.466 5  22269792.643        1959.545
 92 10 21  0  0 30.0000000  0  4 25 11 15 21                         0.000990840
 -10790310.590 8  -8654775.722 6  21942693.261       -2346.484
   4598934.537 6   3540690.147 5  22204638.322        2352.612
 -11384532.529 7  -9304006.181 6  21986243.070       -2516.034
   6245433.885 7   4971317.824 5  22280991.570        1963.954
 92 10 21  0  1  0.0000000  0  4 25 11 15 21                         0.000989930
 -10860531.873 8  -8709493.546 6  21929330.352       -2334.920
   4669728.994 7   3595854.588 5  22218109.850        2367.055
 -11459847.075 7  -9362692.776 6  21971910.683       -2504.841
   6304422.668 6   5017283.116 5  22292217.431        1968.573
 92 10 21  0  1 30.0000000  0  4 25 11 15 21                         0.000988930
 -10930409.034 8  -8763943.220 6  21916033.344       -2323.567
   4740954.446 7   3651354.857 5  22231664.140        2381.319
 -11534824.194 7  -9421116.445 6  21957643.001       -2493.622
   6363549.373 7   5063355.829 5  22303468.936        1973.253
 92 10 21  0  2  0.0000000  0  4 25 11 15 21                         0.000987840
 -10999940.732 8  -8818123.708 6  21902801.986       -2311.902
   4812605.754 6   3707187.029 5  22245298.818        2395.574
 -11609463.000 7  -9479276.516 6  21943439.555       -2482.175
   6422815.985 6   5109537.544 5  22314746.794        1977.999
 92 10 21  0  2 30.0000000  0  4 25 11 15 21                         0.000986710
 -11069126.293 8  -8872034.490 6  21889636.031       -2300.420
   4884681.153 6   3763349.596 5  22259014.644        2409.604
 -11683759.057 8  -9537169.504 6  21929302.207       -2470.726
   6482231.253 6   5155835.146 5  22326052.582        1983.247
 92 10 21  0  3  0.0000000  0  4 25 11 15 21                         0.000985550
 -11137966.724 7  -8925676.343 6  21876535.590       -2288.878
   4957178.277 6   3819840.783 5  22272810.245        2423.607
 -11757709.319 7  -9594793.027 6  21915230.023       -2459.176
   6541805.698 6   5202256.763 5  22337389.208        1988.393
 92 10 21  0  3 30.0000000  0  4 25 11 15 21                         0.000984340
 -11206451.348 8  -8979040.913 6  21863503.640       -2276.714
   5030093.360 6   3876657.705 5  22286685.640        2437.491
 -11831311.395 7  -9652145.263 6  21901224.098       -2447.553
   6601529.473 6   5248794.743 5  22348754.348        1993.263
 92 10 21  0  4  0.0000000  0  4 25 11 15 21                         0.000983040
 -11274566.439 8  -9032117.552 6  21850541.746       -2264.413
   5103426.956 7   3933800.642 5  22300640.989        2451.377
 -11904558.649 7  -9709221.004 6  21887285.118       -2435.643
   6661396.054 6   5295443.980 5  22360146.572        1997.820
 92 10 21  0  4 30.0000000  0  4 25 11 15 21                         0.000981640
 -11342311.694 8  -9084906.015 6  21837650.312       -2252.049
   5177173.291 6   3991265.277 5  22314674.795        2465.084
 -11977450.940 7  -9766020.126 6  21873413.721       -2423.810
   6721394.047 7   5342195.652 5  22371564.266        2001.997
 92 10 21  0  5  0.0000000  0  4 25 11 15 21                         0.000980110
 -11409685.920 8  -9137405.384 6  21824829.734       -2239.702
   5251327.866 6   4049048.093 5  22328786.223        2478.505
 -12049987.017 7  -9822541.684 6  21859610.937       -2412.038
   6781509.139 6   5389038.558 5  22383004.160        2005.623
 92 10 21  0  5 30.0000000  0  4 25 11 15 21                         0.000978480
 -11476688.105 8  -9189614.823 6  21812079.713       -2227.379
   5325886.373 6   4107145.520 5  22342974.139        2492.047
 -12122164.958 7  -9878784.193 6  21845875.944       -2399.870
   6841743.519 6   5435974.412 5  22394466.425        2010.012
 92 10 21  0  6  0.0000000  0  4 25 11 15 21                         0.000976800
 -11543332.394 8  -9241545.396 6  21799397.942       -2215.647
   5400847.301 6   4165556.549 5  22357237.570        2505.400
 -12193980.032 7  -9934743.950 6  21832209.946       -2387.739
   6902117.374 6   5483018.966 5  22405955.337        2015.043
 92 10 21  0  6 30.0000000  0  4 25 11 15 21                         0.000975120
 -11609619.772 8  -9293197.838 6  21786784.062       -2203.638
   5476206.888 6   4224278.298 5  22371578.305        2518.587
 -12265430.213 7  -9990419.360 6  21818613.350       -2375.550
   6962651.901 6   5530188.675 5  22417474.427        2020.611
 92 10 21  0  7  0.0000000  0  4 25 11 15 21                         0.000973430
 -11675545.640 8  -9344568.609 6  21774238.489       -2191.396
   5551961.141 6   4283307.474 5  22385994.476        2531.695
 -12336513.509 8 -10045808.871 6  21805087.071       -2363.315
   7023357.434 6   5577491.645 5  22429025.718        2026.435
 92 10 21  0  7 30.0000000  0  4 25 11 15 21                         0.000971730
 -11741094.438 8  -9395645.529 6  21761764.874       -2178.553
   5628107.562 6   4342642.321 5  22400484.296        2544.759
 -12407226.344 8 -10100909.750 6  21791631.028       -2350.873
   7084241.599 6   5624933.840 5  22440611.609        2032.427
 92 10 21  0  8  0.0000000  0  4 25 11 15 21                         0.000970010
 -11806252.570 8  -9446418.046 6  21749365.476       -2165.299
   5704642.082 6   4402279.541 5  22415048.566        2557.621
 -12477566.843 7 -10155720.497 6  21778245.077       -2338.425
   7145304.787 6   5672515.496 5  22452231.963        2038.414
 92 10 21  0  8 30.0000000  0  4 25 11 15 21                         0.000968220
 -11871007.011 8  -9496876.005 6  21737042.986       -2151.801
   5781561.430 6   4462216.566 5  22429685.750        2570.359
 -12547532.314 8 -10210238.985 6  21764931.300       -2325.925
   7206544.112 6   5720234.395 5  22463885.615        2044.105
 92 10 21  0  9  0.0000000  0  4 25 11 15 21                         0.000966380
 -11935360.555 8  -9547021.569 6  21724796.945       -2138.550
   5858863.094 6   4522451.605 5  22444395.248        2583.062
 -12617119.344 8 -10264462.580 6  21751689.440       -2313.222
   7267953.643 6   5768085.985 5  22475571.275        2049.874
 92 10 21  0  9 30.0000000  0  4 25 11 15 21                         0.000964520
 -11999317.282 8  -9596857.923 6  21712626.360       -2125.416
   5936544.896 6   4582982.775 5  22459178.116        2595.749
 -12686323.816 7 -10318388.105 6  21738519.985       -2300.374
   7329542.571 6   5816077.370 5  22487291.095        2056.017
 92 10 21  0 10  0.0000000  0  4 25 11 15 21                         0.000962650
 -12062893.641 8  -9646397.881 6  21700527.789       -2113.200
   6014604.026 6   4643807.981 5  22474032.325        2608.232
 -12755142.616 7 -10372013.100 6  21725423.532       -2287.508
   7391314.178 6   5864211.005 5  22499045.475        2061.877
 92 10 21  0 10 30.0000000  0  4 25 11 15 21                         0.000960780
 -12126108.482 8  -9695656.151 6  21688498.443       -2101.224
   6093036.196 6   4704923.913 5  22488958.489        2620.632
 -12823573.870 8 -10425336.110 6  21712401.687       -2274.557
   7453246.556 6   5912469.974 5  22510830.784        2066.933
 92 10 21  0 11  0.0000000  0  5 25 11 14 15 21                      0.000958850
 -12188963.487 8  -9744634.035 6  21676537.267       -2089.009
   6171839.171 6   4766328.703 5  22503954.637        2633.080
  -1268257.84515  -1100880.16315  25055450.572       -2906.462
 -12891613.579 8 -10478354.001 6  21699454.098       -2261.353
   7515326.389 6   5960843.851 5  22522644.260        2071.817
 92 10 21  0 11 30.0000000  0  5 25 11 14 15 21                      0.000956880
 -12251448.930 8  -9793323.921 6  21664646.856       -2076.702
   6251010.633 6   4828020.700 5  22519020.300        2645.148
  -1355505.643 5  -1168865.265 5  25038849.159       -2910.156
 -12959258.387 8 -10531064.204 6  21686581.662       -2248.227
   7577544.369 6   6009325.382 5  22534484.143        2075.923
 92 10 21  0 12  0.0000000  0  5 25 11 14 15 21                      0.000954830
 -12313556.794 8  -9841719.596 6  21652827.979       -2063.774
   6330546.956 6   4889996.990 5  22534154.781        2657.318
  -1442872.654 5  -1236943.319 5  25022221.461       -2914.328
 -13026505.903 7 -10583464.810 6  21673784.481       -2234.914
   7639876.589 6   6057895.921 5  22546346.509        2079.594
 92 10 21  0 12 30.0000000  0  5 25 11 14 15 21                      0.000952700
 -12375260.638 8  -9889800.460 6  21641085.769       -2049.799
   6410446.900 6   4952256.573 5  22549358.754        2669.320
  -1530360.730 5  -1305115.599 4  25005570.797       -2918.278
 -13093351.294 7 -10635552.079 6  21661064.685       -2221.496
   7702320.985 6   6106553.846 5  22558229.631        2083.593
 92 10 21  0 13  0.0000000  0  4 25 11 15 21                         0.000950700
 -12436541.282 8  -9937551.559 6  21629424.310       -2035.573
   6490705.214 6   5014795.502 5  22564631.570        2681.186
 -13159793.750 7 -10687325.371 6  21648420.682       -2208.048
   7764893.346 6   6155311.544 5  22570136.249        2087.978
 92 10 21  0 13 30.0000000  0  4 25 11 15 21                         0.000948400
 -12497385.616 8  -9984962.667 6  21617845.727       -2020.757
   6571317.690 6   5077610.249 5  22579972.069        2693.111
 -13225831.395 7 -10738783.228 6  21635853.940       -2194.338
   7827601.848 6   6204175.275 5  22582068.993        2092.765
 92 10 21  0 14  0.0000000  0  4 25 11 15 21                         0.000946000
 -12557783.719 8 -10032026.070 6  21606352.702       -2005.870
   6652286.230 6   5140702.596 5  22595379.781        2704.833
 -13291456.083 8 -10789919.302 6  21623366.034       -2180.598
   7890461.732 6   6253156.956 5  22594030.972        2097.961
 92 10 21  0 14 30.0000000  0  4 25 11 15 21                         0.000943530
 -12617735.760 8 -10078741.877 7  21594944.102       -1991.150
   6733608.186 6   5204070.272 5  22610855.010        2716.628
 -13356664.724 8 -10840731.165 6  21610957.556       -2166.642
   7953486.180 6   6302266.929 5  22606023.496        2103.778
 92 10 21  0 15  0.0000000  0  5 25 11 14 15 21                      0.000941150
 -12677253.434 8 -10125119.237 7  21583617.564       -1976.812
   6815282.270 6   5267712.293 5  22626397.131        2728.256
    -39640.80415    -34323.14511  24921990.456       -2936.992
 -13421452.344 8 -10891214.987 6  21598628.682       -2152.603
   8016687.550 6   6351514.749 5  22618050.390        2109.694
 92 10 21  0 15 30.0000000  0  5 25 11 14 15 21                      0.000938710
 -12736343.212 8 -10171163.160 7  21572373.525       -1962.763
   6897304.345 6   5331625.604 5  22642005.626        2739.923
   -127792.345 5   -103013.121 1  24905213.989       -2939.790
 -13485816.942 7 -10941369.192 6  21586380.082       -2138.369
   8080073.395 6   6400906.294 5  22630111.968        2116.003
 92 10 21  0 16  0.0000000  0  5 25 11 14 15 21                      0.000936250
 -12795023.178 8 -10216887.757 7  21561207.247       -1949.340
   6979671.876 6   5395807.993 5  22657679.817        2751.213
   -216033.997 5   -171772.685 2  24888420.413       -2943.102
 -13549755.215 8 -10991191.154 6  21574213.171       -2124.204
   8143649.480 6   6450446.065 5  22642210.075        2122.265
 92 10 21  0 16 30.0000000  0  5 25 11 14 15 21                      0.000933770
 -12853304.954 8 -10262302.057 7  21550116.944       -1936.133
   7062377.805 6   5460254.074 5  22673418.340        2762.541
   -304373.409 5   -240608.385 3  24871609.852       -2946.239
 -13613268.132 8 -11040681.689 6  21562127.779       -2109.890
   8207414.651 6   6500133.234 5  22654344.395        2128.945
 92 10 21  0 17  0.0000000  0  5 25 11 14 15 21                      0.000931270
 -12911188.576 8 -10307406.124 7  21539101.859       -1922.838
   7145422.247 6   5524964.002 5  22689221.140        2773.782
   -392801.950 5   -309513.596 4  24854779.405       -2949.010
 -13676349.194 8 -11089835.748 6  21550123.621       -2095.484
   8271377.383 6   6549974.301 5  22666515.835        2135.235
 92 10 21  0 17 30.0000000  0  5 25 11 14 15 21                      0.000928760
 -12968678.731 8 -10352203.590 7  21528161.746       -1909.862
   7228801.339 6   5589934.560 5  22705087.225        2784.896
   -481317.041 5   -378486.247 5  24837934.796       -2952.058
 -13738996.762 8 -11138651.998 6  21538201.662       -2080.939
   8335527.117 6   6599961.023 5  22678723.651        2141.246
 92 10 21  0 18  0.0000000  0  5 25 11 14 15 21                      0.000926210
 -13025773.056 8 -10396692.635 7  21517296.566       -1896.333
   7312512.071 6   5655163.646 5  22721016.584        2795.775
   -569930.599 5   -447535.586 5  24821072.661       -2955.453
 -13801207.349 8 -11187127.757 6  21526363.669       -2066.428
   8399842.845 6   6650077.206 5  22690962.758        2146.408
 92 10 21  0 18 30.0000000  0  5 25 11 14 15 21                      0.000923630
 -13082450.694 8 -10440856.974 7  21506511.262       -1882.205
   7396547.780 6   5720645.905 5  22737008.616        2806.630
   -658634.474 5   -516655.306 5  24804192.011       -2958.209
 -13862981.789 8 -11235263.641 6  21514608.407       -2051.871
   8464314.922 6   6700315.147 5  22703231.782        2151.682
 92 10 21  0 19  0.0000000  0  5 25 11 14 15 21                      0.000921010
 -13138696.991 8 -10484685.200 7  21495808.171       -1867.399
   7480905.099 6   5786378.792 5  22753061.531        2817.347
   -747427.931 5   -585844.791 5  24787293.525       -2961.323
 -13924317.682 8 -11283057.820 6  21502936.339       -2037.094
   8528936.415 6   6750669.550 5  22715528.863        2156.479
 92 10 21  0 19 30.0000000  0  5 25 11 14 15 21                      0.000918330
 -13194492.138 8 -10528161.883 7  21485190.790       -1852.049
   7565578.618 6   5852358.110 5  22769174.307        2827.720
   -836322.868 5   -655113.391 5  24770379.073       -2964.945
 -13985214.337 8 -11330509.737 6  21491348.049       -2022.517
   8593701.416 6   6801135.718 5  22727853.526        2161.257
 92 10 21  0 20  0.0000000  0  5 25 11 14 15 21                      0.000915600
 -13249808.217 8 -10571265.298 7  21474664.448       -1835.709
   7650565.144 6   5918581.207 5  22785347.205        2838.196
   -925319.917 5   -724461.551 5  24753442.317       -2968.024
 -14045668.508 8 -11377616.853 6  21479843.774       -2007.606
   8658612.939 6   6851716.122 5  22740206.277        2166.402
 92 10 21  0 20 30.0000000  0  5 25 11 14 15 21                      0.000912810
 -13304633.948 8 -10613986.600 7  21464231.283       -1819.576
   7735865.125 6   5985048.730 5  22801578.611        2848.503
  -1014405.299 5   -793878.553 5  24736490.437       -2971.078
 -14105673.945 8 -11424374.305 6  21468424.919       -1992.679
   8723685.833 6   6902422.248 5  22752588.752        2171.794
 92 10 21  0 21  0.0000000  0  5 25 11 14 15 21                      0.000909970
 -13358980.006 8 -10656334.120 7  21453889.071       -1803.577
   7821472.425 6   6051755.528 5  22817870.097        2858.665
  -1103592.780 5   -863375.086 5  24719516.753       -2974.609
 -14165230.802 8 -11470782.219 6  21457091.605       -1977.724
   8788915.192 6   6953250.264 5  22765001.096        2176.941
 92 10 21  0 21 30.0000000  0  5 25 11 14 15 21                      0.000907080
 -13412852.338 8 -10698312.513 7  21443637.478       -1788.219
   7907382.378 6   6118698.292 5  22834218.369        2868.544
  -1192881.688 5   -932950.676 5  24702526.938       -2978.088
 -14224337.587 8 -11516839.429 6  21445844.160       -1962.839
   8854302.117 6   7004201.126 5  22777444.435        2182.102
 92 10 21  0 22  0.0000000  0  5 25 11 14 15 21                      0.000904130
 -13466268.885 8 -10739935.760 7  21433472.806       -1773.236
   7993592.310 6   6185874.804 5  22850623.144        2878.735
  -1282271.291 5  -1002604.719 5  24685515.463       -2981.379
 -14282991.045 8 -11562543.370 6  21434683.418       -1947.491
   8919845.662 6   7055274.008 5  22789916.572        2187.467
 92 10 21  0 22 30.0000000  0  5 25 11 14 15 21                      0.000901150
 -13519249.048 8 -10781218.947 7  21423391.154       -1758.758
   8080100.525 6   6253283.599 5  22867084.040        2888.643
  -1371763.931 5  -1072339.071 5  24668486.633       -2984.880
 -14341186.938 8 -11607890.795 6  21423608.515       -1932.116
   8985555.586 6   7106476.474 5  22802420.080        2193.278
 92 10 21  0 23  0.0000000  0  5 25 11 14 15 21                      0.000898130
 -13571790.904 8 -10822160.614 7  21413393.146       -1743.986
   8166908.083 6   6320925.823 5  22883603.054        2898.558
  -1461354.722 5  -1142149.928 5  24651438.929       -2987.879
 -14398918.073 8 -11652876.070 6  21412622.838       -1916.590
   9051440.971 6   7157815.712 5  22814958.169        2199.116
 92 10 21  0 23 30.0000000  0  5 25 11 14 15 21                      0.000895070
 -13623886.909 8 -10862754.859 7  21403479.531       -1729.146
   8254011.355 6   6388798.326 5  22900178.339        2908.416
  -1551034.314 5  -1212029.954 5  24634373.980       -2990.820
 -14456182.089 8 -11697497.324 6  21401726.060       -1900.964
   9117498.389 6   7209289.007 5  22827528.668        2204.775
 92 10 21  0 24  0.0000000  0  5 25 11 14 15 21                      0.000891990
 -13675536.492 8 -10903001.246 7  21393650.543       -1714.058
   8341406.922 6   6456898.709 5  22916809.860        2918.044
  -1640805.451 5  -1281981.310 5  24617290.829       -2993.843
 -14512976.513 8 -11741752.669 7  21390917.936       -1885.321
   9183725.979 6   7260894.901 5  22840131.824        2210.496
 92 10 21  0 24 30.0000000  0  5 25 11 14 15 21                      0.000888860
 -13726724.203 8 -10942887.712 7  21383910.178       -1698.486
   8429088.003 6   6525221.494 5  22933495.433        2927.384
  -1730657.711 5  -1351995.783 4  24600191.993       -2996.206
 -14569302.228 8 -11785642.792 7  21380199.315       -1869.757
   9250121.816 6   7312631.881 5  22852766.786        2215.822
 92 10 21  0 25  0.0000000  0  5 25 11 14 15 21                      0.000885700
 -13777434.779 8 -10982402.413 7  21374260.188       -1682.345
   8517052.927 6   6593765.512 5  22950235.450        2936.880
  -1820573.177 5  -1422059.626 4  24583082.322       -2998.259
 -14625155.061 8 -11829164.443 7  21369570.794       -1853.839
   9316675.258 6   7364491.697 5  22865431.205        2221.138
 92 10 21  0 25 30.0000000  0  5 25 11 14 15 21                      0.000882510
 -13827673.425 8 -11021549.364 7  21364699.826       -1666.960
   8605297.235 6   6662527.228 5  22967027.323        2946.135
  -1910558.563 5  -1492177.919 4  24565957.246       -3000.715
 -14680533.269 8 -11872316.245 7  21359033.049       -1837.986
   9383393.250 6   7416479.704 5  22878126.485        2226.833
 92 10 21  0 26  0.0000000  0  5 25 11 14 15 21                      0.000879280
 -13877448.502 8 -11060335.085 7  21355228.264       -1651.314
   8693816.293 6   6731502.975 5  22983871.398        2955.191
  -2000617.703 5  -1562353.652 4  24548818.204       -3003.020
 -14735435.691 8 -11915097.328 7  21348585.793       -1822.089
   9450287.563 6   7468605.107 5  22890856.214        2232.703
 92 10 21  0 26 30.0000000  0  5 25 11 14 15 21                      0.000876040
 -13926755.604 8 -11098756.153 7  21345845.338       -1635.991
   8782608.861 6   6800691.944 5  23000768.520        2964.274
  -2090739.820 5  -1632578.471 4  24531667.817       -3005.279
 -14789857.863 8 -11957504.163 7  21338229.410       -1806.060
   9517361.638 6   7520870.556 5  22903619.932        2238.879
 92 10 21  0 27  0.0000000  0  5 25 11 14 15 21                      0.000872780
 -13975605.235 8 -11136820.737 7  21336549.173       -1620.977
   8871671.779 6   6870091.409 5  23017716.702        2973.120
  -2180938.740 6  -1702863.140 5  24514504.664       -3008.204
 -14843796.740 8 -11999534.421 7  21327965.486       -1789.983
   9584618.217 6   7573278.282 5  22916418.573        2244.823
 92 10 21  0 27 30.0000000  0  5 25 11 14 15 21                      0.000869490
 -14024011.190 8 -11174539.611 7  21327337.750       -1606.115
   8960998.377 6   6939696.544 5  23034714.839        2981.961
  -2271227.233 5  -1773217.615 5  24497323.898       -3010.827
 -14897253.122 8 -12041188.693 7  21317792.419       -1773.749
   9652048.591 6   7625821.474 5  22929249.991        2250.442
 92 10 21  0 28  0.0000000  0  5 25 11 14 15 21                      0.000866170
 -14071964.304 8 -11211905.630 7  21318212.408       -1590.966
   9050589.321 6   7009507.533 5  23051764.933        2990.701
  -2361587.442 5  -1843628.038 5  24480129.374       -3013.118
 -14950220.660 8 -12082462.081 7  21307712.717       -1757.399
   9719643.358 6   7678492.734 5  22942113.168        2255.817
 92 10 21  0 28 30.0000000  0  5 25 11 14 15 21                      0.000862810
 -14119466.618 8 -11248920.372 7  21309173.176       -1576.035
   9140440.580 6   7079521.418 5  23068861.730        2999.348
  -2452018.737 5  -1914093.809 5  24462920.352       -3015.660
 -15002697.380 8 -12123352.998 7  21297726.861       -1741.030
   9787398.115 6   7731288.565 5  22955006.471        2261.277
 92 10 21  0 29  0.0000000  0  5 25 11 14 15 21                      0.000859420
 -14166519.062 8 -11285584.550 7  21300219.654       -1560.847
   9230547.694 6   7149734.699 5  23086008.568        3007.886
  -2542526.561 6  -1984619.178 5  24445696.171       -3018.059
 -15054681.983 8 -12163860.435 7  21287834.650       -1724.550
   9855320.565 6   7784215.072 5  22967932.269        2266.980
 92 10 21  0 29 30.0000000  0  5 25 11 14 15 21                      0.000856020
 -14213113.411 8 -11321891.782 7  21291352.574       -1545.242
   9320905.879 6   7220143.498 5  23103203.718        3016.103
  -2633103.598 6  -2055198.522 5  24428461.138       -3020.441
 -15106173.468 8 -12203983.637 7  21278035.633       -1708.153
   9923418.444 6   7837278.377 5  22980891.291        2273.007
 92 10 21  0 30  0.0000000  0  5 25 11 14 15 21                      0.000852590
 -14259221.558 8 -11357820.174 7  21282578.646       -1528.699
   9411514.080 6   7290747.268 5  23120447.011        3024.520
  -2723755.388 6  -2125836.091 5  24411211.733       -3023.100
 -15157166.773 8 -12243718.646 7  21268332.309       -1691.357
   9991703.012 6   7890487.092 5  22993884.704        2279.356
 92 10 21  0 30 30.0000000  0  5 25 11 14 15 21                      0.000849120
 -14304823.911 8 -11393354.441 7  21273900.436       -1511.594
   9502371.158 6   7361544.782 5  23137736.828        3032.678
  -2814498.290 5  -2196544.697 5  24393942.741       -3026.368
 -15207657.248 8 -12283061.856 7  21258724.751       -1674.683
  10060176.321 6   7943842.918 5  23006913.854        2285.567
 92 10 21  0 31  0.0000000  0  5 25 11 14 15 21                      0.000845600
 -14349906.806 8 -11428483.900 7  21265321.545       -1494.028
   9593472.999 6   7432533.267 5  23155072.470        3040.795
  -2905331.750 6  -2267323.854 5  24376655.574       -3029.323
 -15257643.366 8 -12322012.033 7  21249212.585       -1657.755
  10128831.839 6   7997340.687 5  23019979.120        2291.374
 92 10 21  0 31 30.0000000  0  5 25 11 14 15 21                      0.000842030
 -14394458.980 8 -11463199.843 7  21256843.692       -1476.183
   9684817.716 5   7503710.980 5  23172454.978        3048.842
  -2996251.955 6  -2338170.569 5  24359353.481       -3032.132
 -15307121.306 8 -12360566.253 7  21239797.575       -1640.782
  10197648.886 6   8050964.351 5  23033074.980        2296.317
 92 10 21  0 32  0.0000000  0  5 25 11 14 15 21                      0.000838400
 -14438481.801 8 -11497503.294 7  21248466.852       -1458.883
   9776400.550 6   7575074.513 5  23189881.926        3056.666
  -3087255.777 5  -2409082.499 5  24342036.633       -3034.708
 -15356089.967 8 -12398723.620 7  21230478.807       -1623.793
  10266606.478 6   8104697.565 5  23046197.431        2300.986
 92 10 21  0 32 30.0000000  0  5 25 11 14 15 21                      0.000834710
 -14481987.193 8 -11531403.571 7  21240188.104       -1441.737
   9868219.501 6   7646621.665 5  23207354.922        3064.613
  -3178323.214 5  -2480044.081 5  24324705.493       -3036.315
 -15404545.558 8 -12436481.197 7  21221258.100       -1606.550
  10335711.320 6   8158545.447 5  23059347.557        2306.175
 92 10 21  0 33  0.0000000  0  5 25 11 14 15 21                      0.000831000
 -14524994.285 8 -11564915.544 7  21232003.931       -1425.345
   9960271.575 6   7718350.375 5  23224871.644        3072.179
  -3269427.351 5  -2551034.358 4  24307367.159       -3037.476
 -15452485.310 8 -12473836.804 7  21212135.482       -1589.448
  10404966.541 6   8212510.532 5  23072526.357        2310.929
 92 10 21  0 33 30.0000000  0  5 25 11 14 15 21                      0.000827260
 -14567502.578 8 -11598038.849 7  21223914.550       -1408.663
  10052551.376 6   7790256.678 5  23242433.056        3079.735
  -3360568.429 5  -2622053.154 5  24290025.289       -3038.647
 -15499909.175 8 -12510790.451 7  21203111.322       -1572.163
  10474372.784 6   8266593.260 5  23085734.143        2316.241
 92 10 21  0 34  0.0000000  0  5 25 11 14 15 21                      0.000823510
 -14609517.239 8 -11630777.514 7  21215919.482       -1392.457
  10145055.580 6   7862337.721 5  23260035.735        3087.246
  -3451743.843 6  -2693098.745 5  24272675.923       -3039.783
 -15546814.664 8 -12547340.149 7  21194184.712       -1554.829
  10543955.495 6   8320813.591 5  23098975.533        2322.666
 92 10 21  0 34 30.0000000  0  5 25 11 14 15 21                      0.000819750
 -14651047.035 8 -11663138.343 7  21208016.474       -1376.301
  10237782.379 6   7934592.295 5  23277681.618        3094.631
  -3542954.117 6  -2764171.539 5  24255319.354       -3040.972
 -15593197.831 8 -12583482.828 7  21185357.813       -1537.356
  10613733.647 6   8375186.142 5  23112253.933        2329.142
 92 10 21  0 35  0.0000000  0  5 25 11 14 15 21                      0.000815990
 -14692089.779 8 -11695119.672 7  21200206.193       -1359.702
  10330728.361 6   8007017.603 5  23295368.139        3101.817
  -3634210.416 6  -2835280.193 5  24237955.002       -3042.989
 -15639056.423 8 -12619216.756 7  21176631.213       -1519.876
  10683706.593 6   8429710.522 5  23125568.414        2335.541
 92 10 21  0 35 30.0000000  0  5 25 11 14 15 21                      0.000812200
 -14732626.565 8 -11726706.748 7  21192492.722       -1342.887
  10423889.967 5   8079610.911 5  23313095.841        3109.026
  -3725538.476 6  -2906444.774 5  24220576.727       -3045.351
 -15684388.059 8 -12654540.099 7  21168005.483       -1502.220
  10753874.728 6   8484386.935 5  23138921.308        2342.337
 92 10 21  0 36  0.0000000  0  5 25 11 14 15 21                      0.000808400
 -14772650.163 8 -11757893.922 7  21184876.296       -1324.715
  10517280.508 5   8152382.716 5  23330867.580        3117.798
  -3816918.917 6  -2977650.145 5  24203187.435       -3045.980
 -15729173.924 8 -12689438.142 7  21159482.924       -1482.746
  10824258.800 6   8539231.678 5  23152315.223        2350.538
 92 10 21  0 36 30.0000000  0  5 25 11 14 15 21                      0.000804640
 -14812053.718 8 -11788597.947 7  21177378.007       -1301.517
  10611003.520 5   8225413.396 5  23348701.080        3131.026
  -3908250.681 6  -3048817.601 5  24185806.200       -3042.271
 -15773304.931 8 -12723825.892 7  21151084.618       -1458.677
  10894944.679 6   8594311.557 5  23165765.841        2362.562
 92 10 21  0 37  0.0000000  0  5 25 11 14 15 21                      0.000800980
 -14850718.268 8 -11818726.138 7  21170020.280       -1275.892
  10705158.553 5   8298780.913 5  23366617.291        3146.273
  -3999434.984 6  -3119870.249 5  24168454.455       -3036.381
 -15816676.115 8 -12757621.597 7  21142832.032       -1432.469
  10966027.672 6   8649700.923 5  23179292.218        2376.458
 92 10 21  0 37 30.0000000  0  5 25 11 14 15 21                      0.000797470
 -14888602.920 8 -11848246.606 7  21162810.503       -1249.846
  10799782.702 5   8372513.815 5  23384626.426        3162.197
  -4090414.353 6  -3190763.260 5  24151143.082       -3028.588
 -15859244.470 8 -12790791.718 7  21134731.740       -1405.308
  11037537.471 5   8705422.741 5  23192899.994        2391.071
 92 10 21  0 38  0.0000000  0  5 25 11 14 15 21                      0.000794100
 -14925707.820 8 -11877159.485 7  21155749.879       -1224.146
  10894881.812 5   8446616.986 5  23402722.562        3177.567
  -4181159.732 6  -3261473.769 5  24133875.076       -3021.302
 -15900998.902 8 -12823327.615 7  21126785.990       -1378.573
  11109484.654 6   8761485.432 5  23206591.971        2405.124
 92 10 21  0 38 30.0000000  0  5 25 11 14 15 21                      0.000790850
 -14962046.938 8 -11905475.627 7  21148834.878       -1198.563
  10990427.760 5   8521068.245 5  23420903.531        3192.122
  -4271695.852 5  -3332021.234 5  24116645.522       -3014.466
 -15941962.076 8 -12855246.945 7  21118990.828       -1352.399
  11181844.430 6   8817869.648 5  23220360.996        2418.994
 92 10 21  0 39  0.0000000  0  5 25 11 14 15 21                      0.000787740
 -14997624.846 8 -11933198.634 7  21142064.584       -1173.466
  11086403.782 5   8595854.650 5  23439168.842        3206.180
  -4362021.515 5  -3402404.701 5  24099455.934       -3007.357
 -15982145.167 8 -12886558.422 7  21111343.600       -1326.537
  11254623.801 6   8874580.855 5  23234210.158        2432.771
 92 10 21  0 39 30.0000000  0  5 25 11 14 15 21                      0.000784760
 -15032450.959 8 -11960335.837 7  21135437.901       -1148.453
  11182797.839 5   8670966.851 5  23457511.835        3220.059
  -4452138.454 6  -3472625.566 5  24082307.227       -3000.634
 -16021554.525 8 -12917267.007 7  21103844.043       -1300.704
  11327816.189 6   8931613.892 5  23248138.552        2446.833
 92 10 21  0 40  0.0000000  0  5 25 11 14 15 21                      0.000781920
 -15066524.031 8 -11986886.244 7  21128954.011       -1123.390
  11279609.113 6   8746404.047 5  23475934.531        3233.816
  -4542061.064 6  -3542694.964 5  24065195.459       -2994.395
 -16060185.359 8 -12947368.910 7  21096493.081       -1274.862
  11401433.386 6   8988977.920 5  23262147.869        2460.845
 92 10 21  0 40 30.0000000  0  5 25 11 14 15 21                      0.000779200
 -15099861.398 8 -12012863.368 7  21122609.745       -1099.247
  11376814.158 5   8822148.211 5  23494433.123        3246.431
  -4631812.553 6  -3612631.085 5  24048116.319       -2989.180
 -16098055.916 8 -12976878.431 7  21089286.331       -1249.953
  11475458.250 6   9046659.545 5  23276234.161        2473.993
 92 10 21  0 41  0.0000000  0  5 25 11 14 15 21                      0.000776580
 -15132482.947 8 -12038282.721 7  21116401.508       -1075.431
  11474388.486 6   8898180.367 5  23513000.288        3258.753
  -4721415.052 6  -3682451.006 5  24031065.837       -2984.113
 -16135185.217 8 -13005810.333 7  21082220.722       -1225.167
  11549864.898 6   9104638.766 5  23290392.859        2486.383
 92 10 21  0 41 30.0000000  0  5 25 11 14 15 21                      0.000774060
 -15164374.489 8 -12063133.236 7  21110333.200       -1050.682
  11572341.451 5   8974507.381 5  23531640.939        3271.594
  -4810857.925 6  -3752146.643 5  24014044.727       -2978.522
 -16171558.698 8 -13034153.284 7  21075299.375       -1199.579
  11624644.368 6   9162908.437 5  23304623.520        2499.097
 92 10 21  0 42  0.0000000  0  5 25 11 14 15 21                      0.000771660
 -15195513.584 8 -12087397.431 7  21104407.513       -1025.199
  11670693.013 5   9051145.188 5  23550356.875        3285.099
  -4900107.827 6  -3821691.997 4  23997060.800       -2971.420
 -16207151.152 8 -13061887.629 7  21068526.322       -1173.259
  11699821.683 6   9221488.102 5  23318929.141        2512.694
 92 10 21  0 42 30.0000000  0  5 25 11 14 15 21                      0.000769400
 -15225874.996 8 -12111055.624 7  21098629.501        -998.892
  11769451.221 5   9128099.638 5  23569149.504        3298.759
  -4989140.355 6  -3891067.783 4  23980119.225       -2964.092
 -16241948.706 8 -13089002.579 7  21061904.618       -1146.534
  11775412.620 6   9280390.149 5  23333313.446        2526.650
 92 10 21  0 43  0.0000000  0  5 25 11 14 15 21                      0.000767260
 -15255436.941 8 -12134090.872 7  21093004.245        -971.984
  11868624.996 5   9205377.885 4  23588021.528        3312.860
  -5077939.503 6  -3960261.800 5  23963220.786       -2955.721
 -16275937.553 8 -13115487.380 7  21055437.094       -1119.225
  11851421.837 6   9339618.128 5  23347777.642        2540.806
 92 10 21  0 43 30.0000000  0  5 25 11 14 15 21                      0.000765280
 -15284199.456 8 -12156503.180 7  21087530.957        -945.590
  11968218.531 5   9282982.941 5  23606974.981        3326.697
  -5166497.484 6  -4029267.886 5  23946368.526       -2948.051
 -16309107.987 8 -13141334.431 7  21049124.895       -1092.067
  11927859.948 6   9399180.206 5  23362323.546        2555.221
 92 10 21  0 44  0.0000000  0  5 25 11 14 15 21                      0.000763430
 -15312174.385 8 -12178301.783 7  21082207.620        -919.379
  12068223.033 5   9360908.376 4  23626004.438        3340.390
  -5254831.654 6  -4098099.569 5  23929558.503       -2940.971
 -16341463.471 8 -13166546.463 7  21042967.854       -1064.855
  12004733.044 5   9459081.351 5  23376952.172        2569.796
 92 10 21  0 44 30.0000000  0  5 25 11 14 15 21                      0.000761710
 -15339359.606 8 -12199485.029 7  21077034.754        -893.176
  12168641.394 5   9439156.347 5  23645112.938        3354.257
  -5342966.152 6  -4166775.684 5  23912787.041       -2934.611
 -16372995.906 8 -13191117.156 7  21036968.108       -1037.260
  12082039.957 5   9519320.478 5  23391662.734        2583.967
 92 10 21  0 45  0.0000000  0  5 25 11 14 15 21                      0.000760120
 -15365774.170 8 -12220067.771 7  21072007.983        -868.168
  12269472.360 5   9517725.823 5  23664302.436        3367.671
  -5430906.128 6  -4235300.223 5  23896052.536       -2928.357
 -16403701.280 8 -13215043.383 7  21031124.754       -1009.945
  12159771.935 6   9579890.781 5  23406454.997        2597.890
 92 10 21  0 45 30.0000000  0  5 25 11 14 15 21                      0.000758650
 -15391453.281 8 -12240077.431 7  21067121.174        -843.777
  12370691.236 5   9596597.541 5  23683561.831        3380.203
  -5518676.125 6  -4303692.463 4  23879351.180       -2923.026
 -16433598.735 8 -13238340.095 7  21025435.396        -983.246
  12237910.822 5   9640778.180 5  23421324.086        2611.351
 92 10 21  0 46  0.0000000  0  5 25 11 14 15 21                      0.000757280
 -15416391.175 8 -12259509.507 7  21062375.581        -818.977
  12472283.443 5   9675760.209 5  23702894.447        3392.562
  -5606289.771 6  -4371962.724 5  23862679.190       -2917.832
 -16462697.818 8 -13261014.663 7  21019897.857        -956.754
  12316450.934 5   9701978.224 5  23436269.446        2624.636
 92 10 21  0 46 30.0000000  0  5 25 11 14 15 21                      0.000756030
 -15440588.015 8 -12278364.152 8  21057771.138        -794.150
  12574233.795 5   9755201.835 5  23722295.729        3404.219
  -5693738.493 6  -4440104.458 5  23846038.501       -2911.676
 -16491008.985 8 -13283075.286 7  21014509.638        -930.635
  12395381.881 5   9763482.842 5  23451289.467        2637.474
 92 10 21  0 47  0.0000000  0  5 25 11 14 15 21                      0.000754890
 -15464027.619 8 -12296628.717 8  21053310.716        -768.539
  12676534.500 5   9834916.602 5  23741763.060        3415.664
  -5780976.826 6  -4508082.228 5  23829437.501       -2904.453
 -16518534.808 8 -13304523.957 7  21009271.905        -904.610
  12474702.207 5   9825290.874 4  23466383.508        2650.474
 92 10 21  0 47 30.0000000  0  5 25 11 14 15 21                      0.000753870
 -15486685.824 8 -12314284.432 8  21048999.002        -742.115
  12779170.932 5   9914892.824 5  23761294.216        3426.820
  -5868009.630 6  -4575899.893 5  23812874.663       -2897.632
 -16545284.731 8 -13325368.012 7  21004181.298        -878.733
  12554406.564 5   9887398.070 5  23481550.997        2663.260
 92 10 21  0 48  0.0000000  0  5 25 11 14 15 21                      0.000752960
 -15508550.437 8 -12331321.761 8  21044838.253        -715.763
  12882139.906 5   9995128.336 5  23780888.149        3437.862
  -5954825.699 6  -4643548.713 5  23796353.660       -2889.994
 -16571257.010 8 -13345606.134 7  20999238.919        -852.696
  12634497.925 5   9949806.959 5  23496791.691        2676.156
 92 10 21  0 48 30.0000000  0  5 25 11 14 15 21                      0.000752190
 -15529630.636 8 -12347747.854 8  21040826.539        -689.781
  12985441.238 5  10075622.670 5  23800545.858        3448.902
  -6041407.780 6  -4711015.192 5  23779878.495       -2882.369
 -16596446.612 8 -13365234.369 7  20994445.459        -826.654
  12714969.344 5  10012511.962 5  23512104.928        2688.487
 92 10 21  0 49  0.0000000  0  5 25 11 14 15 21                      0.000751510
 -15549940.342 8 -12363573.563 8  21036961.356        -664.486
  13089066.684 5  10156369.730 5  23820266.695        3459.412
  -6127776.954 6  -4778315.763 5  23763441.031       -2876.106
 -16620856.695 8 -13384255.198 7  20989801.092        -800.807
  12795817.868 5  10075510.732 5  23527489.842        2701.224
 92 10 21  0 49 30.0000000  0  5 25 11 14 15 21                      0.000750940
 -15569503.088 8 -12378817.217 8  21033238.901        -640.215
  13193005.897 6  10237361.573 4  23840045.178        3469.770
  -6213977.884 6  -4845485.158 5  23747037.796       -2870.797
 -16644492.684 8 -13402672.824 7  20985303.125        -775.079
  12877042.796 6  10138802.884 5  23542946.495        2713.490
 92 10 21  0 50  0.0000000  0  5 25 11 14 15 21                      0.000750480
 -15588348.497 8 -12393501.912 8  21029652.705        -616.193
  13297253.659 5  10318593.578 5  23859882.645        3480.315
  -6300018.173 6  -4912529.372 5  23730665.810       -2865.201
 -16667354.695 8 -13420487.350 7  20980952.612        -748.923
  12958635.762 6  10202381.836 5  23558474.278        2726.098
 92 10 21  0 50 30.0000000  0  5 25 11 14 15 21                      0.000750130
 -15606465.058 8 -12407618.681 8  21026205.081        -591.712
  13401823.238 5  10400076.628 4  23879781.771        3490.962
  -6385891.024 6  -4979443.161 5  23714323.904       -2859.614
 -16689424.733 8 -13437684.773 7  20976752.075        -722.495
  13040616.485 6  10266262.916 5  23574074.788        2739.249
 92 10 21  0 51  0.0000000  0  5 25 11 14 15 21                      0.000749880
 -15623849.818 8 -12421165.200 8  21022897.070        -567.290
  13506705.222 5  10481802.888 5  23899738.617        3501.210
  -6471604.895 6  -5046233.080 5  23698013.527       -2854.671
 -16710707.352 8 -13454268.605 7  20972702.181        -696.350
  13122987.915 6  10330448.381 5  23589749.495        2752.159
 92 10 21  0 51 30.0000000  0  5 25 11 14 15 21                      0.000749730
 -15640499.387 8 -12434138.846 8  21019728.744        -542.962
  13611891.370 5  10563766.312 5  23919754.188        3511.047
  -6557166.658 6  -5112904.493 5  23681731.531       -2849.542
 -16731206.054 8 -13470241.600 7  20968802.110        -670.389
  13205745.029 6  10394934.427 5  23605496.754        2764.770
 92 10 21  0 52  0.0000000  0  5 25 11 14 15 21                      0.000749670
 -15656421.765 8 -12446545.847 8  21016698.591        -518.607
  13717366.418 5  10645954.669 5  23939826.107        3520.539
  -6642575.199 6  -5179456.538 5  23665477.555       -2844.318
 -16750931.204 8 -13485611.810 7  20965048.728        -644.674
  13288880.825 5  10459715.551 5  23621316.737        2777.653
 92 10 21  0 52 30.0000000  0  5 25 11 14 15 21                      0.000749720
 -15671611.390 8 -12458381.886 8  21013808.525        -494.179
  13823116.782 5  10728357.690 4  23959948.211        3529.488
  -6727828.519 6  -5245887.591 5  23649254.693       -2839.312
 -16769891.245 8 -13500385.848 7  20961441.146        -619.432
  13372398.501 5  10524794.182 5  23637208.883        2790.038
 92 10 21  0 53  0.0000000  0  5 25 11 14 15 21                      0.000749860
 -15686073.436 8 -12469650.959 8  21011056.507        -470.019
  13929125.390 5  10810961.838 5  23980119.901        3538.088
  -6812945.569 6  -5312212.434 5  23633057.603       -2834.980
 -16788098.708 8 -13514573.457 7  20957976.367        -594.198
  13456274.712 6  10590152.315 5  23653170.529        2801.924
 92 10 21  0 53 30.0000000  0  5 25 11 14 15 21                      0.000750080
 -15699809.122 8 -12480354.043 8  21008442.807        -445.890
  14035397.024 5  10893770.989 4  24000345.142        3546.681
  -6897917.113 6  -5378423.871 5  23616887.938       -2829.660
 -16805544.218 8 -13528167.335 7  20954656.154        -568.854
  13540507.236 5  10655788.048 5  23669199.475        2813.460
 92 10 21  0 54  0.0000000  0  5 25 11 14 15 21                      0.000750400
 -15712816.684 8 -12490489.766 8  21005967.482        -421.319
  14141931.561 5  10976785.022 4  24020618.033        3555.578
  -6982709.991 6  -5444496.107 5  23600752.400       -2823.117
 -16822223.010 8 -13541163.763 7  20951482.190        -543.110
  13625094.664 5  10721700.318 5  23685295.930        2825.526
 92 10 21  0 54 30.0000000  0  5 25 11 14 15 21                      0.000750820
 -15725100.371 8 -12500061.422 8  21003630.238        -398.071
  14248713.286 5  11059991.735 4  24040937.336        3562.927
  -7067317.431 6  -5510423.924 5  23584652.205       -2817.748
 -16838145.975 8 -13553571.250 7  20948451.879        -518.771
  13710013.545 5  10787870.845 4  23701455.625        2835.407
 92 10 21  0 55  0.0000000  0  5 25 11 14 15 21                      0.000751300
 -15736714.780 8 -12509111.560 8  21001420.330        -376.757
  14355692.556 5  11143352.219 4  24061295.721        3568.704
  -7151780.250 6  -5576239.104 5  23568579.363       -2813.396
 -16853358.139 8 -13565424.840 7  20945556.713        -495.792
  13795214.228 5  10854260.890 4  23717669.493        2844.249
 92 10 21  0 55 30.0000000  0  5 25 11 14 15 21                      0.000751840
 -15747706.908 8 -12517676.829 8  20999328.247        -356.213
  14462821.135 5  11226829.247 4  24081683.894        3573.138
  -7236116.170 6  -5641955.283 5  23552531.382       -2809.224
 -16867903.155 8 -13576758.592 7  20942789.039        -473.957
  13880665.976 5  10920846.691 4  23733930.494        2852.336
 92 10 21  0 56  0.0000000  0  5 25 11 14 15 21                      0.000752420
 -15758101.284 8 -12525776.311 8  20997349.727        -336.834
  14570070.928 5  11310400.437 4  24102091.443        3576.900
  -7320354.123 6  -5707595.163 5  23536501.299       -2806.801
 -16881804.513 8 -13587590.787 7  20940143.900        -452.826
  13966348.881 5  10987612.581 4  23750233.637        2859.719
 92 10 21  0 56 30.0000000  0  5 25 11 14 15 21                      0.000753020
 -15767900.722 8 -12533412.172 8  20995485.209        -316.602
  14677434.923 5  11394060.926 4  24122522.609        3580.897
  -7404531.384 6  -5773187.695 5  23520482.833       -2805.087
 -16895064.600 8 -13597923.291 7  20937620.676        -431.083
  14052253.476 5  11054551.460 3  23766581.591        2867.379
 92 10 21  0 57  0.0000000  0  5 25 11 14 15 21                      0.000753640
 -15777106.133 8 -12540585.198 8  20993733.412        -297.036
  14784918.008 5  11477813.940 4  24142977.031        3584.678
  -7488667.571 6  -5838748.234 5  23504472.782       -2804.067
 -16907673.891 8 -13607748.663 7  20935221.208        -409.514
  14138386.965 5  11121668.901 3  23782972.569        2874.784
 92 10 21  0 57 30.0000000  0  5 25 11 14 15 21                      0.000754240
 -15785714.026 8 -12547292.601 8  20992095.257        -276.988
  14892511.108 5  11561652.923 4  24163449.427        3588.235
  -7572781.097 6  -5904291.300 5  23488466.004       -2803.609
 -16919637.193 8 -13617070.704 7  20932944.863        -388.024
  14224724.907 5  11188945.100 3  23799401.137        2881.117
 92 10 21  0 58  0.0000000  0  5 25 11 14 15 21                      0.000754820
 -15793735.157 8 -12553542.783 8  20990568.563        -257.733
  15000200.639 5  11645566.792 4  24183942.139        3591.122
  -7656901.308 6  -5969839.411 5  23472458.452       -2804.367
 -16930963.391 8 -13625896.275 7  20930789.255        -367.096
  14311239.939 5  11256359.408 4  23815863.234        2886.654
 92 10 21  0 58 30.0000000  0  5 25 11 14 15 21                      0.000755360
 -15801170.301 8 -12559336.371 8  20989153.780        -238.323
  15107972.249 6  11729544.377 4  24204452.731        3593.655
  -7741034.337 6  -6035397.454 5  23456446.394       -2804.469
 -16941662.710 8 -13634233.371 7  20928753.456        -346.280
  14397923.896 5  11323905.261 4  23832358.202        2892.314
 92 10 21  0 59  0.0000000  0  5 25 11 14 15 21                      0.000755890
 -15808034.190 8 -12564684.815 8  20987847.877        -219.237
  15215818.973 5  11813580.588 4  24224975.259        3596.099
  -7825155.811 6  -6100946.555 5  23440439.689       -2803.528
 -16951737.606 8 -13642083.911 7  20926836.272        -325.418
  14484783.274 5  11391587.873 4  23848887.186        2898.255
 92 10 21  0 59 30.0000000  0  5 25 11 14 15 21                      0.000756410
 -15814326.303 8 -12569587.711 8  20986650.135        -200.587
  15323731.405 5  11897668.080 5  24245508.530        3598.080
  -7909247.789 6  -6166472.754 5  23424437.539       -2802.695
 -16961193.240 8 -13649451.916 7  20925036.888        -304.962
  14571812.987 5  11459403.224 4  23865448.765        2903.859
 92 10 21  1  0  0.0000000  0  5 25 11 14 15 21                      0.000756930
 -15820066.011 8 -12574060.162 8  20985557.800        -182.075
  15431701.513 5  11981800.659 3  24266053.501        3599.913
  -7993314.741 6  -6231979.420 5  23408440.485       -2801.671
 -16970032.808 8 -13656339.860 7  20923354.925        -284.373
  14659026.971 6  11527362.208 4  23882045.519        2910.348
 92 10 21  1  0 30.0000000  0  5 25 11 14 15 21                      0.000757450
 -15825249.407 8 -12578099.121 8  20984571.173        -163.735
  15539723.980 5  12065974.260 4  24286609.767        3601.521
  -8077342.950 6  -6297455.833 5  23392450.335       -2800.147
 -16978257.677 8 -13662748.828 7  20921789.927        -263.944
  14746430.874 6  11595469.127 4  23898679.181        2916.582
 92 10 21  1  1  0.0000000  0  5 25 11 14 15 21                      0.000757970
 -15829880.710 8 -12581707.895 8  20983689.962        -144.774
  15647793.907 5  12150184.758 3  24307172.492        3603.200
  -8161322.560 6  -6362894.387 5  23376468.918       -2798.544
 -16985868.488 8 -13668679.293 7  20920341.491        -243.363
  14834020.020 6  11663720.403 4  23915346.662        2922.667
 92 10 21  1  1 30.0000000  0  5 25 11 14 15 21                      0.000758510
 -15833939.099 8 -12584870.240 8  20982917.479        -125.945
  15755909.394 5  12234430.585 4  24327749.306        3604.600
  -8245260.666 6  -6428300.591 5  23360496.184       -2797.385
 -16992862.581 8 -13674129.231 7  20919010.193        -222.913
  14921792.218 5  11732114.349 4  23932049.570        2928.741
 92 10 21  1  2  0.0000000  0  5 25 11 14 15 21                      0.000759030
 -15837422.068 8 -12587584.177 8  20982254.568        -106.249
  15864067.771 5  12318710.050 4  24348330.471        3606.105
  -8329159.827 6  -6493676.510 5  23344531.298       -2795.816
 -16999238.883 8 -13679097.751 7  20917796.920        -202.175
  15009747.355 5  11800650.781 4  23948786.858        2934.848
 92 10 21  1  2 30.0000000  0  4 25 14 15 21                         0.000759470
 -15840314.671 8 -12589838.113 8  20981704.479         -86.756
  -8413010.782 6  -6559014.865 5  23328573.584       -2794.362
 -17004994.699 8 -13683582.788 7  20916701.499        -181.548
  15097882.868 5  11869327.803 5  23965558.386        2940.862
 92 10 21  1  3  0.0000000  0  4 25 14 15 21                         0.000759970
 -15842627.812 8 -12591640.524 8  20981264.255         -67.303
  -8496830.857 6  -6624329.047 5  23312623.876       -2793.720
 -17010133.427 8 -13687586.976 7  20915723.037        -161.004
  15186196.992 6  11938143.921 5  23982365.017        2946.616
 92 10 21  1  3 30.0000000  0  4 25 14 15 21                         0.000760430
 -15844364.208 8 -12592993.513 8  20980933.801         -48.650
  -8580638.067 6  -6689633.255 5  23296675.976       -2793.384
 -17014655.286 8 -13691110.483 7  20914862.861        -140.431
  15274680.573 6  12007092.190 5  23999203.019        2952.272
 92 10 21  1  4  0.0000000  0  4 25 14 15 21                         0.000760880
 -15845543.593 8 -12593912.478 8  20980709.366         -30.058
  -8664442.426 6  -6754935.230 5  23280728.954       -2793.465
 -17018561.117 8 -13694153.962 7  20914120.117        -119.933
  15363334.668 5  12076173.352 5  24016073.238        2958.137
 92 10 21  1  4 30.0000000  0  4 25 14 15 21                         0.000761330
 -15846168.603 8 -12594399.465 8  20980590.480         -11.658
  -8748242.247 6  -6820233.719 5  23264782.815       -2793.123
 -17021849.843 8 -13696716.579 7  20913493.748         -99.339
  15452180.078 5  12145403.487 5  24032979.083        2964.733
 92 10 21  1  5  0.0000000  0  4 25 14 15 21                         0.000761780
 -15846242.317 8 -12594456.862 8  20980576.800           6.870
  -8832032.689 6  -6885524.879 5  23248837.545       -2792.792
 -17024521.854 8 -13698798.644 8  20912985.530         -78.733
  15541221.973 5  12214786.817 4  24049923.144        2971.314
 92 10 21  1  5 30.0000000  0  4 25 14 15 21                         0.000762230
 -15845763.686 8 -12594083.839 8  20980667.957          24.950
  -8915813.872 6  -6950808.850 5  23232893.484       -2792.418
 -17026577.264 8 -13700400.246 7  20912594.112         -58.240
  15630463.152 5  12284325.351 4  24066905.059        2978.292
 92 10 21  1  6  0.0000000  0  4 25 14 15 21                         0.000762710
 -15844735.729 8 -12593282.799 8  20980863.343          43.635
  -8999572.250 6  -7016075.020 5  23216954.786       -2791.347
 -17028016.951 8 -13701522.049 8  20912320.041         -37.756
  15719919.958 5  12354031.978 4  24083928.413        2985.558
 92 10 21  1  6 30.0000000  0  5 25 11 14 15 21                      0.000763260
 -15843150.443 8 -12592047.483 8  20981164.821          62.019
      7223.70015     10965.29611  24533806.546        3611.617
  -9083294.433 6  -7081312.969 5  23201023.825       -2790.203
 -17028842.778 8 -13702165.527 8  20912163.250         -17.345
  15809587.787 5  12423903.028 4  24100991.706        2992.035
 92 10 21  1  7  0.0000000  0  5 25 11 14 15 21                      0.000763700
 -15841006.379 8 -12590376.737 8  20981572.709          80.766
      3611.79015     14078.17211  24554426.021        3611.701
  -9166986.200 6  -7146527.213 5  23185097.841       -2789.345
 -17029053.161 8 -13702329.434 8  20912123.280           3.235
  15899433.246 5  12493912.445 4  24118088.822        2997.606
 92 10 21  1  7 30.0000000  0  5 25 11 14 15 21                      0.000764120
 -15838298.693 8 -12588266.803 8  20982088.063          99.554
    -18058.12915     16307.68011  24575037.927        3611.570
  -9250647.035 6  -7211717.425 5  23169176.960       -2787.943
 -17028647.661 8 -13702013.429 8  20912200.375          23.764
  15989441.163 5  12564048.361 4  24135216.971        3002.852
 92 10 21  1  8  0.0000000  0  5 25 11 14 15 21                      0.000764530
 -15835027.371 8 -12585717.677 8  20982710.313         118.476
     90282.771 5    100728.450 1  24595657.061        3611.198
  -9334265.229 7  -7276874.406 5  23153265.364       -2786.545
 -17027626.834 8 -13701217.948 8  20912394.750          44.239
  16079601.495 5  12634303.229 4  24152374.037        3007.821
 92 10 21  1  8 30.0000000  0  4 25 14 15 21                         0.000765000
 -15831187.263 8 -12582725.346 8  20983441.183         137.365
  -9417844.170 7  -7342000.781 5  23137361.107       -2785.451
 -17025991.698 8 -13699943.779 8  20912705.998          64.672
  16169899.014 5  12704664.927 4  24169556.724        3011.902
 92 10 21  1  9  0.0000000  0  4 25 14 15 21                         0.000765360
 -15826777.886 8 -12579289.431 8  20984280.485         156.314
  -9501384.438 7  -7407096.969 5  23121463.823       -2783.983
 -17023741.938 8 -13698190.678 8  20913134.168          85.187
  16260324.876 5  12775126.549 4  24186763.404        3016.528
 92 10 21  1  9 30.0000000  0  4 25 14 15 21                         0.000765710
 -15821807.814 8 -12575416.603 8  20985225.750         174.826
  -9584874.314 6  -7472153.926 5  23105576.402       -2782.029
 -17020878.356 8 -13695959.294 8  20913679.020         105.670
  16350902.655 5  12845706.668 3  24204000.406        3021.940
 92 10 21  1 10  0.0000000  0  4 25 14 15 21                         0.000766050
 -15816282.690 8 -12571111.270 8  20986277.502         193.497
  -9668305.783 6  -7537165.410 5  23089699.696       -2780.072
 -17017399.521 8 -13693248.478 8  20914340.533         126.175
  16441647.763 5  12916417.190 3  24221268.586        3027.455
 92 10 21  1 10 30.0000000  0  4 25 14 15 21                         0.000766380
 -15810194.679 8 -12566367.329 8  20987435.612         212.284
  -9751677.319 7  -7602130.216 5  23073833.898       -2778.013
 -17013307.696 8 -13690060.017 8  20915119.002         146.632
  16532551.428 5  12987251.275 3  24238567.138        3032.784
 92 10 21  1 11  0.0000000  0  4 25 14 15 21                         0.000766710
 -15803545.839 8 -12561186.370 8  20988700.985         231.085
  -9834985.984 7  -7667045.913 5  23057980.771       -2775.920
 -17008601.333 8 -13686392.685 8  20916014.436         167.201
  16623616.637 5  13058211.122 3  24255896.805        3038.425
 92 10 21  1 11 30.0000000  0  4 25 14 15 21                         0.000767030
 -15796328.131 8 -12555562.143 8  20990074.465         250.208
  -9918235.878 6  -7731915.831 5  23042138.821       -2773.912
 -17003278.984 8 -13682245.372 8  20917027.333         187.712
  16714856.001 5  13129306.751 2  24273258.327        3044.056
 92 10 21  1 12  0.0000000  0  4 25 14 15 21                         0.000767330
 -15788529.629 8 -12549485.352 8  20991558.335         269.545
 -10001424.434 6  -7796737.958 5  23026308.567       -2772.106
 -16997338.852 8 -13677616.659 8  20918157.910         208.253
  16806250.688 5  13200523.456 2  24290649.913        3048.701
 92 10 21  1 12 30.0000000  0  4 25 14 15 21                         0.000767600
 -15780159.157 8 -12542962.877 8  20993151.036         288.300
 -10084567.148 6  -7861524.407 5  23010486.884       -2770.894
 -16990783.538 8 -13672508.614 8  20919405.506         228.743
  16897786.785 5  13271850.261 2  24308068.663        3053.728
 92 10 21  1 13  0.0000000  0  4 25 14 15 21                         0.000767850
 -15771228.950 8 -12536004.223 8  20994850.299         306.842
 -10167673.451 7  -7926282.526 5  22994671.860       -2769.604
 -16983611.823 8 -13666920.216 8  20920770.740         249.304
  16989483.674 5  13343302.438 2  24325518.187        3059.190
 92 10 21  1 13 30.0000000  0  4 25 14 15 21                         0.000768100
 -15761747.023 8 -12528615.677 8  20996654.521         325.139
 -10250742.472 7  -7991011.500 5  22978864.999       -2768.196
 -16975825.242 8 -13660852.727 8  20922252.474         269.897
  17081341.167 5  13414879.769 2  24342999.016        3064.629
 92 10 21  1 14  0.0000000  0  4 25 14 15 21                         0.000768320
 -15751723.115 8 -12520804.805 8  20998562.067         343.025
 -10333774.202 6  -8055711.440 5  22963063.983       -2767.170
 -16967422.376 8 -13654305.013 8  20923851.311         290.336
  17173363.031 5  13486585.221 2  24360510.114        3070.293
 92 10 21  1 14 30.0000000  0  4 25 14 15 21                         0.000768550
 -15741155.950 8 -12512570.600 8  21000573.117         361.370
 -10416774.376 7  -8120386.761 5  22947269.028       -2766.055
 -16958402.460 8 -13647276.484 8  20925567.412         311.015
  17265567.849 5  13558433.014 2  24378056.143        3076.778
 92 10 21  1 15  0.0000000  0  4 25 14 15 21                         0.000768770
 -15730040.975 8 -12503909.550 8  21002688.281         379.525
 -10499730.998 7  -8185028.173 5  22931483.186       -2764.346
 -16948765.957 8 -13639767.488 8  20927400.889         331.405
  17357955.288 5  13630423.401 3  24395636.909        3082.200
 92 10 21  1 15 30.0000000  0  3 25 14 15                            0.000769030
 -15718378.745 8 -12494822.058 8  21004907.734         397.844
 -10582637.665 6  -8249630.688 5  22915706.289       -2762.733
 -16938516.734 8 -13631781.060 8  20929351.451         351.857
 92 10 21  1 16  0.0000000  0  3 25 14 15                            0.000769240
 -15706165.100 8 -12485304.906 8  21007232.415         416.241
 -10665485.614 6  -8314187.468 5  22899939.913       -2760.392
 -16927654.525 8 -13623316.977 8  20931418.398         372.319
 92 10 21  1 16 30.0000000  0  3 25 14 15                            0.000769430
 -15693403.302 8 -12475360.608 8  21009661.195         434.311
 -10748259.852 7  -8378686.783 5  22884189.554       -2757.906
 -16916176.400 8 -13614372.957 8  20933602.917         392.859
 92 10 21  1 17  0.0000000  0  3 25 14 15                            0.000769620
 -15680104.896 8 -12464998.198 8  21012191.892         452.397
 -10830955.692 7  -8443125.002 5  22868453.900       -2755.075
 -16904083.843 8 -13604950.166 8  20935904.066         413.380
 92 10 21  1 17 30.0000000  0  3 25 14 15                            0.000769800
 -15666257.032 8 -12454207.629 8  21014826.337         470.805
 -10913571.341 6  -8507500.715 5  22852731.444       -2752.539
 -16891376.104 8 -13595047.999 8  20938322.761         433.837
 92 10 21  1 18  0.0000000  0  3 25 14 15                            0.000769970
 -15651857.419 8 -12442987.104 8  21017566.622         489.066
 -10996102.979 7  -8571811.010 5  22837025.988       -2749.720
 -16878053.433 8 -13584666.688 8  20940857.845         454.314
 92 10 21  1 18 30.0000000  0  3 25 14 15                            0.000770120
 -15636900.292 8 -12431332.168 8  21020412.761         508.136
 -11078558.208 7  -8636061.788 5  22821335.405       -2747.354
 -16864113.569 8 -13573804.422 8  20943510.111         474.958
 92 10 21  1 19  0.0000000  0  3 25 14 15                            0.000770430
 -15621359.261 8 -12419222.256 8  21023370.132         527.998
 -11160935.429 7  -8700251.780 5  22805660.869       -2744.424
 -16849558.183 8 -13562462.547 8  20946279.952         495.510
 92 10 21  1 19 30.0000000  0  3 25 14 15                            0.000770570
 -15605229.235 8 -12406653.368 8  21026439.840         547.156
 -11243237.228 7  -8764382.950 5  22789998.794       -2742.276
 -16834387.318 8 -13550641.062 8  20949166.724         515.949
 92 10 21  1 20  0.0000000  0  3 25 14 15                            0.000770750
 -15588533.622 8 -12393643.768 8  21029616.808         565.749
 -11325471.442 7  -8828461.436 5  22774349.495       -2740.090
 -16818601.843 8 -13538340.680 8  20952170.316         536.463
 92 10 21  1 20 30.0000000  0  3 25 14 15                            0.000770790
 -15571278.984 8 -12380198.571 8  21032899.817         584.307
 -11407648.603 7  -8892495.558 5  22758711.761       -2738.341
 -16802201.042 8 -13525560.810 8  20955291.594         556.865
 92 10 21  1 21  0.0000000  0  4 25 14 15 21                         0.000770850
 -15553483.705 8 -12366332.080 8  21036286.070         601.679
 -11489763.893 7  -8956481.417 5  22743085.440       -2736.151
 -16785188.082 8 -13512303.936 8  20958528.245         577.308
     -1556.18715     15612.12211  24608935.114        3143.290
 92 10 21  1 21 30.0000000  0  4 25 14 15 21                         0.000770920
 -15535179.861 8 -12352069.316 8  21039769.109         618.503
 -11571822.777 7  -9020423.327 5  22727470.109       -2734.261
 -16767561.872 8 -13498569.181 8  20961883.017         597.768
     92816.476 5     89148.797 1  24626893.804        3148.254
 92 10 21  1 22  0.0000000  0  4 25 14 15 21                         0.000770990
 -15516366.714 8 -12337409.688 8  21043349.112         635.598
 -11653815.464 7  -9084313.652 5  22711866.809       -2731.971
 -16749322.116 8 -13484356.368 8  20965354.477         618.086
    187343.935 5    162808.043 1  24644881.965        3153.272
 92 10 21  1 22 30.0000000  0  4 25 14 15 21                         0.000771070
 -15497031.600 8 -12322343.338 8  21047029.004         653.342
 -11735729.398 7  -9148142.604 5  22696279.712       -2728.815
 -16730469.315 8 -13469665.857 8  20968941.525         638.700
    282024.558 5    236586.164 1  24662899.880        3158.705
 92 10 21  1 23  0.0000000  0  4 25 14 15 21                         0.000771150
 -15477166.420 8 -12306863.943 8  21050808.889         670.928
 -11817545.557 7  -9211895.404 5  22680710.530       -2725.616
 -16711003.368 8 -13454497.557 8  20972646.259         659.011
    376865.889 5    310488.472 1  24680947.270        3164.002
 92 10 21  1 23 30.0000000  0  4 25 14 15 21                         0.000771230
 -15456759.565 8 -12290962.470 8  21054691.432         689.576
 -11899268.126 7  -9275575.258 5  22665159.935       -2722.327
 -16690927.564 8 -13438854.047 8  20976466.403         679.399
    471864.555 5    384513.562 2  24699025.177        3169.338
 92 10 21  1 24  0.0000000  0  4 25 14 15 21                         0.000771310
 -15435797.827 8 -12274628.624 7  21058680.708         707.817
 -11980885.836 7  -9339173.393 5  22649628.040       -2718.777
 -16670243.223 8 -13422736.349 8  20980401.920         699.616
    567021.459 5    458662.002 2  24717132.572        3174.467
 92 10 21  1 24 30.0000000  0  3 25 14 15                            0.000771310
 -15414288.448 8 -12257868.045 7  21062774.514         726.155
 -12062395.939 7  -9402687.659 5  22634116.716       -2715.235
 -16648952.039 8 -13406145.795 8  20984452.888         719.831
 92 10 21  1 25  0.0000000  0  3 25 14 15                            0.000771370
 -15392230.522 8 -12240680.026 7  21066972.428         744.288
 -12143805.258 7  -9466123.453 5  22618624.521       -2712.107
 -16627053.450 8 -13389081.920 8  20988619.919         740.088
 92 10 21  1 25 30.0000000  0  3 25 14 15                            0.000771530
 -15369629.777 8 -12223069.010 8  21071273.430         762.315
 -12225119.302 7  -9529484.993 5  22603151.583       -2708.773
 -16604546.859 8 -13371544.301 8  20992903.464         760.341
 92 10 21  1 26  0.0000000  0  3 25 14 15                            0.000771560
 -15346493.837 8 -12205041.008 8  21075675.710         779.927
 -12306327.817 7  -9592764.278 5  22587697.883       -2705.303
 -16581430.292 8 -13353531.371 8  20997302.314         780.697
 92 10 21  1 26 30.0000000  0  3 25 14 15                            0.000771580
 -15322827.866 8 -12186599.953 7  21080179.196         797.901
 -12387442.670 7  -9655970.545 5  22572262.199       -2702.321
 -16557707.932 8 -13335046.417 7  21001816.113         800.816
 92 10 21  1 27  0.0000000  0  3 25 14 15                            0.000771600
 -15298622.909 8 -12167738.920 7  21084785.117         815.705
 -12468467.654 7  -9719106.833 5  22556843.601       -2699.347
 -16533380.052 8 -13316089.606 7  21006445.222         821.021
 92 10 21  1 27 30.0000000  0  3 25 14 15                            0.000771610
 -15273872.866 8 -12148453.166 7  21089495.206         834.274
 -12549396.649 7  -9782168.348 5  22541443.043       -2695.936
 -16508445.534 8 -13296660.087 7  21011189.686         841.291
 92 10 21  1 28  0.0000000  0  3 25 14 15                            0.000771620
 -15248568.609 8 -12128735.537 7  21094310.444         852.684
 -12630227.817 7  -9845153.580 5  22526061.491       -2692.828
 -16482904.602 8 -13276758.035 7  21016050.051         861.451
 92 10 21  1 28 30.0000000  0  3 25 14 15                            0.000771620
 -15222703.934 8 -12108581.203 7  21099231.727         871.397
 -12710965.558 7  -9908066.011 5  22510697.927       -2689.652
 -16456757.054 8 -13256383.314 7  21021026.265         881.621
 92 10 21  1 29  0.0000000  0  3 25 14 15                            0.000771620
 -15196286.216 8 -12087995.949 7  21104257.886         889.589
 -12791605.107 7  -9970901.920 5  22495353.021       -2686.335
 -16430004.831 8 -13235537.402 7  21026117.862         901.845
 92 10 21  1 29 30.0000000  0  3 25 14 15                            0.000771610
 -15169327.327 8 -12066988.981 7  21109388.055         907.463
 -12872140.489 7 -10033656.699 5  22480026.881       -2682.674
 -16402647.204 8 -13214219.758 7  21031323.888         922.007
 92 10 21  1 30  0.0000000  0  3 25 14 15                            0.000771590
 -15141847.239 8 -12045575.901 7  21114617.893         924.509
 -12952562.694 7 -10096323.289 5  22464723.573       -2678.843
 -16374685.084 8 -13192431.071 7  21036644.085         942.109
 92 10 21  1 30 30.0000000  0  3 25 14 15                            0.000771570
 -15113850.419 8 -12023760.172 7  21119945.227         941.836
 -13032870.738 7 -10158900.919 5  22449441.453       -2674.940
 -16346118.752 8 -13170171.571 7  21042080.850         962.328
 92 10 21  1 31  0.0000000  0  3 25 14 15                            0.000771550
 -15085336.841 8 -12001541.787 7  21125371.101         959.075
 -13113064.175 7 -10221389.208 5  22434181.179       -2671.220
 -16316948.693 8 -13147441.647 7  21047631.420         982.385
 92 10 21  1 31 30.0000000  0  3 25 14 15                            0.000771530
 -15056293.407 8 -11978910.510 7  21130898.034         977.117
 -13193135.648 7 -10283782.499 5  22418943.976       -2666.794
 -16287176.141 8 -13124242.239 7  21053297.236        1002.460
 92 10 21  1 32  0.0000000  0  3 25 14 15                            0.000771500
 -15026708.917 8 -11955857.632 7  21136528.006         995.171
 -13273073.477 7 -10346071.685 5  22403732.239       -2662.547
 -16256802.061 8 -13100574.107 7  21059077.146        1022.402
 92 10 21  1 32 30.0000000  0  3 25 14 15                            0.000771470
 -14996575.804 8 -11932377.258 7  21142261.798        1013.308
 -13352883.434 7 -10408261.219 5  22388545.305       -2658.048
 -16225829.600 8 -13076439.703 7  21064970.764        1042.340
 92 10 21  1 33  0.0000000  0  3 25 14 15                            0.000771430
 -14965906.685 8 -11908479.208 7  21148098.386        1031.123
 -13432547.370 7 -10470336.917 5  22373385.578       -2652.835
 -16194259.216 8 -13051839.399 7  21070978.316        1062.328
 92 10 21  1 33 30.0000000  0  3 25 14 15                            0.000771390
 -14934708.976 8 -11884169.296 7  21154034.519        1048.497
 -13512049.468 7 -10532286.525 5  22358256.354       -2647.416
 -16162091.786 8 -13026773.866 7  21077100.067        1082.137
 92 10 21  1 34  0.0000000  0  3 25 14 15                            0.000771350
 -14903006.237 8 -11859465.834 7  21160067.420        1064.937
 -13591402.289 7 -10594119.861 5  22343155.866       -2642.838
 -16129330.228 8 -13001245.355 7  21083334.341        1101.970
 92 10 21  1 34 30.0000000  0  3 25 14 15                            0.000771190
 -14870806.701 8 -11834375.259 7  21166194.708        1081.612
 -13670623.273 7 -10655850.441 5  22328080.550       -2638.425
 -16095975.684 8 -12975254.785 7  21089681.138        1121.787
 92 10 21  1 35  0.0000000  0  3 25 14 15                            0.000771140
 -14838100.026 8 -11808889.530 7  21172418.800        1098.866
 -13749710.931 7 -10717477.097 5  22313030.470       -2634.148
 -16062024.063 8 -12948798.968 7  21096142.316        1141.653
 92 10 21  1 35 30.0000000  0  2 25 15                               0.000771090
 -14804873.380 8 -11782998.614 7  21178741.462        1116.264
 -16027478.588 8 -12921880.405 7  21102716.123        1161.408
 92 10 21  1 36  0.0000000  0  3 25 14 15                            0.000771030
 -14771122.467 8 -11756699.178 7  21185163.916        1133.967
  13721023.51417    -69523.39411  22282995.445       -2627.258
 -15992341.395 8 -12894500.778 7  21109401.975        1181.088
 92 10 21  1 36 30.0000000  0  3 25 14 15                            0.000770980
 -14736825.651 8 -11729974.364 7  21191690.229        1152.289
  13642260.033 7   -130904.040 1  22268007.820       -2623.510
 -15956614.423 8 -12866661.554 7  21116201.019        1200.714
 92 10 21  1 37  0.0000000  0  3 25 14 15                            0.000770920
 -14701983.986 8 -11702825.004 7  21198320.628        1170.237
  13563620.530 7   -192183.172 4  22253042.951       -2619.121
 -15920297.440 8 -12838362.601 7  21123112.063        1220.385
 92 10 21  1 37 30.0000000  0  3 25 14 15                            0.000770850
 -14666615.171 8 -11675264.862 7  21205051.299        1187.605
  13485112.042 7   -253358.530 5  22238103.212       -2614.731
 -15883392.327 8 -12809605.341 7  21130135.010        1240.024
 92 10 21  1 38  0.0000000  0  3 25 14 15                            0.000770790
 -14630726.931 8 -11647299.968 7  21211880.502        1204.780
  13406742.512 7   -314425.655 5  22223190.065       -2609.750
 -15845899.143 8 -12780389.884 7  21137269.343        1259.498
 92 10 21  1 38 30.0000000  0  3 25 14 15                            0.000770720
 -14594333.019 8 -11618941.055 7  21218805.629        1221.151
  13328536.768 7   -375365.159 5  22208308.308       -2603.793
 -15807820.193 8 -12750717.952 7  21144515.836        1279.065
 92 10 21  1 39  0.0000000  0  3 25 14 15                            0.000770660
 -14557459.409 8 -11590208.339 7  21225822.401        1237.038
  13250510.557 7   -436164.753 5  22193460.427       -2597.985
 -15769154.991 8 -12720589.212 7  21151873.643        1298.635
 92 10 21  1 39 30.0000000  0  3 25 14 15                            0.000770590
 -14520105.856 8 -11561101.680 7  21232930.616        1253.240
  13172649.068 7   -496835.977 5  22178643.516       -2592.636
 -15729907.605 8 -12690006.838 7  21159341.583        1317.915
 92 10 21  1 40  0.0000000  0  3 25 14 15                            0.000770520
 -14482257.264 8 -11531609.239 7  21240132.893        1269.850
  13094958.914 7   -557373.700 5  22163859.850       -2586.845
 -15690079.411 8 -12658971.865 7  21166921.036        1337.268
 92 10 21  1 40 30.0000000  0  3 25 14 15                            0.000770450
 -14443912.842 8 -11501730.453 7  21247429.341        1286.485
  13017436.009 7   -617781.080 5  22149107.731       -2581.456
 -15649671.107 8 -12627484.849 7  21174610.213        1356.574
 92 10 21  1 41  0.0000000  0  3 25 14 15                            0.000770380
 -14405053.406 8 -11471450.335 7  21254824.570        1304.176
  12940067.009 7   -678068.554 6  22134385.152       -2576.464
 -15608683.492 8 -12595546.435 7  21182409.825        1375.916
 92 10 21  1 41 30.0000000  0  3 25 14 15                            0.000770300
 -14365659.874 8 -11440754.068 7  21262321.192        1321.966
  12862849.087 7   -738238.277 6  22119690.747       -2571.289
 -15567121.800 8 -12563160.686 7  21190318.466        1394.962
 92 10 21  1 42  0.0000000  0  3 25 14 15                            0.000770260
 -14325739.560 8 -11409647.314 7  21269917.761        1339.214
  12785790.019 7   -798284.234 6  22105026.949       -2566.098
 -15524986.801 8 -12530328.219 7  21198336.847        1414.015
 92 10 21  1 42 30.0000000  0  3 25 14 15                            0.000770180
 -14285307.393 8 -11378141.711 7  21277611.348        1356.182
  12708889.427 7   -858206.731 6  22090392.709       -2560.501
 -15482279.166 8 -12497049.515 7  21206464.850        1433.127
 92 10 21  1 43  0.0000000  0  3 25 14 15                            0.000770100
 -14244368.279 8 -11346241.079 7  21285401.612        1372.871
  12632161.797 8   -917994.452 6  22075792.008       -2554.667
 -15439001.137 8 -12463326.363 7  21214699.530        1452.098
 92 10 21  1 43 30.0000000  0  3 25 14 15                            0.000770010
 -14202943.905 8 -11313962.323 7  21293284.655        1388.678
  12555603.489 8   -977650.215 6  22061223.423       -2549.159
 -15395157.283 8 -12429162.306 7  21223042.403        1470.899
 92 10 21  1 44  0.0000000  0  3 25 14 15                            0.000769920
 -14161044.114 8 -11281313.132 7  21301258.205        1404.630
  12479220.101 7  -1037169.674 6  22046688.266       -2543.150
 -15350744.151 8 -12394554.639 7  21231494.072        1489.907
 92 10 21  1 44 30.0000000  0  3 25 14 15                            0.000770080
 -14118659.384 8 -11248286.059 7  21309324.182        1420.911
  12403017.391 7  -1096548.370 6  22032187.425       -2537.067
 -15305763.286 8 -12359504.604 7  21240054.037        1508.764
 92 10 21  1 45  0.0000000  0  3 25 14 15                            0.000770000
 -14075783.953 8 -11214876.606 7  21317482.835        1437.371
  12326988.106 8  -1155791.915 6  22017719.269       -2531.537
 -15260217.337 8 -12324014.219 7  21248721.076        1527.667
 92 10 21  1 45 30.0000000  0  3 25 14 15                            0.000769910
 -14032413.739 8 -11181081.623 7  21325735.461        1453.989
  12251125.607 7  -1214905.473 6  22003283.254       -2525.768
 -15214105.545 8 -12288082.945 7  21257495.462        1546.531
 92 10 21  1 46  0.0000000  0  3 25 14 15                            0.000769830
 -13988540.604 8 -11146894.749 7  21334084.481        1470.804
  12175445.875 7  -1273876.636 6  21988881.714       -2519.724
 -15167427.529 8 -12251710.438 7  21266378.383        1565.355
 92 10 21  1 46 30.0000000  0  3 25 14 15                            0.000769750
 -13944165.582 8 -11112316.793 7  21342528.276        1487.284
  12099942.691 7  -1332710.268 6  21974513.390       -2513.857
 -15120185.410 8 -12214898.386 7  21275368.259        1584.110
 92 10 21  1 47  0.0000000  0  3 25 14 15                            0.000769670
 -13899302.803 8 -11077358.772 7  21351065.114        1503.477
  12024619.209 8  -1391403.840 6  21960180.655       -2507.634
 -15072383.159 8 -12177649.867 7  21284464.570        1602.643
 92 10 21  1 47 30.0000000  0  3 25 14 15                            0.000769590
 -13853947.382 8 -11042016.865 7  21359696.668        1519.993
  11949498.479 8  -1449939.410 6  21945885.241       -2500.538
 -15024023.114 8 -12139966.692 7  21293667.214        1621.267
 92 10 21  1 48  0.0000000  0  3 25 14 15                            0.000769510
 -13808097.593 8 -11006289.746 7  21368421.759        1536.572
  11874590.682 7  -1508309.121 6  21931630.550       -2493.383
 -14975106.105 8 -12101849.515 7  21302975.528        1639.856
 92 10 21  1 48 30.0000000  0  3 25 14 15                            0.000769430
 -13761754.871 8 -10970178.508 7  21377240.204        1552.851
  11799895.757 8  -1566512.941 6  21917416.189       -2486.155
 -14925634.470 8 -12063300.179 7  21312389.800        1658.249
 92 10 21  1 49  0.0000000  0  3 25 14 15                            0.000769360
 -13714915.283 8 -10933680.112 7  21386153.753        1569.615
  11725427.015 8  -1624540.469 6  21903245.738       -2478.499
 -14875608.146 8 -12024318.614 7  21321909.420        1676.798
 92 10 21  1 49 30.0000000  0  3 25 14 15                            0.000769300
 -13667579.544 8 -10896795.101 7  21395161.718        1585.912
  11651170.139 8  -1682402.929 6  21889115.730       -2472.076
 -14825031.215 8 -11984907.992 7  21331533.749        1695.093
 92 10 21  1 50  0.0000000  0  3 25 14 15                            0.000769230
 -13619770.045 8 -10859540.915 7  21404258.980        1601.316
  11577099.717 7  -1740120.116 6  21875020.081       -2465.913
 -14773904.696 8 -11945069.136 7  21341262.683        1713.334
 92 10 21  1 50 30.0000000  0  3 25 14 15                            0.000769160
 -13571504.405 8 -10821931.328 7  21413443.580        1616.226
  11503207.314 7  -1797698.575 6  21860958.563       -2460.252
 -14722230.998 8 -11904803.896 7  21351095.810        1731.500
 92 10 21  1 51  0.0000000  0  3 25 14 15                            0.000769080
 -13522789.422 8 -10783971.580 7  21422713.913        1631.238
  11429489.671 8  -1855140.857 6  21846930.653       -2454.301
 -14670011.539 8 -11864113.368 7  21361033.393        1749.727
 92 10 21  1 51 30.0000000  0  3 25 14 15                            0.000769020
 -13473633.520 8 -10745668.281 7  21432068.058        1645.749
  11355938.527 8  -1912453.399 6  21832934.595       -2448.961
 -14617249.838 8 -11823000.339 7  21371074.104        1767.737
 92 10 21  1 52  0.0000000  0  3 25 14 15                            0.000768950
 -13424043.156 8 -10707026.418 7  21441504.486        1660.346
  11282564.632 8  -1969627.820 6  21818971.751       -2442.506
 -14563946.894 8 -11781465.562 7  21381216.961        1785.746
 92 10 21  1 52 30.0000000  0  3 25 14 15                            0.000768890
 -13373998.139 8 -10668030.293 7  21451028.242        1675.939
  11209387.008 8  -2026649.306 6  21805046.300       -2435.841
 -14510106.894 8 -11739512.283 7  21391462.321        1803.556
 92 10 21  1 53  0.0000000  0  3 25 14 15                            0.000768830
 -13323474.241 8 -10628661.018 7  21460642.488        1692.089
  11136423.696 8  -2083503.809 6  21791162.003       -2428.458
 -14455730.468 8 -11697141.024 7  21401809.725        1821.453
 92 10 21  1 53 30.0000000  0  3 25 14 15                            0.000768770
 -13272467.913 8 -10588915.803 7  21470348.247        1708.252
  11063683.964 8  -2140184.094 6  21777320.016       -2420.786
 -14400817.057 8 -11654351.330 7  21412259.353        1839.356
 92 10 21  1 54  0.0000000  0  3 25 14 15                            0.000768740
 -13220971.557 8 -10548788.762 7  21480147.543        1725.028
  10991185.396 8  -2196676.422 6  21763523.924       -2412.258
 -14345369.698 7 -11611145.576 7  21422810.246        1857.220
 92 10 21  1 54 30.0000000  0  3 25 14 15                            0.000768650
 -13168967.185 8 -10508265.860 7  21490044.330        1741.640
  10918939.114 8  -2252972.174 6  21749775.624       -2404.161
 -14289387.920 7 -11567523.394 7  21433462.852        1874.885
 92 10 21  1 55  0.0000000  0  3 25 14 15                            0.000768610
 -13116477.649 8 -10467364.929 7  21500032.859        1757.364
  10846935.284 8  -2309079.024 6  21736073.950       -2396.225
 -14232875.239 7 -11523487.543 7  21444217.140        1892.566
 92 10 21  1 55 30.0000000  0  3 25 14 15                            0.000768570
 -13063523.520 8 -10426101.952 7  21510109.462        1772.799
  10775166.376 8  -2365002.812 6  21722416.594       -2388.414
 -14175835.539 7 -11479040.988 7  21455071.132        1910.102
 92 10 21  1 56  0.0000000  0  3 25 14 15                            0.000768540
 -13010110.577 8 -10384481.450 7  21520273.074        1787.909
  10703626.043 8  -2420748.459 6  21708802.677       -2381.034
 -14118272.037 7 -11434186.289 7  21466025.320        1927.467
 92 10 21  1 56 30.0000000  0  3 25 14 15                            0.000768500
 -12956257.603 8 -10342518.072 7  21530521.030        1802.154
  10632304.070 8  -2476323.975 6  21695230.794       -2373.731
 -14060188.092 7 -11388926.041 7  21477078.760        1944.848
 92 10 21  1 57  0.0000000  0  3 25 14 15                            0.000768460
 -12901979.745 8 -10300223.631 7  21540849.700        1816.317
  10561203.116 8  -2531727.288 6  21681701.019       -2366.271
 -14001587.047 7 -11343262.855 7  21488229.908        1961.937
 92 10 21  1 57 30.0000000  0  3 25 14 15                            0.000768420
 -12847267.548 8 -10257590.739 7  21551261.052        1830.918
  10490334.518 8  -2586949.537 6  21668215.448       -2358.508
 -13942465.691 7 -11297194.246 7  21499479.849        1979.312
 92 10 21  1 58  0.0000000  0  3 25 14 15                            0.000768400
 -12792116.529 8 -10214615.891 7  21561756.579        1845.691
  10419692.959 8  -2641994.824 6  21654772.513       -2350.819
 -13882829.934 7 -11250724.808 7  21510828.312        1996.398
 92 10 21  1 58 30.0000000  0  3 25 14 15                            0.000768370
 -12736518.738 8 -10171292.915 7  21572336.204        1860.631
  10349293.629 8  -2696851.411 6  21641375.839       -2342.604
 -13822680.041 7 -11203854.753 7  21522274.707        2013.539
 92 10 21  1 59  0.0000000  0  3 25 14 15                            0.000768360
 -12680469.418 8 -10127618.107 7  21583001.870        1875.792
  10279135.353 8  -2751520.160 6  21628024.849       -2334.757
 -13762019.649 7 -11156586.917 7  21533818.417        2030.434
 92 10 21  1 59 30.0000000  0  3 25 14 15                            0.000768340
 -12623966.757 8 -10083590.063 7  21593753.677        1891.006
  10209206.946 8  -2806009.780 6  21614718.031       -2326.950
 -13700852.939 7 -11108924.531 7  21545457.940        2047.346
 92 10 21  2  0  0.0000000  0  3 25 14 15                            0.000768330
 -12567005.310 8 -10039204.485 7  21604592.762        1906.188
  10139528.602 8  -2860304.535 6  21601458.841       -2318.251
 -13639179.213 7 -11060867.062 7  21557193.714        2064.186
 92 10 21  2  0 30.0000000  0  3 25 14 15                            0.000768320
 -12509598.462 8  -9994471.853 7  21615517.547        1920.937
  10070114.174 8  -2914393.678 6  21588250.184       -2309.377
 -13577003.126 7 -11012418.159 7  21569025.874        2081.012
 92 10 21  2  1  0.0000000  0  3 25 14 15                            0.000768310
 -12451749.814 8  -9949394.987 7  21626526.077        1935.629
  10000957.339 8  -2968282.105 6  21575089.547       -2301.049
 -13514325.049 7 -10963578.114 7  21580952.340        2097.595
 92 10 21  2  1 30.0000000  0  3 25 14 15                            0.000768310
 -12393463.058 8  -9903976.727 7  21637617.889        1950.086
   9932056.378 8  -3021971.098 6  21561978.125       -2292.163
 -13451149.648 7 -10914350.496 7  21592974.318        2114.167
 92 10 21  2  2  0.0000000  0  3 25 14 15                            0.000768310
 -12334747.407 8  -9858224.247 7  21648791.105        1964.172
   9863423.934 8  -3075450.891 6  21548917.575       -2283.506
 -13387478.418 7 -10864736.543 6  21605090.950        2130.648
 92 10 21  2  2 30.0000000  0  3 25 14 15                            0.000768320
 -12275610.453 8  -9812143.478 7  21660044.485        1978.163
   9795039.427 8  -3128737.509 6  21535904.394       -2275.593
 -13323312.581 7 -10814737.178 6  21617300.463        2147.061
 92 10 21  2  3  0.0000000  0  3 25 14 15                            0.000768320
 -12216053.356 8  -9765735.342 7  21671377.858        1992.015
   9726891.607 8  -3181839.661 6  21522936.201       -2267.584
 -13258654.788 7 -10764354.458 6  21629604.716        2163.352
 92 10 21  2  3 30.0000000  0  3 25 14 15                            0.000768330
 -12156090.692 8  -9719011.168 7  21682788.378        2005.460
   9658994.470 8  -3234746.471 7  21510016.534       -2258.854
 -13193509.776 7 -10713592.093 6  21642002.543        2179.611
 92 10 21  2  4  0.0000000  0  3 25 14 15                            0.000768350
 -12095725.144 8  -9671973.083 7  21694275.587        2018.818
   9591354.470 8  -3287452.969 6  21497144.717       -2250.519
 -13127879.023 7 -10662451.239 6  21654491.748        2195.785
 92 10 21  2  4 30.0000000  0  5 25 20 14 15 13                      0.000768060
 -12034954.250 8  -9624619.109 6  21705839.548        2032.457
   1405870.74315   1099191.13115  25264384.087        1545.344
   9523968.808 8  -3339961.262 7  21484321.523       -2241.910
 -13061761.904 7 -10610931.416 7  21667073.259        2211.905
   -575349.31916   -452670.34812  25308241.329        -695.708
 92 10 21  2  5  0.0000000  0  3 25 14 15                            0.000768120
 -11973773.752 8  -9576945.966 6  21717481.551        2046.239
   9456847.039 8  -3392263.879 7  21471548.575       -2232.774
 -12995164.252 7 -10559037.138 7  21679745.952        2227.941
 92 10 21  2  5 30.0000000  0  3 25 14 15                            0.000768150
 -11912177.856 8  -9528949.139 6  21729203.114        2060.078
   9389996.173 8  -3444355.448 7  21458826.993       -2224.000
 -12928089.048 7 -10506770.752 7  21692509.279        2243.715
 92 10 21  2  6  0.0000000  0  3 25 14 15                            0.000768180
 -11850162.789 8  -9480625.700 6  21741004.455        2074.153
   9323409.136 8  -3496241.439 7  21446155.705       -2215.059
 -12860539.158 7 -10454134.476 7  21705363.628        2259.646
 92 10 21  2  6 30.0000000  0  3 25 14 15                            0.000768220
 -11787723.179 8  -9431971.445 6  21752886.151        2088.471
   9257091.713 8  -3547917.302 7  21433536.051       -2206.042
 -12792516.197 7 -10401129.550 6  21718308.248        2275.284
 92 10 21  2  7  0.0000000  0  3 25 14 15                            0.000768260
 -11724858.015 8  -9382985.584 6  21764848.778        2102.457
   9191050.931 8  -3599377.645 7  21420969.182       -2196.724
 -12724022.573 8 -10347757.877 6  21731342.863        2290.883
 92 10 21  2  7 30.0000000  0  3 25 14 15                            0.000768300
 -11661577.132 8  -9333675.785 6  21776890.663        2116.174
   9125288.659 8  -3650620.944 7  21408455.185       -2187.503
 -12655062.270 7 -10294022.567 6  21744465.961        2306.387
 92 10 21  2  8  0.0000000  0  3 25 14 15                            0.000768340
 -11597881.858 8  -9284043.109 6  21789011.451        2130.163
   9059805.303 8  -3701646.897 7  21395993.624       -2178.170
 -12585637.654 7 -10239925.443 6  21757676.913        2321.908
 92 10 21  2  8 30.0000000  0  3 25 14 15                            0.000768400
 -11533765.982 8  -9234082.652 6  21801212.124        2144.098
   8994593.999 8  -3752460.863 7  21383584.293       -2169.052
 -12515749.762 7 -10185467.333 6  21770975.688        2337.400
 92 10 21  2  9  0.0000000  0  3 25 14 15                            0.000768450
 -11469238.211 8  -9183801.274 6  21813491.564        2157.638
   8929660.677 8  -3803058.224 7  21371228.235       -2159.817
 -12445398.610 7 -10130648.251 6  21784362.390        2352.716
 92 10 21  2  9 30.0000000  0  3 25 14 15                            0.000768520
 -11404309.006 8  -9133207.089 6  21825846.862        2170.616
   8865001.406 8  -3853442.049 7  21358923.844       -2150.942
 -12374587.859 7 -10075471.053 6  21797836.733        2367.857
 92 10 21  2 10  0.0000000  0  3 25 14 15                            0.000768580
 -11338994.928 7  -9082312.990 6  21838275.588        2183.487
   8800614.572 8  -3903613.578 7  21346671.566       -2141.593
 -12303324.415 7 -10019941.115 6  21811398.092        2382.954
 92 10 21  2 10 30.0000000  0  3 25 14 15                            0.000768650
 -11273302.229 8  -9031123.854 6  21850776.741        2195.914
   8736509.283 8  -3953565.725 7  21334472.773       -2131.785
 -12231610.948 7  -9964060.450 6  21825045.425        2398.011
 92 10 21  2 11  0.0000000  0  3 25 14 15                            0.000768730
 -11207244.087 8  -8979649.968 6  21863347.470        2207.879
   8672709.053 8  -4003280.165 7  21322331.846       -2121.609
 -12159446.934 7  -9907828.770 6  21838778.468        2412.908
 92 10 21  2 11 30.0000000  0  3 25 14 15                            0.000768810
 -11140823.721 8  -8927893.828 6  21875986.691        2219.958
   8609214.009 8  -4052756.782 7  21310248.913       -2111.376
 -12086836.784 7  -9851249.407 6  21852595.453        2427.654
 92 10 21  2 12  0.0000000  0  3 25 14 15                            0.000768890
 -11074030.867 8  -8875847.441 6  21888696.380        2232.775
   8546032.725 8  -4101988.905 7  21298226.195       -2100.795
 -12013784.368 7  -9794325.439 6  21866496.680        2442.395
 92 10 21  2 12 30.0000000  0  3 25 14 15                            0.000768980
 -11006851.525 8  -8823499.900 6  21901480.551        2245.575
   8483168.480 8  -4150974.019 7  21286263.777       -2090.155
 -11940290.143 7  -9737057.220 6  21880481.425        2457.150
 92 10 21  2 13  0.0000000  0  3 25 14 15                            0.000769070
 -10939287.951 8  -8770852.929 6  21914337.660        2258.678
   8420620.982 8  -4199712.289 7  21274361.296       -2079.831
 -11866356.298 7  -9679446.423 6  21894550.591        2471.722
 92 10 21  2 13 30.0000000  0  3 25 14 15                            0.000769180
 -10871318.343 8  -8717889.603 6  21927272.005        2272.477
   8358380.069 8  -4248211.675 7  21262516.866       -2069.474
 -11791984.710 7  -9621494.545 6  21908703.291        2486.344
 92 10 21  2 14  0.0000000  0  3 25 14 15                            0.000769280
 -10802940.821 8  -8664608.416 6  21940283.717        2285.873
   8296455.868 8  -4296464.269 7  21250732.965       -2058.846
 -11717176.333 7  -9563202.301 6  21922939.095        2500.841
 92 10 21  2 14 30.0000000  0  3 25 14 15                            0.000769400
 -10734167.922 7  -8611019.116 6  21953370.678        2298.776
   8234848.914 8  -4344469.671 7  21239009.092       -2048.275
 -11641935.965 7  -9504573.459 6  21937257.101        2515.188
 92 10 21  2 15  0.0000000  0  3 25 14 15                            0.000769570
 -10665011.664 8  -8557131.114 6  21966530.179        2311.533
   8173555.315 8  -4392230.870 7  21227345.235       -2038.006
 -11566267.693 7  -9445611.144 6  21951656.464        2529.352
 92 10 21  2 15 30.0000000  0  3 25 14 15                            0.000769700
 -10595481.087 8  -8502951.415 6  21979761.737        2323.644
   8112573.601 8  -4439749.051 7  21215740.898       -2027.325
 -11490174.037 7  -9386317.395 6  21966136.033        2543.568
 92 10 21  2 16  0.0000000  0  3 25 14 15                            0.000769830
 -10525596.295 8  -8448495.719 6  21993060.468        2335.428
   8051908.328 8  -4487020.668 7  21204196.600       -2017.113
 -11413658.100 7  -9326694.586 6  21980696.801        2557.600
 92 10 21  2 16 30.0000000  0  3 25 14 15                            0.000769970
 -10455355.915 8  -8393762.959 6  22006426.768        2347.354
   7991539.566 8  -4534061.216 7  21192709.043       -2007.301
 -11336722.718 7  -9266744.959 6  21995336.854        2571.553
 92 10 21  2 17  0.0000000  0  3 25 14 15                            0.000770110
 -10384753.354 7  -8338747.975 6  22019861.867        2359.542
   7931469.749 8  -4580868.823 7  21181278.396       -1997.274
 -11259370.360 7  -9206470.386 6  22010057.005        2585.331
 92 10 21  2 17 30.0000000  0  3 25 14 15                            0.000770260
 -10313779.148 7  -8283443.384 6  22033367.798        2371.877
   7871714.475 8  -4627431.353 7  21169907.667       -1986.555
 -11181601.103 7  -9145870.950 6  22024855.278        2599.108
 92 10 21  2 18  0.0000000  0  3 25 14 15                            0.000770420
 -10242432.809 7  -8227848.838 6  22046944.368        2384.479
   7812280.878 8  -4673743.224 7  21158597.648       -1975.687
 -11103423.130 7  -9084953.073 6  22039732.697        2612.745
 92 10 21  2 18 30.0000000  0  3 25 14 15                            0.000770590
 -10170709.029 7  -8171960.141 6  22060592.622        2396.918
   7753184.554 9  -4719792.270 7  21147352.133       -1964.046
 -11024837.163 7  -9023717.279 6  22054687.248        2626.243
 92 10 21  2 19  0.0000000  0  3 25 14 15                            0.000770750
 -10098620.184 7  -8115787.021 6  22074310.873        2408.849
   7694440.182 8  -4765567.069 7  21136173.281       -1952.283
 -10945847.911 7  -8962167.191 6  22069717.952        2639.697
 92 10 21  2 19 30.0000000  0  3 25 14 15                            0.000770930
 -10026181.815 7  -8059341.526 6  22088095.619        2420.281
   7636048.797 8  -4811066.844 7  21125061.754       -1940.520
 -10866455.172 7  -8900302.727 6  22084825.342        2653.069
 92 10 21  2 20  0.0000000  0  3 25 14 15                            0.000771110
  -9953399.843 7  -8002628.303 6  22101945.300        2431.666
   7578007.723 8  -4856293.617 7  21114016.710       -1928.928
 -10786662.996 7  -8838127.029 6  22100008.803        2666.359
 92 10 21  2 20 30.0000000  0  3 25 14 15                            0.000771290
  -9880282.264 7  -7945653.580 6  22115858.908        2442.737
   7520308.609 8  -4901253.927 7  21103036.562       -1917.626
 -10706474.404 7  -8775642.417 6  22115268.530        2679.525
 92 10 21  2 21  0.0000000  0  3 25 14 15                            0.000771480
  -9806841.380 7  -7888426.902 6  22129834.472        2453.378
   7462946.756 8  -4945951.449 7  21092120.829       -1906.249
 -10625893.057 7  -8712851.763 6  22130602.874        2692.595
 92 10 21  2 21 30.0000000  0  3 25 14 15                            0.000771690
  -9733076.696 7  -7830947.931 6  22143871.688        2464.296
   7405933.746 8  -4990377.146 7  21081271.509       -1894.553
 -10544922.063 7  -8649757.494 6  22146011.704        2705.486
 92 10 21  2 22  0.0000000  0  3 25 14 15                            0.000771890
  -9658979.061 7  -7773209.491 6  22157972.304        2475.414
   7349276.687 8  -5034525.464 7  21070490.302       -1882.728
 -10463562.473 7  -8586360.405 6  22161493.097        2718.431
 92 10 21  2 22 30.0000000  0  3 25 14 15                            0.000772110
  -9584546.135 7  -7715209.825 6  22172136.639        2486.668
   7292966.851 8  -5078403.222 7  21059775.022       -1871.096
 -10381817.823 7  -8522663.288 6  22177049.968        2731.185
 92 10 21  2 23  0.0000000  0  3 25 14 15                            0.000772320
  -9509769.912 7  -7656942.624 6  22186366.200        2498.283
   7237015.734 8  -5122001.481 7  21049127.761       -1859.107
 -10299690.402 7  -8458667.907 6  22192678.327        2743.865
 92 10 21  2 23 30.0000000  0  3 25 14 15                            0.000772560
  -9434635.998 7  -7598396.707 6  22200662.571        2510.574
   7181416.609 8  -5165325.436 7  21038547.647       -1847.591
 -10217182.798 7  -8394376.270 6  22208379.148        2756.611
 92 10 21  2 24  0.0000000  0  3 25 14 15                            0.000772800
  -9359135.395 7  -7539565.058 6  22215030.104        2522.643
   7126159.241 8  -5208383.093 7  21028032.275       -1836.238
 -10134297.367 7  -8329790.218 6  22224151.328        2769.071
 92 10 21  2 24 30.0000000  0  3 25 14 15                            0.000773040
  -9283274.538 7  -7480452.686 6  22229466.160        2534.497
   7071243.600 8  -5251174.472 7  21017582.581       -1824.583
 -10051037.134 7  -8264912.109 6  22239995.849        2781.600
 92 10 21  2 25  0.0000000  0  3 25 14 15                            0.000773180
  -9207072.349 7  -7421074.360 6  22243967.343        2545.679
   7016680.557 8  -5293691.108 7  21007199.298       -1812.940
  -9967407.013 7  -8199745.805 6  22255909.995        2793.876
 92 10 21  2 25 30.0000000  0  3 25 14 15                            0.000773440
  -9130540.603 7  -7361439.237 6  22258530.480        2556.272
   6962463.389 8  -5335938.216 8  20996882.419       -1801.458
  -9883408.996 7  -8134292.801 6  22271894.179        2805.977
 92 10 21  2 26  0.0000000  0  3 25 14 15                            0.000773710
  -9053698.697 7  -7301562.398 6  22273153.066        2566.341
   6908600.235 8  -5377909.487 8  20986632.596       -1789.460
  -9799046.663 7  -8068555.922 6  22287947.335        2818.190
 92 10 21  2 26 30.0000000  0  3 25 14 15                            0.000773980
  -8976557.801 7  -7241452.589 6  22287832.294        2576.338
   6855092.397 8  -5419603.884 8  20976450.016       -1777.582
  -9714323.607 7  -8002537.956 6  22304069.315        2830.057
 92 10 21  2 27  0.0000000  0  3 25 14 15                            0.000774260
  -8899112.170 7  -7181105.336 6  22302569.984        2586.661
   6801940.767 8  -5461020.710 8  20966335.659       -1765.834
  -9629244.708 7  -7936242.718 6  22320259.505        2841.887
 92 10 21  2 27 30.0000000  0  3 25 14 15                            0.000774550
  -8821351.991 7  -7120513.002 6  22317366.741        2597.317
   6749147.051 8  -5502158.655 8  20956289.241       -1753.656
  -9543811.064 7  -7869671.048 6  22336516.778        2853.650
 92 10 21  2 28  0.0000000  0  3 25 14 15                            0.000774840
  -8743271.577 7  -7059671.100 6  22332224.852        2608.084
   6696718.161 8  -5543012.316 8  20946312.480       -1741.398
  -9458027.933 7  -7802827.072 6  22352840.971        2865.282
 92 10 21  2 28 30.0000000  0  3 25 14 15                            0.000775150
  -8664869.102 7  -6998578.260 6  22347144.405        2618.695
   6644663.928 8  -5583574.037 8  20936406.876       -1728.712
  -9371898.338 7  -7735713.121 6  22369230.654        2876.731
 92 10 21  2 29  0.0000000  0  3 25 14 15                            0.000775450
  -8586154.490 7  -6937242.190 6  22362123.605        2628.869
   6592997.831 8  -5623833.305 8  20926575.344       -1715.479
  -9285426.900 7  -7668332.788 6  22385686.021        2888.112
 92 10 21  2 29 30.0000000  0  3 25 14 15                            0.000775760
  -8507133.221 7  -6875667.167 6  22377161.025        2639.143
   6541739.747 8  -5663774.653 8  20916820.916       -1701.660
  -9198613.432 7  -7600685.922 6  22402205.917        2899.455
 92 10 21  2 30  0.0000000  0  3 25 14 15                            0.000776080
  -8427813.180 7  -6813859.343 6  22392255.275        2648.777
   6490893.992 8  -5703394.703 8  20907145.444       -1688.037
  -9111463.424 7  -7532776.828 6  22418790.586        2910.568
 92 10 21  2 30 30.0000000  0  3 25 14 15                            0.000776410
  -8348198.093 7  -6751821.604 6  22407405.736        2658.928
   6440459.045 8  -5742694.619 8  20897547.790       -1674.286
  -9023978.636 7  -7464606.880 6  22435437.940        2921.861
 92 10 21  2 31  0.0000000  0  3 25 14 15                            0.000776740
  -8268281.419 7  -6689548.878 6  22422613.017        2668.808
   6390430.505 8  -5781677.877 8  20888027.658       -1661.041
  -8936159.633 7  -7396176.490 6  22452148.949        2932.741
 92 10 21  2 31 30.0000000  0  3 25 14 15                            0.000777080
  -8188067.577 7  -6627044.585 6  22437877.773        2678.636
   6340787.348 8  -5820360.841 8  20878580.879       -1648.591
  -8848014.198 6  -7327491.747 6  22468923.001        2943.562
 92 10 21  2 32  0.0000000  0  3 25 14 15                            0.000777420
  -8107565.832 7  -6564315.945 6  22453196.094        2688.203
   6291510.738 8  -5858758.175 8  20869203.701       -1636.576
  -8759545.306 7  -7258554.935 6  22485757.831        2954.341
 92 10 21  2 32 30.0000000  0  3 25 14 15                            0.000777770
  -8026771.995 7  -6501359.694 6  22468570.843        2697.786
   6242598.884 8  -5896871.272 8  20859896.125       -1624.227
  -8670755.413 7  -7189368.029 6  22502654.376        2964.958
 92 10 21  2 33  0.0000000  0  3 25 14 15                            0.000778120
  -7945699.106 7  -6438186.015 6  22483998.262        2707.119
   6194060.762 8  -5934693.153 8  20850659.629       -1611.618
  -8581648.962 7  -7119934.441 6  22519610.427        2975.484
 92 10 21  2 33 30.0000000  0  3 25 14 15                            0.000778480
  -7864337.548 7  -6374787.392 6  22499481.140        2716.824
   6145902.180 8  -5972219.314 8  20841495.253       -1598.843
  -8492227.699 7  -7050255.559 6  22536626.347        2985.872
 92 10 21  2 34  0.0000000  0  3 25 14 15                            0.000778850
  -7782684.428 7  -6311161.553 6  22515019.736        2726.613
   6098139.142 8  -6009437.220 8  20832406.305       -1585.289
  -8402497.099 7  -6980335.618 6  22553701.780        2996.158
 92 10 21  2 34 30.0000000  0  3 25 14 15                            0.000779210
  -7700743.116 7  -6247311.187 6  22530612.073        2735.836
   6050790.821 8  -6046331.986 8  20823396.783       -1571.458
  -8312460.765 7  -6910177.446 6  22570835.396        3006.153
 92 10 21  2 35  0.0000000  0  3 25 14 15                            0.000779870
  -7618523.775 7  -6183244.156 6  22546257.621        2745.423
   6003853.319 8  -6082906.654 8  20814464.677       -1557.696
  -8222124.331 7  -6839785.420 5  22588025.585        3016.268
 92 10 21  2 35 30.0000000  0  3 25 14 15                            0.000780250
  -7536025.826 7  -6118960.042 6  22561956.911        2754.204
   5957324.546 8  -6119162.803 8  20805610.485       -1544.127
  -8131487.160 7  -6769159.043 5  22605274.164        3026.238
 92 10 21  2 36  0.0000000  0  3 25 14 15                            0.000780640
  -7453276.636 7  -6054480.149 6  22577703.691        2762.365
   5911203.460 8  -6155101.281 8  20796833.503       -1530.758
  -8040553.554 6  -6698301.683 5  22622577.567        3035.949
 92 10 21  2 36 30.0000000  0  3 25 14 15                            0.000781020
  -7370272.108 7  -5989801.305 6  22593499.117        2771.320
   5865473.134 8  -6190735.292 8  20788131.267       -1517.987
  -7949328.407 6  -6627217.184 5  22639936.570        3045.628
 92 10 21  2 37  0.0000000  0  3 25 14 15                            0.000781410
  -7286988.610 7  -5924905.064 6  22609346.685        2780.796
   5820126.416 8  -6226070.380 8  20779502.019       -1504.907
  -7857813.382 7  -6555906.767 5  22657350.615        3055.347
 92 10 21  2 37 30.0000000  0  3 25 14 15                            0.000781810
  -7203424.372 7  -5859790.059 6  22625248.445        2790.194
   5775180.097 8  -6261093.434 8  20770949.341       -1491.370
  -7766010.189 7  -6484371.832 5  22674820.797        3064.893
 92 10 21  2 38  0.0000000  0  3 25 14 15                            0.000782210
  -7119570.291 7  -5794449.225 6  22641205.533        2800.106
   5730651.416 8  -6295791.112 8  20762475.379       -1477.254
  -7673921.919 7  -6412614.721 5  22692344.505        3074.345
 92 10 21  2 38 30.0000000  0  3 25 14 15                            0.000782620
  -7035419.205 7  -5728876.972 6  22657219.312        2809.646
   5686549.898 8  -6330155.912 8  20754083.487       -1462.681
  -7581551.853 6  -6340638.068 5  22709921.848        3083.671
 92 10 21  2 39  0.0000000  0  3 25 14 15                            0.000783030
  -6951005.208 7  -5663099.812 6  22673282.687        2817.727
   5642894.139 8  -6364173.361 8  20745775.699       -1447.628
  -7488905.188 6  -6268445.866 5  22727552.210        3092.775
 92 10 21  2 39 30.0000000  0  3 25 14 15                            0.000783450
  -6866356.069 7  -5597139.452 6  22689390.662        2825.454
   5599688.702 8  -6397839.913 8  20737553.881       -1432.984
  -7395985.724 6  -6196041.091 5  22745234.260        3101.740
 92 10 21  2 40  0.0000000  0  3 25 14 15                            0.000783870
  -6781470.174 7  -5530994.597 6  22705544.156        2833.348
   5556922.507 8  -6431164.220 8  20729415.465       -1418.405
  -7302793.706 6  -6123423.927 5  22762967.304        3110.918
 92 10 21  2 40 30.0000000  0  3 25 14 15                            0.000784300
  -6696357.444 7  -5464672.980 6  22721741.019        2840.775
   5514577.338 8  -6464160.426 8  20721357.613       -1404.447
  -7209334.536 6  -6050598.562 5  22780752.829        3119.712
 92 10 21  2 41  0.0000000  0  3 25 14 15                            0.000784720
  -6611017.366 7  -5398174.240 5  22737980.661        2848.509
   5472655.940 8  -6496826.435 8  20713380.165       -1390.370
  -7115611.827 6  -5977567.907 5  22798587.944        3128.413
 92 10 21  2 41 30.0000000  0  3 25 14 15                            0.000785160
  -6525439.246 7  -5331489.981 5  22754264.714        2856.632
   5431154.611 8  -6529165.117 8  20705483.083       -1376.424
  -7021629.229 6  -5904334.697 5  22816472.615        3137.059
 92 10 21  2 42  0.0000000  0  3 25 14 15                            0.000785600
  -6439610.247 7  -5264610.241 5  22770598.002        2865.235
   5390081.774 8  -6561169.907 8  20697667.482       -1361.634
  -6927386.605 6  -5830898.905 5  22834406.598        3145.795
 92 10 21  2 42 30.0000000  0  3 25 14 15                            0.000786050
  -6353532.405 7  -5197536.612 5  22786977.365        2873.204
   5349447.802 8  -6592832.709 8  20689935.237       -1347.112
  -6832886.419 6  -5757262.428 5  22852389.199        3154.205
 92 10 21  2 43  0.0000000  0  3 25 14 15                            0.000786500
  -6267211.309 7  -5130273.360 5  22803403.800        2881.352
   5309255.058 8  -6624151.719 8  20682287.042       -1332.514
  -6738133.550 6  -5683429.022 5  22870420.548        3162.633
 92 10 21  2 43 30.0000000  0  3 25 14 15                            0.000786960
  -6180641.550 7  -5062816.432 5  22819877.906        2889.873
   5269491.492 8  -6655136.306 8  20674719.979       -1318.465
  -6643129.213 6  -5609399.675 5  22888497.926        3170.945
 92 10 21  2 44  0.0000000  0  3 25 14 15                            0.000787430
  -6093818.480 7  -4995162.091 5  22836399.595        2898.219
   5230149.875 9  -6685792.076 8  20667233.301       -1304.233
  -6547882.559 6  -5535181.486 5  22906621.928        3178.923
 92 10 21  2 44 30.0000000  0  3 25 14 15                            0.000787900
  -6006753.169 7  -4927318.990 5  22852967.171        2906.126
   5191233.688 8  -6716116.364 8  20659827.829       -1290.076
  -6452394.277 6  -5460775.064 5  22924793.822        3187.001
 92 10 21  2 45  0.0000000  0  3 25 14 15                            0.000788260
  -5919444.438 7  -4859286.191 5  22869581.885        2914.248
   5152744.843 8  -6746107.653 8  20652503.320       -1275.884
  -6356665.885 6  -5386181.480 5  22943010.805        3194.801
 92 10 21  2 45 30.0000000  0  3 25 14 15                            0.000788740
  -5831894.132 7  -4791065.167 5  22886242.503        2922.293
   5114691.933 9  -6775759.268 8  20645262.172       -1260.748
  -6260703.092 6  -5311405.303 5  22961271.882        3202.732
 92 10 21  2 46  0.0000000  0  3 25 14 15                            0.000789220
  -5744118.722 7  -4722668.760 5  22902945.270        2929.192
   5077096.414 8  -6805054.446 8  20638107.557       -1245.591
  -6164505.312 6  -5236445.993 5  22979577.928        3210.429
 92 10 21  2 46 30.0000000  0  3 25 14 15                            0.000789710
  -5656140.620 7  -4654114.380 5  22919686.453        2936.052
   5039952.450 9  -6833997.772 8  20631039.399       -1230.716
  -6068079.725 6  -5161309.189 5  22997927.154        3217.894
 92 10 21  2 47  0.0000000  0  3 25 14 15                            0.000790210
  -5567952.092 7  -4585396.069 5  22936467.435        2942.976
   5003260.294 9  -6862589.052 8  20624057.093       -1215.362
  -5971430.742 6  -5085998.270 5  23016318.212        3225.350
 92 10 21  2 47 30.0000000  0  3 25 14 15                            0.000790710
  -5479567.752 7  -4516525.121 5  22953286.891        2949.171
   4967031.586 9  -6890819.197 8  20617163.215       -1200.121
  -5874557.730 6  -5010512.837 5  23034752.522        3232.759
 92 10 21  2 48  0.0000000  0  3 25 14 15                            0.000791220
  -5391000.355 7  -4447511.555 5  22970141.101        2955.394
   4931248.837 9  -6918701.842 8  20610354.040       -1185.379
  -5777467.326 6  -4934858.036 5  23053228.070        3239.974
 92 10 21  2 48 30.0000000  0  3 25 14 15                            0.000791720
  -5302240.715 7  -4378348.207 5  22987032.308        2962.019
   4895910.319 9  -6946238.332 8  20603629.684       -1170.490
  -5680161.074 6  -4859034.935 5  23071744.751        3247.089
 92 10 21  2 49  0.0000000  0  3 25 14 15                            0.000792230
  -5213280.446 7  -4309028.537 5  23003961.698        2968.469
   4861021.271 9  -6973424.585 8  20596990.461       -1155.464
  -5582641.554 6  -4783045.708 5  23090302.663        3254.230
 92 10 21  2 49 30.0000000  0  4 25 18 14 15                         0.000792620
  -5124127.345 7  -4239558.571 5  23020926.247        2975.302
   -183591.80415   -133123.51611  24475292.054       -2606.300
   4826574.676 9  -7000266.070 8  20590435.569       -1141.044
  -5484912.601 6  -4706893.286 5  23108899.812        3261.075
 92 10 21  2 50  0.0000000  0  3 25 14 15                            0.000793300
  -5034758.871 7  -4169920.799 5  23037931.735        2982.532
   4792566.262 8  -7026766.122 8  20583963.798       -1126.019
  -5386975.812 6  -4630578.917 5  23127537.139        3268.005
 92 10 21  2 50 30.0000000  0  3 25 14 15                            0.000793830
  -4945170.092 7  -4100111.348 5  23054979.742        2990.031
   4759013.283 9  -7052911.281 8  20577578.849       -1110.750
  -5288835.844 6  -4554106.225 5  23146213.224        3274.642
 92 10 21  2 51  0.0000000  0  3 25 14 15                            0.000794370
  -4855351.862 7  -4030123.137 5  23072071.647        2997.700
   4725928.632 9  -7078691.506 8  20571283.217       -1094.848
  -5190494.771 6  -4477476.844 5  23164925.409        3281.410
 92 10 21  2 51 30.0000000  0  3 25 14 15                            0.000794910
  -4765303.100 7  -3959955.274 5  23089207.595        3005.497
   4693320.923 9  -7104100.107 8  20565078.184       -1078.815
  -5091956.001 6  -4400693.389 5  23183677.072        3287.919
 92 10 21  2 52  0.0000000  0  3 25 14 15                            0.000795390
  -4675026.215 7  -3889609.630 5  23106387.189        3012.704
   4661207.361 9  -7129123.650 8  20558966.913       -1062.045
  -4993221.623 6  -4323757.537 5  23202465.099        3294.327
 92 10 21  2 52 30.0000000  0  3 25 14 15                            0.000795940
  -4584536.110 6  -3819097.872 5  23123606.828        3019.811
   4629592.687 9  -7153758.425 8  20552951.079       -1045.590
  -4894301.103 6  -4246676.618 5  23221289.735        3300.417
 92 10 21  2 53  0.0000000  0  3 25 14 15                            0.000796630
  -4493839.120 7  -3748424.868 5  23140866.311        3026.388
   4598475.055 8  -7178005.926 8  20547029.098       -1028.976
  -4795194.537 6  -4169450.753 5  23240148.950        3306.727
 92 10 21  2 53 30.0000000  0  4 25 18 14 15                         0.000797050
  -4402954.082 7  -3677605.388 5  23158160.607        3032.333
    -10369.98315    -18186.37611  24356516.107       -2593.154
   4567845.598 9  -7201873.022 8  20541200.743       -1012.991
  -4695901.273 6  -4092079.354 5  23259043.819        3312.739
 92 10 21  2 54  0.0000000  0  4 25 18 14 15                         0.000797610
  -4311895.982 7  -3606651.012 5  23175489.010        3038.195
    -88138.856 5    -78784.892 1  24341714.575       -2591.387
   4537695.535 9  -7225366.559 8  20535462.876        -997.006
  -4596428.326 6  -4014567.942 5  23277973.314        3318.774
 92 10 21  2 54 30.0000000  0  4 25 18 14 15                         0.000798170
  -4220663.378 7  -3535560.673 5  23192850.563        3043.966
   -165853.746 5   -139341.784 2  24326924.205       -2589.591
   4508017.579 9  -7248492.217 8  20529816.004        -981.470
  -4496777.866 6  -3936918.279 5  23296935.267        3324.627
 92 10 21  2 55  0.0000000  0  4 25 18 14 15                         0.000798740
  -4129256.416 6  -3464334.449 5  23210243.954        3049.700
   -243517.044 5   -199858.559 3  24312147.150       -2587.855
   4478809.470 9  -7271251.776 8  20524258.093        -965.749
  -4396951.419 6  -3859131.454 5  23315931.738        3330.400
 92 10 21  2 55 30.0000000  0  4 25 18 14 15                         0.000799330
  -4037667.332 6  -3392966.312 5  23227672.060        3056.180
   -321115.014 5   -260324.367 3  24297380.848       -2585.453
   4450076.044 8  -7293641.456 8  20518789.838        -949.757
  -4296952.338 6  -3781210.087 5  23334960.273        3336.111
 92 10 21  2 56  0.0000000  0  4 25 18 14 15                         0.000799930
  -3945887.556 6  -3321449.643 5  23245136.437        3062.406
   -398641.624 5   -320734.409 3  24282630.692       -2582.988
   4421825.818 8  -7315654.589 8  20513414.080        -933.642
  -4196785.122 6  -3703157.703 5  23354021.489        3341.706
 92 10 21  2 56 30.0000000  0  4 25 18 14 15                         0.000800540
  -3853917.462 7  -3249784.641 5  23262637.221        3068.562
   -476097.682 5   -381089.652 4  24267890.687       -2580.990
   4394060.985 8  -7337289.520 8  20508130.448        -917.417
  -4096450.771 6  -3624975.110 5  23373116.516        3347.157
 92 10 21  2 57  0.0000000  0  4 25 18 14 15                         0.000801160
  -3761772.598 7  -3177983.430 5  23280173.083        3074.306
   -553496.039 5   -441399.934 4  24253163.215       -2578.921
   4366784.527 8  -7358543.894 8  20502939.670        -901.042
  -3995955.587 6  -3546667.186 5  23392239.234        3352.545
 92 10 21  2 57 30.0000000  0  4 25 18 14 15                         0.000801790
  -3669459.651 7  -3106051.266 5  23297740.357        3079.789
   -630832.206 5   -501661.592 4  24238445.372       -2577.034
   4339992.869 8  -7379420.488 8  20497841.320        -885.095
  -3895300.973 6  -3468235.053 5  23411392.750        3357.774
 92 10 21  2 58  0.0000000  0  4 25 18 14 15                         0.000802410
  -3576989.856 7  -3033996.865 5  23315336.962        3084.963
   -708121.525 5   -561886.885 4  24223736.869       -2575.576
   4313681.440 8  -7399922.890 8  20492834.356        -868.765
  -3794491.669 6  -3389682.345 5  23430575.748        3363.001
 92 10 21  2 58 30.0000000  0  4 25 18 14 15                         0.000803030
  -3484358.058 7  -2961816.263 5  23332963.914        3090.378
   -785369.522 6   -622079.992 5  24209036.999       -2574.223
   4287869.022 8  -7420036.457 8  20487922.586        -851.946
  -3693526.785 6  -3311008.394 5  23449788.793        3368.054
 92 10 21  2 59  0.0000000  0  4 25 18 14 15                         0.000803650
  -3391564.018 7  -2889509.183 5  23350622.217        3095.878
   -862577.586 5   -682242.032 5  24194345.219       -2572.846
   4262566.745 9  -7439752.510 8  20483107.990        -834.867
  -3592411.064 6  -3232216.927 5  23469030.349        3372.936
 92 10 21  2 59 30.0000000  0  4 25 18 14 15                         0.000804260
  -3298596.934 7  -2817067.295 5  23368313.764        3101.752
   -939740.720 5   -742368.839 4  24179661.189       -2571.452
   4237779.179 9  -7459067.477 8  20478391.233        -817.626
  -3491148.445 6  -3153310.984 5  23488301.077        3377.818
 92 10 21  3  0  0.0000000  0  4 25 18 14 15                         0.000804870
  -3205461.214 6  -2744494.032 5  23386036.390        3107.227
  -1016859.583 5   -802461.274 4  24164986.995       -2569.868
   4213519.532 9  -7477971.088 8  20473774.929        -799.732
  -3389742.231 6  -3074293.201 5  23507597.888        3382.482
 92 10 21  3  0 30.0000000  0  4 25 18 14 15                         0.000805460
  -3112163.314 6  -2671794.374 5  23403789.055        3112.489
  -1093936.036 6   -862520.743 5  24150319.373       -2568.513
   4189786.098 8  -7496464.656 8  20469258.557        -782.687
  -3288195.336 6  -2995165.746 5  23526920.759        3387.116
 92 10 21  3  1  0.0000000  0  4 25 18 14 15                         0.000806060
  -3018707.104 6  -2598971.364 5  23421573.340        3117.962
  -1170964.461 6   -922542.716 4  24135661.032       -2566.620
   4166558.289 9  -7514564.228 8  20464838.275        -765.926
  -3186512.076 6  -2915932.024 5  23546270.005        3391.768
 92 10 21  3  1 30.0000000  0  4 25 18 14 15                         0.000806680
  -2925086.899 6  -2526020.559 5  23439388.457        3123.284
  -1247929.346 5   -982515.062 3  24121013.790       -2564.373
   4143820.380 8  -7532282.067 8  20460511.283        -749.864
  -3084693.555 6  -2836592.937 5  23565645.625        3396.200
 92 10 21  3  2  0.0000000  0  4 25 18 14 15                         0.000807310
  -2831306.140 6  -2452944.699 5  23457233.836        3128.764
  -1324821.944 5  -1042431.266 4  24106381.083       -2561.810
   4121569.000 9  -7549620.806 8  20456276.574        -733.597
  -2982742.363 6  -2757150.479 5  23585044.439        3400.600
 92 10 21  3  2 30.0000000  0  4 25 18 14 15                         0.000807980
  -2737349.082 6  -2379731.394 5  23475112.983        3134.915
  -1401637.248 6  -1102287.254 4  24091764.064       -2559.039
   4099797.028 9  -7566585.963 8  20452133.902        -717.775
  -2880663.672 6  -2677608.651 5  23604470.802        3404.608
 92 10 21  3  3  0.0000000  0  4 25 18 14 15                         0.000808700
  -2643203.478 6  -2306371.208 5  23493029.244        3141.221
  -1478353.640 5  -1162066.085 4  24077165.744       -2555.484
   4078517.105 8  -7583167.705 8  20448084.527        -700.980
  -2778460.092 6  -2597969.515 5  23623920.185        3408.793
 92 10 21  3  3 30.0000000  0  4 25 18 14 15                         0.000809440
  -2548876.812 6  -2232869.892 5  23510979.717        3146.978
  -1554970.746 5  -1221767.390 4  24062585.922       -2552.447
   4057743.675 9  -7599354.791 8  20444131.691        -683.676
  -2676134.439 6  -2518235.279 5  23643393.292        3412.883
 92 10 21  3  4  0.0000000  0  4 25 18 14 15                         0.000810200
  -2454388.774 7  -2159242.799 5  23528960.038        3152.116
  -1631505.633 6  -1281404.858 4  24048022.408       -2549.995
   4037500.105 9  -7615128.999 8  20440279.739        -665.960
  -2573688.945 6  -2438407.633 5  23662887.592        3416.770
 92 10 21  3  4 30.0000000  0  4 25 18 14 15                         0.000810950
  -2359745.979 6  -2085495.164 5  23546969.701        3157.058
  -1707974.979 5  -1340991.233 4  24033471.048       -2547.927
   4017794.950 8  -7630483.652 8  20436529.574        -647.681
  -2471126.036 6  -2358488.480 5  23682405.034        3420.753
 92 10 21  3  5  0.0000000  0  4 25 18 14 15                         0.000811690
  -2264977.990 6  -2011650.032 5  23565002.899        3160.588
  -1784394.039 5  -1400538.464 4  24018928.579       -2546.799
   3998634.819 9  -7645413.612 8  20432883.328        -629.767
  -2368448.732 6  -2278480.162 5  23701942.957        3424.425
 92 10 21  3  5 30.0000000  0  4 25 18 14 15                         0.000812410
  -2170109.335 6  -1937726.384 5  23583056.247        3163.768
  -1860784.283 6  -1460062.955 3  24004391.546       -2545.871
   3980003.948 8  -7659931.183 8  20429338.032        -612.339
  -2265660.768 6  -2198385.641 5  23721502.986        3428.084
 92 10 21  3  6  0.0000000  0  4 25 18 14 15                         0.000813110
  -2075141.026 6  -1863725.110 5  23601128.006        3167.519
  -1937138.101 5  -1519559.367 4  23989861.419       -2544.402
   3961892.746 9  -7674043.791 8  20425891.479        -595.236
  -2162765.417 6  -2118207.456 5  23741083.521        3431.638
 92 10 21  3  6 30.0000000  0  4 25 18 14 15                         0.000813810
  -1980055.929 6  -1789632.855 5  23619220.742        3171.295
  -2013446.417 6  -1579020.235 5  23975340.298       -2542.726
   3944285.911 9  -7687763.390 8  20422540.879        -578.689
  -2059764.278 6  -2037946.850 5  23760683.809        3435.004
 92 10 21  3  7  0.0000000  0  4 25 18 14 15                         0.000814530
  -1884854.205 6  -1715449.683 5  23637336.028        3175.560
  -2089696.503 5  -1638435.773 4  23960830.741       -2540.477
   3927174.217 8  -7701097.177 8  20419284.693        -562.099
  -1956661.968 6  -1957607.369 5  23780303.527        3438.462
 92 10 21  3  7 30.0000000  0  4 25 18 14 15                         0.000815260
  -1789516.200 6  -1641160.347 5  23655478.821        3180.369
  -2165870.427 6  -1697792.150 4  23946334.716       -2537.721
   3910562.597 8  -7714041.281 8  20416123.412        -545.308
  -1853461.028 6  -1877191.036 5  23799942.512        3441.656
 92 10 21  3  8  0.0000000  0  4 25 18 14 15                         0.000816020
  -1694022.132 7  -1566749.377 5  23673652.249        3185.737
  -2241968.031 6  -1757088.896 5  23931853.364       -2535.504
   3894457.036 8  -7726591.054 8  20413058.664        -528.382
  -1750165.742 6  -1796701.231 5  23819597.488        3444.647
 92 10 21  3  8 30.0000000  0  4 25 18 14 15                         0.000816810
  -1598370.677 6  -1492215.757 5  23691855.391        3190.901
  -2318003.746 6  -1816337.343 5  23917382.626       -2533.360
   3878864.240 8  -7738741.290 8  20410091.729        -510.978
  -1646782.001 6  -1716142.498 5  23839270.815        3447.491
 92 10 21  3  9  0.0000000  0  4 25 18 14 15                         0.000817610
  -1502565.516 6  -1417562.400 5  23710086.389        3195.963
  -2393969.760 6  -1875531.633 4  23902927.796       -2531.090
   3863806.226 8  -7750474.811 8  20407226.250        -492.953
  -1543309.344 6  -1635514.473 5  23858962.087        3450.529
 92 10 21  3  9 30.0000000  0  4 25 18 14 15                         0.000818430
  -1406611.835 6  -1342793.272 5  23728345.058        3200.791
  -2469868.871 6  -1934673.758 4  23888485.657       -2529.086
   3849285.817 8  -7761789.389 8  20404462.873        -475.049
  -1439749.701 5  -1554818.661 5  23878667.283        3453.422
 92 10 21  3 10  0.0000000  0  4 25 18 14 15                         0.000819250
  -1310521.742 6  -1267917.878 5  23746631.182        3204.924
  -2545713.303 6  -1993773.243 5  23874052.800       -2527.255
   3835306.679 8  -7772682.227 8  20401803.156        -456.908
  -1336107.363 6  -1474058.381 5  23898388.606        3455.968
 92 10 21  3 10 30.0000000  0  4 25 18 14 15                         0.000820080
  -1214312.521 6  -1192949.666 5  23764939.574        3208.708
  -2621485.449 6  -2052816.324 5  23859634.063       -2524.306
   3821881.768 8  -7783143.200 8  20399248.436        -438.184
  -1232386.482 5  -1393236.943 5  23918127.719        3458.596
 92 10 21  3 11  0.0000000  0  4 25 18 14 15                         0.000820890
  -1118001.572 6  -1117902.155 5  23783265.789        3211.983
  -2697169.320 6  -2111790.684 5  23845232.567       -2521.125
   3809017.804 8  -7793167.052 8  20396800.649        -419.472
  -1128588.387 5  -1312355.343 5  23937880.099        3461.323
 92 10 21  3 11 30.0000000  0  4 25 18 14 15                         0.000821710
  -1021593.953 6  -1042779.365 5  23801609.750        3214.942
  -2772757.979 6  -2170690.932 5  23830848.625       -2518.242
   3796708.615 8  -7802758.630 8  20394458.150        -401.202
  -1024713.416 5  -1231413.807 5  23957644.528        3463.562
 92 10 21  3 12  0.0000000  0  4 25 18 14 15                         0.000822520
   -925100.963 6   -967590.021 5  23819971.647        3217.590
  -2848252.956 6  -2229518.149 5  23816482.412       -2514.847
   3784954.445 8  -7811917.708 8  20392221.528        -382.578
   -920769.894 5  -1150418.847 5  23977424.322        3465.840
 92 10 21  3 12 30.0000000  0  4 25 18 14 15                         0.000823330
   -828530.761 6   -892340.485 5  23838349.963        3220.240
  -2923650.409 6  -2288269.317 5  23802133.722       -2511.963
   3773755.681 9  -7820644.009 8  20390090.513        -364.094
   -816759.199 6  -1069371.558 5  23997217.655        3468.075
 92 10 21  3 13  0.0000000  0  4 25 18 14 15                         0.000824140
   -731880.925 6   -817028.978 5  23856742.543        3223.367
  -2998971.107 6  -2346960.681 5  23787800.450       -2509.569
   3763112.155 8  -7828937.655 8  20388065.016        -345.462
   -712684.917 6   -988274.733 5  24017023.792        3470.219
 92 10 21  3 13 30.0000000  0  4 25 18 14 15                         0.000824930
   -635125.510 6   -741635.180 5  23875153.973        3227.035
  -3074234.646 6  -2405607.511 5  23773476.698       -2508.051
   3753021.765 8  -7836800.300 8  20386144.736        -327.149
   -608549.492 6   -907130.265 5  24036840.490        3472.122
 92 10 21  3 14  0.0000000  0  4 25 18 14 15                         0.000825740
   -538250.653 6   -666148.305 5  23893587.238        3231.223
  -3149451.292 6  -2464217.870 5  23759163.828       -2506.572
   3743488.131 8  -7844229.100 8  20384330.761        -308.499
   -504356.126 6   -825940.606 5  24056669.614        3474.084
 92 10 21  3 14 30.0000000  0  4 25 18 14 15                         0.000826560
   -441239.789 6   -590555.416 5  23912048.128        3236.267
  -3224627.751 6  -2522796.882 5  23744858.068       -2505.108
   3734507.365 8  -7851227.078 8  20382621.365        -290.220
   -400107.192 6   -744707.700 5  24076506.632        3475.934
 92 10 21  3 15  0.0000000  0  4 25 18 14 15                         0.000827400
   -344070.435 6   -514839.039 5  23930539.962        3241.742
  -3299759.066 6  -2581340.664 5  23730560.062       -2503.609
   3726064.002 8  -7857806.328 8  20381014.178        -272.780
   -295803.590 6   -663432.149 5  24096353.858        3477.645
 92 10 21  3 15 30.0000000  0  4 25 18 14 15                         0.000828290
   -246736.235 6   -438994.208 5  23949062.581        3246.860
  -3374840.959 6  -2639845.934 5  23716274.184       -2501.760
   3718137.425 8  -7863982.863 8  20379505.392        -255.750
   -191448.987 6   -582116.880 5  24116212.474        3479.259
 92 10 21  3 16  0.0000000  0  4 25 18 14 15                         0.000829210
   -149260.127 6   -363038.797 5  23967611.320        3251.205
  -3449852.919 6  -2698296.911 5  23702001.472       -2499.135
   3710720.758 8  -7869762.079 8  20378094.558        -238.710
    -87047.057 6   -500764.698 5  24136080.009        3480.780
 92 10 21  3 16 30.0000000  0  4 25 18 14 15                         0.000830160
    -51663.238 6   -286989.265 5  23986182.970        3255.056
  -3524788.694 6  -2756688.322 5  23687741.912       -2496.564
   3703820.343 8  -7875139.025 8  20376781.697        -221.307
     17400.680 6   -419376.874 5  24155956.747        3482.292
 92 10 21  3 17  0.0000000  0  4 25 18 14 15                         0.000831130
     46040.369 6   -210856.591 5  24004775.840        3258.330
  -3599648.713 6  -2815020.697 5  23673495.928       -2494.144
   3697454.143 8  -7880099.692 8  20375570.145        -203.068
    121890.477 6   -337956.278 5  24175840.275        3483.641
 92 10 21  3 17 30.0000000  0  4 25 18 14 15                         0.000832100
    143827.941 6   -134658.476 5  24023383.867        3260.492
  -3674422.294 6  -2873285.825 5  23659267.163       -2490.795
   3691645.400 8  -7884625.985 8  20374464.821        -184.004
    226420.240 6   -256504.509 5  24195732.637        3484.973
 92 10 21  3 18  0.0000000  0  4 25 18 14 15                         0.000833070
    241674.761 6    -58414.189 5  24042004.495        3262.515
  -3749101.873 6  -2931477.682 5  23645055.449       -2488.021
   3686421.975 8  -7888696.173 8  20373470.620        -164.132
    330986.952 5   -175023.947 5  24215629.277        3486.116
 92 10 21  3 18 30.0000000  0  4 25 18 14 15                         0.000834020
    339588.183 6     17881.979 5  24060635.980        3265.036
  -3823712.127 6  -2989615.445 5  23630858.436       -2485.877
   3681799.114 8  -7892298.398 8  20372591.299        -144.156
    435586.188 5    -93518.078 5  24235534.914        3487.185
 92 10 21  3 19  0.0000000  0  4 25 18 14 15                         0.000834960
    437577.959 6     94237.687 5  24079283.064        3267.505
  -3898249.947 6  -3047696.780 5  23616675.234       -2483.199
   3677765.375 8  -7895441.571 8  20371823.369        -124.910
    540216.332 5    -11988.076 5  24255443.481        3488.099
 92 10 21  3 19 30.0000000  0  4 25 18 14 15                         0.000835900
    535641.080 6    170650.511 5  24097945.131        3269.951
  -3972707.808 6  -3105715.929 5  23602505.645       -2480.896
   3674301.064 8  -7898141.019 8  20371164.276        -106.055
    644874.473 5     69563.708 5  24275357.768        3488.940
 92 10 21  3 20  0.0000000  0  4 25 18 14 15                         0.000836850
    633795.443 6    247134.365 5  24116623.477        3273.701
  -4047107.213 6  -3163689.459 5  23588346.957       -2479.048
   3671405.122 8  -7900397.592 8  20370613.169         -87.101
    749556.048 5    151133.736 5  24295278.451        3489.950
 92 10 21  3 20 30.0000000  0  4 25 18 14 15                         0.000837810
    732060.377 6    323704.463 5  24135323.381        3277.141
  -4121450.627 6  -3221619.293 5  23574199.319       -2476.840
   3669062.451 8  -7902223.048 8  20370167.724         -69.107
    854258.184 5    232719.817 5  24315201.133        3490.350
 92 10 21  3 21  0.0000000  0  4 25 18 14 15                         0.000838800
    830422.509 6    400350.275 5  24154040.352        3280.314
  -4195710.303 6  -3279483.848 5  23560068.575       -2473.872
   3667259.984 8  -7903627.574 8  20369824.882         -50.850
    958977.275 5    314319.114 5  24335128.692        3490.868
 92 10 21  3 21 30.0000000  0  4 25 18 14 15                         0.000839800
    928877.145 6    477068.190 5  24172775.574        3283.139
  -4269889.115 6  -3337285.663 5  23545953.567       -2471.533
   3666015.713 8  -7904597.121 8  20369587.857         -32.078
   1063711.746 5    395930.373 5  24355059.253        3491.363
 92 10 21  3 22  0.0000000  0  4 25 18 14 15                         0.000840810
   1027410.287 6    553847.268 5  24191524.567        3285.493
  -4343993.865 6  -3395029.502 5  23531851.648       -2468.638
   3665327.996 9  -7905133.007 8  20369457.108         -13.800
   1168457.237 5    477550.193 5  24374991.034        3491.783
 92 10 21  3 22 30.0000000  0  4 25 18 14 15                         0.000841840
   1125994.951 6    630666.452 5  24210284.333        3286.602
  -4418007.669 6  -3452702.513 5  23517766.909       -2465.690
   3665181.755 8  -7905246.961 8  20369429.519           4.088
   1273211.302 6    559176.726 5  24394927.483        3491.838
 92 10 21  3 23  0.0000000  0  4 25 18 14 15                         0.000842860
   1224621.435 6    707518.252 5  24229053.734        3288.479
  -4491937.368 6  -3510310.223 5  23503698.718       -2463.209
   3665581.853 8  -7904935.186 8  20369505.676          22.614
   1377969.917 6    640806.816 5  24414861.064        3491.926
 92 10 21  3 23 30.0000000  0  4 25 18 14 15                         0.000843890
   1323305.903 6    784415.293 5  24247831.291        3290.436
  -4565806.119 6  -3567870.196 5  23489641.940       -2461.346
   3666531.146 8  -7904195.482 8  20369686.270          40.558
   1482728.147 6    722436.573 5  24434797.651        3491.794
 92 10 21  3 24  0.0000000  0  4 25 18 14 15                         0.000844930
   1422060.781 6    861367.124 5  24266623.904        3293.097
  -4639612.303 6  -3625381.433 5  23475597.192       -2459.039
   3668020.550 8  -7903034.899 8  20369969.463          58.969
   1587483.965 6    804064.465 5  24454732.642        3491.863
 92 10 21  3 24 30.0000000  0  4 25 18 14 15                         0.000845980
   1520903.484 6    938387.415 5  24285433.898        3296.485
  -4713350.633 6  -3682839.892 5  23461564.376       -2456.780
   3670077.912 8  -7901431.766 8  20370360.873          78.274
   1692236.137 6    885689.523 5  24474667.020        3491.695
 92 10 21  3 25  0.0000000  0  4 25 18 14 15                         0.000847050
   1619852.320 6   1015490.393 5  24304263.665        3300.044
  -4787023.718 6  -3740247.459 5  23447544.025       -2454.535
   3672715.045 8  -7899376.846 8  20370862.576          97.702
   1796979.559 6    967307.804 5  24494599.416        3491.332
 92 10 21  3 25 30.0000000  0  4 25 18 14 15                         0.000848140
   1718897.532 6   1092668.495 5  24323111.656        3302.738
  -4860622.395 6  -3797597.020 5  23433539.630       -2451.979
   3675933.784 8  -7896868.739 8  20371475.230         116.889
   1901715.161 6   1048919.975 5  24514529.835        3490.962
 92 10 21  3 26  0.0000000  0  4 25 18 14 15                         0.000849230
   1818010.995 6   1169899.769 5  24341971.144        3304.568
  -4934135.702 6  -3854880.055 5  23419551.464       -2448.964
   3679741.964 8  -7893901.329 8  20372199.970         136.991
   2006439.191 6   1130523.146 5  24534458.878        3490.534
 92 10 21  3 26 30.0000000  0  4 25 18 14 15                         0.000850320
   1917179.052 6   1247173.550 5  24360841.880        3306.537
  -5007557.395 6  -3912091.786 5  23405579.604       -2445.824
   3684142.205 8  -7890472.550 8  20373037.361         156.173
   2111150.846 5   1212116.569 5  24554383.182        3490.118
 92 10 21  3 27  0.0000000  0  4 25 18 14 15                         0.000851410
   2016393.265 6   1324483.291 5  24379720.874        3307.778
  -5080890.352 6  -3969234.268 5  23391624.374       -2442.912
   3689109.451 8  -7886601.977 8  20373982.674         175.237
   2215845.050 5   1293696.488 5  24574305.819        3489.601
 92 10 21  3 27 30.0000000  0  4 25 18 14 15                         0.000852510
   2115642.717 6   1401820.518 5  24398607.233        3309.024
  -5154132.909 6  -4026306.365 5  23377686.155       -2439.933
   3694651.800 8  -7882283.265 8  20375037.237         194.244
   2320519.849 5   1375261.337 5  24594224.002        3488.778
 92 10 21  3 28  0.0000000  0  4 25 18 14 15                         0.000853620
   2214946.935 6   1479200.446 5  24417503.976        3311.292
  -5227285.869 6  -4083308.676 5  23363765.204       -2436.972
   3700764.255 8  -7877520.309 8  20376200.411         213.176
   2425172.254 5   1456808.562 5  24614139.285        3488.020
 92 10 21  3 28 30.0000000  0  4 25 18 14 15                         0.000854760
   2314330.293 6   1556642.075 5  24436416.635        3314.197
  -5300348.195 6  -4140240.309 5  23349862.855       -2433.798
   3707439.226 8  -7872319.027 8  20377470.403         231.978
   2529798.092 5   1538335.143 5  24634048.715        3487.052
 92 10 21  3 29  0.0000000  0  4 25 18 14 15                         0.000855920
   2413796.507 6   1634148.125 5  24455344.925        3316.802
  -5373315.225 6  -4197097.656 5  23335977.660       -2430.826
   3714694.552 8  -7866665.529 8  20378850.885         251.667
   2634397.408 5   1619841.062 5  24653953.971        3486.153
 92 10 21  3 29 30.0000000  0  4 25 18 14 15                         0.000857090
   2513344.339 6   1711717.881 5  24474287.697        3319.769
  -5446198.743 6  -4253889.983 5  23322107.593       -2428.089
   3722530.036 8  -7860559.969 8  20380341.584         270.674
   2738965.633 5   1701322.859 5  24673854.908        3485.104
 92 10 21  3 30  0.0000000  0  4 25 18 14 15                         0.000858280
   2612976.757 6   1789353.545 5  24493248.037        3322.188
  -5519001.452 6  -4310619.375 5  23308253.730       -2425.382
   3730940.350 8  -7854006.448 8  20381942.296         290.114
   2843500.340 5   1782778.502 5  24693744.886        3483.861
 92 10 21  3 30 30.0000000  0  4 25 18 14 15                         0.000859480
   2712671.320 6   1867037.596 5  24512219.484        3323.893
  -5591722.610 6  -4367285.139 5  23294415.674       -2422.796
   3739944.008 8  -7846990.618 8  20383655.640         309.984
   2947997.279 5   1864204.639 4  24713630.510        3482.510
 92 10 21  3 31  0.0000000  0  4 25 18 14 15                         0.000860680
   2812404.626 6   1944751.876 5  24531197.734        3324.917
  -5664372.256 6  -4423895.232 5  23280590.146       -2420.665
   3749537.470 9  -7839515.196 8  20385481.954         329.380
   3052455.011 5   1945600.237 4  24733507.143        3481.148
 92 10 21  3 31 30.0000000  0  4 25 18 14 15                         0.000861880
   2912176.010 6   2022495.783 5  24550183.530        3326.307
  -5736954.286 6  -4480452.664 5  23266778.513       -2417.894
   3759707.746 8  -7831590.299 8  20387417.533         348.848
   3156869.632 5   2026962.352 4  24753375.357        3479.875
 92 10 21  3 32  0.0000000  0  4 25 18 14 15                         0.000863090
   3011977.240 6   2100262.973 5  24569175.563        3327.007
  -5809443.922 6  -4536938.002 5  23252984.948       -2414.812
   3770467.646 8  -7823205.962 8  20389464.709         368.332
   3261238.901 5   2108289.011 4  24773237.146        3478.096
 92 10 21  3 32 30.0000000  0  4 25 18 14 15                         0.000864300
   3111805.820 5   2178051.487 5  24588171.057        3328.213
  -5881839.344 6  -4593349.956 5  23239206.962       -2411.648
   3781809.063 8  -7814368.491 8  20391622.992         387.510
   3365560.112 6   2189578.295 4  24793087.573        3476.553
 92 10 21  3 33  0.0000000  0  4 25 18 14 15                         0.000865520
   3211673.120 5   2255870.171 5  24607175.616        3329.630
  -5954139.978 6  -4649688.148 5  23225448.887       -2408.299
   3793716.726 8  -7805089.802 8  20393888.852         406.437
   3469830.705 6   2270828.053 5  24812929.746        3474.709
 92 10 21  3 33 30.0000000  0  4 25 18 14 15                         0.000866770
   3311590.216 5   2333727.697 5  24626187.742        3331.288
  -6026332.402 6  -4705941.945 5  23211711.496       -2404.398
   3806202.346 8  -7795360.736 8  20396264.660         426.021
   3574044.198 6   2352033.410 5  24832761.962        3472.920
 92 10 21  3 34  0.0000000  0  4 25 18 14 15                         0.000868030
   3411553.021 5   2411620.700 4  24645209.727        3332.840
  -6098409.408 6  -4762105.764 5  23197995.871       -2400.887
   3819272.589 8  -7785176.138 8  20398751.908         445.322
   3678202.402 5   2433195.672 5  24852583.564        3471.073
 92 10 21  3 34 30.0000000  0  4 25 18 14 15                         0.000869300
   3511562.018 5   2489549.864 4  24664240.695        3334.342
  -6170391.163 6  -4818195.415 5  23184298.088       -2397.936
   3832924.851 8  -7774538.012 8  20401350.297         464.907
   3782302.989 5   2514313.002 5  24872393.232        3469.045
 92 10 21  3 35  0.0000000  0  4 25 18 14 15                         0.000870580
   3611610.188 5   2567509.453 4  24683281.115        3335.441
  -6242287.780 6  -4874218.760 5  23170616.817       -2395.199
   3847168.396 8  -7763439.145 8  20404060.683         484.809
   3886341.533 5   2595381.990 5  24892191.065        3466.881
 92 10 21  3 35 30.0000000  0  4 25 18 14 15                         0.000871860
   3711682.255 5   2645487.722 4  24702324.985        3335.834
  -6314110.270 6  -4930184.258 5  23156950.185       -2393.029
   3862005.286 8  -7751877.921 8  20406884.159         504.182
   3990314.374 5   2676399.712 5  24911976.106        3464.556
 92 10 21  3 36  0.0000000  0  4 25 18 14 15                         0.000873140
   3811769.671 5   2723477.973 4  24721370.650        3336.564
  -6385871.338 6  -4986101.921 5  23143293.553       -2391.190
   3877415.928 8  -7739869.636 8  20409816.279         523.200
   4094219.476 5   2757364.729 5  24931748.041        3462.356
 92 10 21  3 36 30.0000000  0  4 25 18 14 15                         0.000874420
   3911875.836 5   2801482.942 3  24740419.762        3336.921
  -6457582.849 6  -5041981.035 5  23129646.748       -2389.640
   3893399.467 8  -7727414.940 8  20412857.692         542.169
   4198053.798 5   2838274.607 5  24951507.761        3459.804
 92 10 21  3 37  0.0000000  0  4 25 18 14 15                         0.000875710
   4011996.888 6   2879499.555 3  24759472.482        3337.577
  -6529235.745 7  -5097814.418 5  23116012.989       -2387.110
   3909951.427 8  -7714517.290 8  20416007.444         561.343
   4301810.656 5   2919124.099 5  24971252.981        3457.449
 92 10 21  3 37 30.0000000  0  4 25 18 14 15                         0.000876990
   4112133.774 6   2957528.336 4  24778528.369        3338.137
  -6600807.913 6  -5153584.864 5  23102393.108       -2384.216
   3927071.695 8  -7701176.826 8  20419265.387         580.165
   4405490.522 5   2999913.507 5  24990981.961        3454.707
 92 10 21  3 38  0.0000000  0  4 25 18 14 15                         0.000878290
   4212290.569 6   3035572.630 4  24797587.569        3338.701
  -6672282.653 6  -5209279.446 5  23088791.791       -2380.846
   3944770.025 8  -7687385.931 8  20422633.095         599.770
   4509092.370 5   3080642.237 5  25010695.876        3451.962
 92 10 21  3 38 30.0000000  0  3 25 18 14                            0.000879630
   4312458.655 6   3113625.612 4  24816648.340        3339.111
  -6743656.377 6  -5264895.338 5  23075209.307       -2377.373
   3963061.709 8  -7673132.672 8  20426113.956         619.604
 92 10 21  3 39  0.0000000  0  3 25 18 14                            0.000880970
   4412645.626 6   3191693.407 5  24835713.205        3339.907
  -6814925.763 6  -5320429.852 5  23061645.764       -2373.892
   3981944.356 8  -7658418.913 8  20429707.128         639.362
 92 10 21  3 39 30.0000000  0  3 25 18 14                            0.000882310
   4512860.725 6   3269783.098 5  24854783.927        3341.111
  -6886094.065 6  -5375885.661 5  23048103.310       -2370.567
   4001412.519 8  -7643248.924 8  20433411.993         658.644
 92 10 21  3 40  0.0000000  0  3 25 18 14                            0.000883680
   4613124.087 6   3347910.422 5  24873863.692        3342.948
  -6957163.009 6  -5431264.042 5  23034579.163       -2367.628
   4021459.084 8  -7627628.234 8  20437226.713         677.562
 92 10 21  3 40 30.0000000  0  2 18 14                               0.000885030
  -7028152.804 6  -5486580.698 5  23021070.275       -2364.961
   4042064.882 8  -7611571.749 8  20441147.618         696.195
 92 10 21  3 41  0.0000000  0  2 18 14                               0.000886400
  -7099057.548 6  -5541831.102 5  23007578.866       -2361.840
   4063226.413 8  -7595082.253 8  20445174.531         714.732
 92 10 21  3 41 30.0000000  0  2 18 14                               0.000887780
  -7169858.092 6  -5597000.325 5  22994105.962       -2358.296
   4084946.484 8  -7578157.536 8  20449307.890         733.402
 92 10 21  3 42  0.0000000  0  2 18 14                               0.000889170
  -7240558.326 7  -5652091.413 5  22980652.677       -2355.197
   4107239.934 8  -7560786.016 8  20453549.871         752.743
 92 10 21  3 42 30.0000000  0  2 18 14                               0.000890550
  -7311161.885 7  -5707107.116 5  22967217.438       -2351.698
   4130120.325 8  -7542957.133 8  20457903.828         772.582
 92 10 21  3 43  0.0000000  0  2 18 14                               0.000891960
  -7381652.825 7  -5762035.061 5  22953803.120       -2347.850
   4153600.578 8  -7524660.835 8  20462372.015         792.691
 92 10 21  3 43 30.0000000  0  2 18 14                               0.000893360
  -7452039.184 7  -5816881.609 5  22940409.187       -2344.740
   4177681.712 8  -7505896.323 8  20466954.381         812.687
 92 10 21  3 44  0.0000000  0  3 18 14 19                            0.000894910
  -7522333.908 7  -5871656.657 5  22927032.594       -2341.490
   4202364.059 8  -7486663.327 8  20471651.432         832.678
    -76827.75315   -164655.16811  23798840.138       -2870.843
 92 10 21  3 44 30.0000000  0  3 18 14 19                            0.000896280
  -7592532.343 6  -5926356.706 5  22913672.808       -2338.363
   4227638.603 8  -7466968.883 8  20476461.351         852.286
   -162837.358 5   -231675.753 2  23782472.895       -2862.990
 92 10 21  3 45  0.0000000  0  3 18 14 19                            0.000897680
  -7662641.134 7  -5980986.917 5  22900331.228       -2335.503
   4253500.797 8  -7446816.518 8  20481382.653         871.892
   -248604.530 5   -298507.215 3  23766150.999       -2854.705
 92 10 21  3 45 30.0000000  0  3 18 14 19                            0.000899080
  -7732672.571 7  -6035556.829 5  22887005.178       -2333.225
   4279939.016 8  -7426215.315 8  20486413.830         890.672
   -334130.959 5   -365151.305 4  23749875.835       -2847.096
 92 10 21  3 46  0.0000000  0  3 18 14 19                            0.000900500
  -7802633.158 7  -6090071.490 5  22873691.485       -2330.957
   4306946.692 9  -7405170.373 8  20491553.381         909.706
   -419422.927 5   -431612.456 5  23733644.852       -2839.056
 92 10 21  3 46 30.0000000  0  3 18 14 19                            0.000901930
  -7872531.224 7  -6144537.505 5  22860390.630       -2328.791
   4334525.939 8  -7383680.052 8  20496801.500         928.977
   -504475.219 5   -497886.897 5  23717458.563       -2831.012
 92 10 21  3 47  0.0000000  0  3 18 14 19                            0.000903370
  -7942362.782 7  -6198951.690 5  22847103.077       -2326.618
   4362678.207 8  -7361743.232 8  20502158.630         947.800
   -589295.578 5   -563980.725 5  23701318.263       -2823.628
 92 10 21  3 47 30.0000000  0  3 18 14 19                            0.000904810
  -8012121.258 7  -6253308.894 5  22833829.219       -2323.763
   4391398.078 8  -7339364.118 8  20507623.688         967.042
   -673887.884 5   -629896.752 5  23685221.083       -2815.765
 92 10 21  3 48  0.0000000  0  3 18 14 19                            0.000906270
  -8081787.336 7  -6307594.129 5  22820571.796       -2320.881
   4420705.968 8  -7316526.799 8  20513200.827         986.366
   -758249.093 5   -695632.715 5  23669168.594       -2808.630
 92 10 21  3 48 30.0000000  0  3 18 14 19                            0.000907780
  -8151338.851 7  -6361790.073 5  22807337.091       -2316.070
   4450596.707 8  -7293235.319 8  20518888.809        1006.063
   -842386.019 5   -761193.924 5  23653156.768       -2800.638
 92 10 21  3 49  0.0000000  0  3 18 14 19                            0.000909230
  -8220746.377 7  -6415873.813 5  22794129.551       -2311.123
   4481065.704 8  -7269493.262 8  20524686.815        1025.250
   -926289.662 5   -826573.379 5  23637190.858       -2792.781
 92 10 21  3 49 30.0000000  0  3 18 14 19                            0.000910690
  -8290011.349 7  -6469846.466 5  22780947.717       -2306.617
   4512112.612 8  -7245300.848 8  20530594.904        1044.569
  -1009949.221 5   -891762.597 5  23621267.609       -2784.597
 92 10 21  3 50  0.0000000  0  3 18 14 19                            0.000912180
  -8359151.953 7  -6523722.242 5  22767790.417       -2302.849
   4543728.059 8  -7220665.445 8  20536610.870        1062.957
  -1093359.353 5   -956757.417 5  23605396.290       -2775.963
 92 10 21  3 50 30.0000000  0  3 18 14 19                            0.000913690
  -8428189.222 7  -6577517.508 5  22754652.821       -2299.806
   4575882.793 8  -7195609.830 8  20542729.863        1080.732
  -1176511.818 5  -1021551.574 5  23589573.994       -2767.448
 92 10 21  3 51  0.0000000  0  3 18 14 19                            0.000915220
  -8497145.537 7  -6631249.637 5  22741531.576       -2297.185
   4608584.969 8  -7170127.611 8  20548952.866        1099.537
  -1259403.560 5  -1086142.525 5  23573801.391       -2758.645
 92 10 21  3 51 30.0000000  0  3 18 14 19                            0.000916760
  -8566031.464 7  -6684926.981 5  22728422.333       -2295.094
   4641850.538 8  -7144206.382 8  20555283.093        1118.156
  -1342042.145 5  -1150536.134 5  23558075.590       -2750.695
 92 10 21  3 52  0.0000000  0  3 18 14 19                            0.000918300
  -8634841.724 7  -6738545.366 5  22715327.746       -2292.095
   4675672.421 8  -7117851.687 8  20561719.017        1136.716
  -1424449.921 5  -1214749.973 5  23542395.115       -2743.164
 92 10 21  3 52 30.0000000  0  3 18 14 19                            0.000919830
  -8703554.825 7  -6792087.978 5  22702252.597       -2288.584
   4710063.498 8  -7091053.450 8  20568263.177        1156.219
  -1506641.974 5  -1278795.769 5  23526753.337       -2736.123
 92 10 21  3 53  0.0000000  0  3 18 14 19                            0.000921350
  -8772153.900 7  -6845541.797 5  22689198.926       -2284.521
   4745048.908 8  -7063792.081 8  20574921.049        1176.194
  -1588620.489 5  -1342675.011 5  23511152.134       -2729.160
 92 10 21  3 53 30.0000000  0  3 18 14 19                            0.000922860
  -8840619.776 7  -6898891.836 5  22676169.715       -2280.042
   4780629.342 8  -7036067.084 8  20581691.841        1195.679
  -1670387.145 5  -1406389.357 5  23495593.080       -2722.075
 92 10 21  3 54  0.0000000  0  3 18 14 19                            0.000924370
  -8908953.749 7  -6952139.009 5  22663165.619       -2275.733
   4816793.660 8  -7007887.103 8  20588574.107        1215.359
  -1751929.009 5  -1469928.422 5  23480076.575       -2714.079
 92 10 21  3 54 30.0000000  0  3 18 14 19                            0.000925880
  -8977171.277 7  -7005295.475 5  22650184.145       -2272.092
   4853545.992 8  -6979248.926 8  20595567.706        1234.773
  -1833226.776 5  -1533277.278 5  23464605.956       -2705.736
 92 10 21  3 55  0.0000000  0  3 18 14 19                            0.000927400
  -9045287.197 7  -7058372.836 5  22637222.037       -2269.002
   4890874.912 8  -6950161.445 8  20602671.027        1253.802
  -1914277.573 5  -1596433.772 5  23449182.446       -2697.736
 92 10 21  3 55 30.0000000  0  3 18 14 19                            0.000928930
  -9113315.418 7  -7111381.809 5  22624277.149       -2266.324
   4928763.179 8  -6920638.137 8  20609880.886        1272.039
  -1995085.302 5  -1659400.815 5  23433805.452       -2689.380
 92 10 21  3 56  0.0000000  0  3 18 14 19                            0.000930470
  -9181265.398 7  -7164329.804 5  22611346.492       -2263.499
   4967205.469 8  -6890683.116 8  20617196.091        1290.846
  -2075637.519 5  -1722168.738 5  23418477.050       -2680.808
 92 10 21  3 56 30.0000000  0  3 18 14 19                            0.000932010
  -9249118.380 7  -7217202.255 5  22598434.728       -2259.905
   5006211.986 8  -6860288.422 8  20624618.843        1309.734
  -2155935.278 5  -1784738.424 5  23403196.249       -2672.350
 92 10 21  3 57  0.0000000  0  3 18 14 19                            0.000933570
  -9316861.013 7  -7269988.725 5  22585545.100       -2256.188
   5045787.978 8  -6829449.976 8  20632150.109        1328.746
  -2235990.588 5  -1847119.158 5  23387963.055       -2664.449
 92 10 21  3 57 30.0000000  0  3 18 14 19                            0.000935130
  -9384482.564 7  -7322680.791 5  22572677.380       -2251.879
   5085932.190 8  -6798168.786 8  20639789.482        1347.679
  -2315798.363 5  -1909307.001 5  23372776.468       -2656.104
 92 10 21  3 58  0.0000000  0  3 18 14 19                            0.000936690
  -9451975.342 7  -7375272.542 5  22559833.032       -2247.659
   5126653.034 8  -6766438.286 8  20647538.536        1367.043
  -2395364.624 5  -1971306.610 5  23357635.153       -2648.431
 92 10 21  3 58 30.0000000  0  3 18 14 19                            0.000938100
  -9519340.765 7  -7427765.079 5  22547013.889       -2243.523
   5167951.894 8  -6734257.347 8  20655397.596        1386.094
  -2474706.092 5  -2033131.191 5  23342537.600       -2641.013
 92 10 21  3 59  0.0000000  0  3 18 14 19                            0.000939640
  -9586583.813 7  -7480162.201 5  22534217.087       -2239.324
   5209816.698 8  -6701635.420 8  20663363.871        1404.770
  -2553815.098 5  -2094774.506 5  23327483.263       -2632.913
 92 10 21  3 59 30.0000000  0  3 18 14 19                            0.000941200
  -9653700.872 7  -7532461.201 5  22521446.216       -2235.118
   5252238.362 8  -6668579.589 8  20671436.483        1423.416
  -2632667.329 5  -2156217.819 5  23312477.920       -2624.048
 92 10 21  4  0  0.0000000  0  3 18 14 19                            0.000942780
  -9720690.658 7  -7584661.029 5  22508698.034       -2230.783
   5295221.083 8  -6635086.569 8  20679615.742        1442.006
  -2711253.786 5  -2217453.982 5  23297523.481       -2614.907
 92 10 21  4  0 30.0000000  0  3 18 14 19                            0.000944380
  -9787544.224 7  -7636754.683 5  22495975.959       -2226.243
   5338760.146 8  -6601160.021 8  20687900.674        1460.551
  -2789556.280 5  -2278468.849 5  23282623.262       -2605.257
 92 10 21  4  1  0.0000000  0  3 18 14 19                            0.000946010
  -9854265.383 7  -7688745.172 5  22483279.789       -2221.908
   5382858.128 8  -6566797.968 8  20696291.948        1479.425
  -2867568.666 5  -2339257.732 5  23267777.331       -2595.712
 92 10 21  4  1 30.0000000  0  3 18 14 19                            0.000947650
  -9920872.802 7  -7740647.061 5  22470604.933       -2218.507
   5427520.673 8  -6531995.996 8  20704791.212        1498.282
  -2945310.341 5  -2399835.644 5  23252983.153       -2587.200
 92 10 21  4  2  0.0000000  0  3 18 14 19                            0.000949310
  -9987377.635 7  -7792468.957 5  22457949.435       -2215.355
   5472756.641 8  -6496747.192 8  20713399.303        1517.416
  -3022806.143 5  -2460221.941 5  23238237.762       -2579.199
 92 10 21  4  2 30.0000000  0  3 18 14 19                            0.000950960
 -10053795.792 7  -7844223.343 5  22445310.866       -2212.584
   5518566.467 8  -6461051.223 8  20722116.627        1536.465
  -3100064.117 5  -2520422.910 5  23223536.331       -2571.498
 92 10 21  4  3  0.0000000  0  3 18 14 19                            0.000952580
 -10120126.811 7  -7895909.856 5  22432687.473       -2209.370
   5564943.004 8  -6424913.669 8  20730941.958        1555.149
  -3177092.730 5  -2580445.251 5  23208876.311       -2563.834
 92 10 21  4  3 30.0000000  0  3 18 14 19                            0.000954210
 -10186348.535 7  -7947511.163 5  22420085.876       -2205.224
   5611880.496 8  -6388339.016 7  20739873.863        1574.097
  -3253885.322 5  -2640283.550 5  23194263.539       -2555.590
 92 10 21  4  4  0.0000000  0  3 18 14 19                            0.000955850
 -10252438.436 7  -7999009.760 5  22407509.813       -2200.652
   5659380.958 8  -6351325.672 8  20748913.226        1592.457
  -3330430.204 5  -2699928.884 5  23179698.415       -2547.283
 92 10 21  4  4 30.0000000  0  3 18 14 19                            0.000957480
 -10318378.164 7  -8050391.332 5  22394961.300       -2195.266
   5707422.570 8  -6313890.652 8  20758055.347        1610.231
  -3406725.325 5  -2759379.658 5  23165179.542       -2539.055
 92 10 21  4  5  0.0000000  0  3 18 14 19                            0.000959110
 -10384149.847 7  -8101641.997 5  22382446.144       -2189.669
   5756002.749 8  -6276035.964 8  20767299.818        1628.382
  -3482766.359 6  -2818632.341 5  23150709.301       -2530.243
 92 10 21  4  5 30.0000000  0  3 18 14 19                            0.000960760
 -10449767.192 7  -8152772.355 5  22369959.091       -2185.053
   5805129.554 8  -6237755.366 8  20776648.654        1646.661
  -3558543.842 6  -2877679.675 5  23136289.531       -2521.621
 92 10 21  4  6  0.0000000  0  3 18 14 19                            0.000962410
 -10515257.159 7  -8203803.470 5  22357497.415       -2180.997
   5854791.555 8  -6199057.698 8  20786098.825        1664.343
  -3634061.271 6  -2936524.479 5  23121918.848       -2512.822
 92 10 21  4  6 30.0000000  0  3 18 14 19                            0.000964070
 -10580631.650 7  -8254744.623 5  22345057.060       -2177.455
   5904994.387 8  -6159938.620 8  20795651.901        1682.695
  -3709306.135 6  -2995156.781 5  23107600.972       -2503.526
 92 10 21  4  7  0.0000000  0  3 18 14 19                            0.000965760
 -10645911.035 7  -8305611.639 5  22332634.358       -2174.648
   5955757.567 8  -6120382.902 8  20805311.645        1701.353
  -3784262.413 6  -3053564.215 5  23093335.888       -2493.746
 92 10 21  4  7 30.0000000  0  3 18 14 19                            0.000967480
 -10711102.242 7  -8356409.968 5  22320228.880       -2171.390
   6007079.126 8  -6080392.096 7  20815077.540        1719.998
  -3858927.152 6  -3111744.512 5  23079128.102       -2484.037
 92 10 21  4  8  0.0000000  0  3 18 14 19                            0.000969220
 -10776183.215 7  -8407122.428 5  22307844.760       -2167.295
   6058965.423 8  -6039961.201 7  20824951.566        1739.193
  -3933300.137 6  -3169697.466 5  23064975.729       -2474.127
 92 10 21  4  8 30.0000000  0  3 18 14 19                            0.000970800
 -10841140.808 7  -8457738.678 5  22295483.858       -2163.067
   6111426.412 8  -5999082.511 8  20834934.657        1758.125
  -4007383.798 6  -3227424.952 5  23050878.349       -2464.784
 92 10 21  4  9  0.0000000  0  3 18 14 19                            0.000972580
 -10905964.238 7  -8508250.401 5  22283147.798       -2158.485
   6164448.884 8  -5957766.330 8  20845024.020        1776.576
  -4081192.566 5  -3284938.280 5  23036832.149       -2455.955
 92 10 21  4  9 30.0000000  0  3 18 14 19                            0.000974350
 -10970649.693 7  -8558654.670 5  22270838.538       -2153.870
   6218018.755 8  -5916023.582 8  20855218.533        1794.884
  -4154751.279 5  -3342256.732 5  23022834.345       -2447.999
 92 10 21  4 10  0.0000000  0  3 18 14 19                            0.000976120
 -11035198.248 7  -8608952.208 6  22258555.691       -2149.275
   6272144.144 8  -5873847.952 8  20865518.152        1813.570
  -4228070.971 6  -3399388.905 5  23008882.809       -2439.753
 92 10 21  4 10 30.0000000  0  3 18 14 19                            0.000977880
 -11099609.500 7  -8659142.762 6  22246298.329       -2144.814
   6326821.858 8  -5831241.941 7  20875923.029        1831.557
  -4301146.041 6  -3456330.515 5  22994977.089       -2431.879
 92 10 21  4 11  0.0000000  0  3 18 14 19                            0.000979630
 -11163891.191 7  -8709232.394 6  22234066.186       -2140.542
   6382040.678 8  -5788214.312 7  20886430.775        1849.739
  -4373981.521 6  -3513085.426 5  22981117.187       -2423.669
 92 10 21  4 11 30.0000000  0  3 18 14 19                            0.000981380
 -11228043.605 7  -8759221.268 6  22221857.688       -2136.215
   6437803.694 8  -5744762.612 7  20897041.930        1867.879
  -4446562.867 6  -3569642.296 5  22967305.692       -2414.987
 92 10 21  4 12  0.0000000  0  3 18 14 19                            0.000983130
 -11292065.059 7  -8809108.100 6  22209675.531       -2131.940
   6494101.798 8  -5700893.961 7  20907755.431        1885.054
  -4518874.802 6  -3625989.196 5  22953545.633       -2405.885
 92 10 21  4 12 30.0000000  0  3 18 14 19                            0.000984900
 -11355953.689 7  -8858891.454 6  22197517.738       -2127.438
   6550907.144 8  -5656630.078 7  20918565.660        1901.862
  -4590916.637 6  -3682125.733 5  22939835.293       -2396.956
 92 10 21  4 13  0.0000000  0  3 18 14 19                            0.000986660
 -11419719.954 7  -8908579.413 6  22185383.509       -2123.331
   6608209.497 8  -5611978.885 7  20929469.410        1918.389
  -4662696.848 5  -3738058.283 5  22926175.298       -2388.305
 92 10 21  4 13 30.0000000  0  3 18 14 19                            0.000988430
 -11483353.181 7  -8958163.703 6  22173273.902       -2118.810
   6666005.354 8  -5566943.156 7  20940467.547        1934.942
  -4734219.487 6  -3793790.172 5  22912565.036       -2379.787
 92 10 21  4 14  0.0000000  0  3 18 14 19                            0.000990200
 -11546844.338 7  -9007637.317 6  22161190.837       -2113.921
   6724303.487 8  -5521516.056 7  20951561.356        1951.688
  -4805486.918 6  -3849323.261 5  22899003.469       -2371.400
 92 10 21  4 14 30.0000000  0  3 18 14 19                            0.000991960
 -11610181.101 7  -9056990.657 6  22149138.970       -2108.630
   6783116.536 8  -5475687.713 7  20962753.218        1969.162
  -4876504.661 6  -3904661.748 5  22885488.991       -2363.082
 92 10 21  4 15  0.0000000  0  3 18 14 19                            0.000993720
 -11673351.114 7  -9106214.014 6  22137118.262       -2102.693
   6842460.224 8  -5429445.889 7  20974045.871        1987.176
  -4947260.042 6  -3959795.793 5  22872025.488       -2353.962
 92 10 21  4 15 30.0000000  0  3 18 14 19                            0.000995500
 -11736344.625 8  -9155299.866 6  22125131.381       -2096.993
   6902351.709 8  -5382777.198 7  20985442.669        2005.606
  -5017732.806 6  -4014709.578 5  22858614.455       -2344.288
 92 10 21  4 16  0.0000000  0  3 18 14 19                            0.000997300
 -11799167.998 7  -9204253.123 6  22113176.486       -2091.326
   6962791.905 8  -5335680.948 7  20996944.059        2023.683
  -5087913.724 6  -4069396.034 5  22845259.657       -2334.432
 92 10 21  4 16 30.0000000  0  3 18 14 19                            0.000999120
 -11861826.394 7  -9253077.789 6  22101252.701       -2086.156
   7023775.568 8  -5288161.221 7  21008548.705        2041.727
  -5157793.379 6  -4123847.673 5  22831961.581       -2324.350
 92 10 21  4 17  0.0000000  0  3 18 14 19                            0.000000970
 -11924337.204 7  -9301787.516 6  22089357.406       -2081.419
   7085296.751 8  -5240222.659 7  21020256.069        2059.682
  -5227372.159 6  -4178064.831 5  22818720.317       -2314.465
 92 10 21  4 17 30.0010000  0  3 18 14 19                            0.001002830
 -11986717.435 8  -9350395.477 6  22077486.794       -2077.050
   7147360.581 8  -5191861.232 7  21032066.264        2077.593
  -5296670.781 6  -4232063.764 5  22805533.398       -2305.451
 92 10 21  4 18  0.0010000  0  3 18 14 19                            0.001004700
 -12048955.592 8  -9398892.703 6  22065643.654       -2072.263
   7209957.283 8  -5143084.577 7  21043977.965        2095.384
  -5365704.485 6  -4285856.218 5  22792396.324       -2296.997
 92 10 21  4 18 30.0010000  0  3 18 14 19                            0.001130570
 -12111047.716 8  -9447276.184 6  22053828.091       -2067.082
   7273093.411 8  -5093887.610 7  21055991.830        2113.530
  -5434492.861 6  -4339457.541 5  22779306.246       -2289.025
 92 10 21  4 19  0.0010000  0  3 18 14 19                            0.001100270
 -12172978.650 8  -9495534.043 6  21442458.585       -2061.393
   7336774.920 8  -5044265.676 7  20468525.335        2131.598
  -5503057.954 6  -4392884.860 5  22166674.360       -2281.669
 92 10 21  4 19 30.0010000  0  3 18 14 19                            0.001069880
 -12234724.046 7  -9543647.311 6  22629877.692       -2055.233
   7400980.198 8  -4994235.577 7  21679913.468        2149.218
  -5571382.174 6  -4446124.469 5  23352843.154       -2273.814
 92 10 21  4 20  0.0010000  0  3 18 14 19                            0.001039410
 -12296289.295 7  -9591620.212 6  21418992.171       -2048.741
   7465726.688 8  -4943783.775 7  20493064.518        2166.562
  -5639478.643 6  -4499186.619 5  22140714.174       -2265.272
 92 10 21  4 20 30.0010000  0  3 18 14 19                            0.001008890
 -12357658.197 7  -9639440.128 6  22606482.967       -2043.063
   7530963.944 8  -4892949.571 7  21704648.735        2183.097
  -5707299.656 6  -4552034.162 5  23326977.749       -2256.528
 92 10 21  4 21  0.0010000  0  3 18 14 19                            0.001978300
 -12418876.623 8  -9687142.769 6  21395664.640       -2037.823
   7596713.881 8  -4841715.870 7  20517990.561        2199.694
  -5774862.899 6  -4604680.850 5  22114950.739       -2246.847
 92 10 21  4 21 30.0010000  0  3 18 14 19                            0.001947680
 -12479932.648 8  -9734718.866 6  22583215.976       -2032.991
   7662936.865 8  -4790113.542 7  21729762.456        2215.908
  -5842109.787 6  -4657080.953 5  23301323.415       -2236.767
 92 10 21  4 22  0.0010000  0  3 18 14 19                            0.001917020
 -12540861.365 8  -9782195.777 6  21672244.576       -2028.618
   7729666.946 8  -4738116.077 7  20843083.563        2232.523
  -5909069.224 6  -4709257.106 5  22389204.751       -2226.611
 92 10 21  4 22 30.0010000  0  3 18 14 19                            0.001886320
 -12601650.089 8  -9829563.601 6  22560053.859       -2024.200
   7796888.550 8  -4685735.628 7  21755252.513        2249.486
  -5975704.601 6  -4761180.787 5  23275901.572       -2216.240
 92 10 21  4 23  0.0010000  0  3 18 14 19                            0.001855580
 -12662313.799 8  -9876833.997 6  21649132.598       -2019.771
   7864638.692 8  -4632943.332 7  20868767.413        2266.753
  -6042042.843 6  -4812872.855 5  22363901.191       -2205.939
 92 10 21  4 23 30.0010000  0  3 18 14 19                            0.001824810
 -12722837.708 8  -9923995.465 6  22536992.674       -2015.260
   7932882.975 8  -4579765.957 7  21781131.485        2283.508
  -6108072.004 6  -4864324.130 5  23250714.096       -2196.335
 92 10 21  4 24  0.0010000  0  3 18 14 19                            0.001793970
 -12783232.148 8  -9971056.055 6  21626122.517       -2010.645
   8001642.965 8  -4526186.746 7  20894839.135        2299.836
  -6173823.575 6  -4915559.129 5  22338824.293       -2186.909
 92 10 21  4 24 30.0010000  0  3 18 14 19                            0.001763080
 -12843467.529 8 -10017992.695 6  22514037.765       -2005.418
   8070876.384 8  -4472238.663 7  21807391.217        2316.136
  -6239287.755 6  -4966570.117 5  23225744.660       -2178.025
 92 10 21  4 25  0.0010000  0  3 18 14 19                            0.001732110
 -12903560.292 8 -10064818.223 6  21603224.907       -2000.248
   8140607.792 8  -4417902.510 7  20921283.387        2332.135
  -6304506.820 6  -5017390.132 5  22313956.409       -2169.455
 92 10 21  4 25 30.0010000  0  3 18 14 19                            0.001701070
 -12963474.154 8 -10111504.329 6  22491201.165       -1994.191
   8210797.846 8  -4363208.952 7  21834017.445        2347.855
  -6369464.530 6  -5068006.552 5  23200973.126       -2161.477
 92 10 21  4 26  0.0010000  0  3 18 14 19                            0.001669940
 -13023208.419 8 -10158050.478 6  21580456.482       -1987.754
   8281491.572 8  -4308122.922 7  20948092.599        2364.420
  -6434189.167 6  -5118441.260 5  22289279.864       -2153.222
 92 10 21  4 26 30.0010000  0  3 18 14 19                            0.001638730
 -13082736.133 8 -10204435.703 6  22468505.748       -1981.225
   8352668.983 8  -4252660.053 7  21861014.535        2381.164
  -6498655.269 6  -5168674.590 5  23176388.616       -2144.743
 92 10 21  4 27  0.0010000  0  3 18 14 19                            0.001607450
 -13142089.043 8 -10250684.724 6  21557834.202       -1975.259
   8424352.259 8  -4196802.946 7  20975277.587        2397.101
  -6562867.153 6  -5218709.765 5  22264792.528       -2135.620
 92 10 21  4 27 30.0010000  0  3 18 14 19                            0.001576110
 -13201242.446 8 -10296778.249 6  22445955.200       -1968.752
   8496506.793 8  -4140578.642 7  21888385.345        2413.771
  -6626781.169 6  -5268512.912 5  23152007.488       -2125.623
 92 10 21  4 28  0.0010000  0  3 18 14 19                            0.001544730
 -13260210.345 8 -10342727.244 6  21535356.403       -1961.713
   8569186.148 8  -4083945.384 7  21002838.598        2431.197
  -6690381.783 6  -5318071.809 5  22240526.674       -2113.804
 92 10 21  4 28 30.0010000  0  3 18 14 19                            0.001513370
 -13318924.568 8 -10388478.570 6  22423561.100       -1952.664
   8642395.546 8  -4026899.105 7  21916147.606        2450.267
  -6753583.530 6  -5367319.844 5  23127877.363       -2099.779
 92 10 21  4 29  0.0010000  0  3 18 14 19                            0.001482020
 -13377355.238 8 -10434008.948 6  21513064.695       -1942.162
   8716219.987 8  -3969373.584 7  21030818.449        2471.226
  -6816363.463 6  -5416239.287 5  22216552.956       -2085.082
 92 10 21  4 29 30.0010000  0  3 18 14 19                            0.001450730
 -13435449.496 8 -10479277.193 6  22101594.214       -1931.056
   8790681.862 8  -3911351.355 7  21644572.723        2493.158
  -6878686.396 6  -5464802.569 5  22804279.401       -2070.151
 92 10 21  4 30  0.0010000  0  3 18 14 19                            0.001419470
 -13493219.807 8 -10524293.023 6  21491016.610       -1920.076
   8865801.872 8  -3852816.300 7  21059282.871        2514.309
  -6940582.043 6  -5513032.909 5  22192916.182       -2056.153
 92 10 21  4 30 30.0010000  0  3 18 14 19                            0.001388230
 -13550648.257 8 -10569042.434 6  22079672.831       -1908.789
   8941547.339 8  -3793793.854 7  21673281.290        2535.598
  -7002054.442 6  -5560933.502 5  22780803.260       -2042.412
 92 10 21  4 31  0.0010000  0  3 18 14 19                            0.001356990
 -13607752.214 8 -10613538.997 6  21469221.407       -1898.014
   9017933.914 8  -3734271.872 7  21088232.781        2556.292
  -7063127.111 6  -5608522.544 5  22169596.070       -2028.947
 92 10 21  4 31 30.0010000  0  3 18 14 19                            0.001325770
 -13664528.776 8 -10657780.476 6  22058002.403       -1887.084
   9094909.842 7  -3674290.617 7  21702465.697        2575.702
  -7123790.064 6  -5655792.367 5  22757637.036       -2015.534
 92 10 21  4 32  0.0010000  0  3 18 14 19                            0.001294560
 -13720980.672 8 -10701768.941 6  21447674.803       -1876.160
   9172469.828 8  -3613854.268 7  21117639.845        2594.745
  -7184061.020 6  -5702756.714 5  22146582.092       -2002.205
 92 10 21  4 32 30.0010000  0  3 18 14 19                            0.001064530
 -13777094.459 8 -10745493.948 6  22036581.203       -1865.168
   9250601.523 8  -3552972.425 7  21732092.966        2614.189
  -7243916.582 6  -5749397.384 5  22734776.531       -1988.512
 92 10 21  4 33  0.0020000  0  3 18 14 19                            0.002067470
 -13832887.750 8 -10788969.243 6  22025964.182       -1854.404
   9329324.587 8  -3491629.806 7  21747073.036        2633.843
  -7303364.924 6  -5795720.775 5  22723463.092       -1974.425
 92 10 21  4 33 30.0020000  0  3 18 14 19                            0.002070440
 -13888350.690 8 -10832187.102 6  22015409.928       -1843.185
   9408642.959 7  -3429823.294 7  21762166.915        2654.145
  -7362384.265 6  -5841709.846 5  22712232.168       -1960.296
